[[{"header":{"parameterUnit":"m.s-1","parameterCategory":1,"la1":30.6,"la2":29.2853,"lo1":-89.7004,"lo2":-87.6739,"dy":0.0162,"dx":0.0183,"nx":112,"ny":82,"refTime":"2023-07-26T12:00:00:Z","depth":0,"parameterNumber":2,"parameterNumberName":"U-component_of_WINDS"},"data":[0.0,0.0,0.0,0.0,0.0,0.0,0.0,0.0,0.0,0.0,0.0,0.0,0.0,0.0,0.0,0.0,0.0,0.0,0.0,0.0,0.0,0.0,0.0,0.0,0.0,0.0,0.0,0.0,0.0,0.0,0.0,0.0,0.0,0.0,0.0,0.0,0.0,0.0,0.0,0.0,0.0,0.0,0.0,0.0,0.0,0.0,0.0,0.0,0.0,0.0,0.0,0.0,0.0,0.0,0.0,0.0,0.0,0.0,0.0,0.0,0.0,0.0,0.0,0.0,0.0,0.0,0.0,0.0,0.0,0.0,0.0,0.0,0.0,0.0,0.0,0.0,0.0,0.0,0.0,0.0,0.0,0.0,0.0,0.0,0.0,0.0,0.0,0.0,0.0,0.0,0.0,-1.7096,-1.7486,-1.7748,-1.7748,-1.7874,-1.7382,-1.6196,0.0,0.0,0.0,0.0,0.0,0.0,0.0,0.0,0.0,0.0,0.0,0.0,0.0,0.0,0.0,0.0,0.0,0.0,0.0,0.0,0.0,0.0,0.0,0.0,0.0,0.0,0.0,0.0,0.0,0.0,0.0,0.0,0.0,0.0,0.0,0.0,0.0,0.0,0.0,0.0,0.0,0.0,0.0,0.0,0.0,0.0,0.0,0.0,0.0,0.0,0.0,0.0,0.0,0.0,0.0,0.0,0.0,0.0,0.0,0.0,0.0,0.0,0.0,0.0,0.0,0.0,0.0,0.0,0.0,0.0,0.0,0.0,0.0,0.0,0.0,0.0,0.0,0.0,0.0,0.0,0.0,0.0,0.0,0.0,0.0,0.0,0.0,0.0,0.0,0.0,0.0,0.0,0.0,0.0,0.0,0.0,0.0,0.0,0.0,0.0,0.0,0.0,0.0,0.0,-1.7025,-1.8553,-1.8251,-1.7974,-1.7974,-1.8527,-1.8004,-1.6018,0.0,0.0,0.0,0.0,0.0,0.0,0.0,0.0,0.0,0.0,0.0,0.0,0.0,0.0,0.0,0.0,0.0,0.0,0.0,0.0,0.0,0.0,0.0,0.0,0.0,0.0,0.0,0.0,0.0,0.0,0.0,0.0,0.0,0.0,0.0,0.0,0.0,0.0,0.0,0.0,0.0,0.0,0.0,0.0,0.0,0.0,0.0,0.0,0.0,0.0,0.0,0.0,0.0,0.0,0.0,0.0,0.0,0.0,0.0,0.0,0.0,0.0,0.0,0.0,0.0,0.0,0.0,0.0,0.0,0.0,0.0,0.0,0.0,0.0,0.0,0.0,0.0,0.0,0.0,0.0,0.0,0.0,0.0,0.0,0.0,0.0,0.0,0.0,0.0,0.0,0.0,0.0,0.0,0.0,0.0,0.0,0.0,0.0,0.0,0.0,0.0,0.0,0.0,-1.6985,-1.7667,-1.8977,-1.8787,-1.8586,-1.8586,-1.8931,-1.8307,-1.6524,-1.6397,0.0,0.0,0.0,0.0,0.0,0.0,0.0,0.0,0.0,0.0,0.0,0.0,0.0,0.0,0.0,0.0,0.0,0.0,0.0,0.0,0.0,0.0,0.0,0.0,0.0,0.0,0.0,0.0,0.0,0.0,0.0,0.0,0.0,0.0,0.0,0.0,0.0,0.0,0.0,0.0,0.0,0.0,0.0,0.0,0.0,0.0,0.0,0.0,0.0,0.0,0.0,0.0,0.0,0.0,0.0,0.0,0.0,0.0,0.0,0.0,0.0,0.0,0.0,0.0,0.0,0.0,0.0,0.0,0.0,0.0,0.0,0.0,0.0,0.0,0.0,0.0,0.0,0.0,0.0,0.0,0.0,0.0,0.0,0.0,0.0,0.0,0.0,0.0,0.0,0.0,0.0,0.0,0.0,0.0,0.0,0.0,0.0,0.0,0.0,0.0,0.0,0.0,-1.7901,-1.8307,-1.8998,-1.8931,-1.8865,-1.8865,-1.8998,-1.8375,-1.6724,-1.6793,0.0,0.0,0.0,0.0,0.0,0.0,0.0,0.0,0.0,0.0,0.0,0.0,0.0,0.0,0.0,0.0,0.0,0.0,0.0,0.0,0.0,0.0,0.0,0.0,0.0,0.0,0.0,0.0,0.0,0.0,0.0,0.0,0.0,0.0,0.0,0.0,0.0,0.0,0.0,0.0,0.0,0.0,0.0,0.0,0.0,0.0,0.0,0.0,0.0,0.0,0.0,0.0,0.0,0.0,0.0,0.0,0.0,0.0,0.0,0.0,0.0,0.0,0.0,0.0,0.0,0.0,0.0,0.0,0.0,0.0,0.0,0.0,0.0,0.0,0.0,0.0,0.0,0.0,0.0,0.0,0.0,0.0,0.0,0.0,0.0,0.0,0.0,0.0,0.0,0.0,0.0,0.0,0.0,0.0,0.0,0.0,0.0,0.0,0.0,0.0,0.0,0.0,-1.755,-1.8307,-1.8998,-1.8519,-1.8104,-1.8104,-1.8731,-1.8172,-1.6035,-1.6524,0.0,0.0,0.0,0.0,0.0,0.0,0.0,0.0,0.0,0.0,0.0,0.0,0.0,0.0,0.0,0.0,0.0,0.0,0.0,0.0,0.0,0.0,0.0,0.0,0.0,0.0,0.0,0.0,0.0,0.0,0.0,0.0,0.0,0.0,0.0,0.0,0.0,0.0,0.0,0.0,0.0,0.0,0.0,0.0,0.0,0.0,0.0,0.0,0.0,0.0,0.0,0.0,0.0,0.0,0.0,0.0,0.0,0.0,0.0,0.0,0.0,0.0,0.0,0.0,0.0,0.0,0.0,0.0,0.0,0.0,0.0,0.0,0.0,0.0,0.0,0.0,0.0,0.0,0.0,0.0,0.0,0.0,0.0,0.0,0.0,0.0,0.0,0.0,0.0,0.0,0.0,0.0,0.0,0.0,0.0,0.0,0.0,0.0,0.0,0.0,0.0,0.0,-1.755,-1.8307,0.0,-1.8865,-1.8664,-1.8664,-1.8931,-1.8375,-1.6594,0.0,0.0,0.0,0.0,0.0,0.0,0.0,0.0,0.0,0.0,0.0,0.0,0.0,0.0,0.0,0.0,0.0,0.0,0.0,0.0,0.0,0.0,0.0,0.0,0.0,0.0,0.0,0.0,0.0,0.0,0.0,0.0,0.0,0.0,0.0,0.0,0.0,0.0,0.0,0.0,0.0,0.0,0.0,0.0,0.0,0.0,0.0,0.0,0.0,0.0,0.0,0.0,0.0,0.0,0.0,0.0,0.0,0.0,0.0,0.0,0.0,0.0,0.0,0.0,0.0,0.0,0.0,0.0,0.0,0.0,0.0,0.0,0.0,0.0,0.0,0.0,0.0,0.0,0.0,0.0,0.0,0.0,0.0,0.0,0.0,0.0,0.0,0.0,0.0,0.0,0.0,0.0,0.0,0.0,0.0,0.0,0.0,0.0,0.0,0.0,0.0,0.0,-1.6872,-1.7765,-1.8519,0.0,-1.9075,-1.9075,-1.9075,-1.9075,-1.8452,-1.7001,0.0,0.0,0.0,0.0,0.0,0.0,0.0,0.0,0.0,0.0,0.0,0.0,0.0,0.0,0.0,0.0,0.0,0.0,0.0,0.0,0.0,0.0,0.0,0.0,0.0,0.0,0.0,0.0,0.0,0.0,0.0,0.0,0.0,0.0,0.0,0.0,0.0,0.0,0.0,0.0,0.0,0.0,0.0,0.0,0.0,0.0,0.0,0.0,0.0,0.0,0.0,0.0,0.0,0.0,0.0,0.0,0.0,0.0,0.0,0.0,0.0,0.0,0.0,0.0,0.0,0.0,0.0,0.0,0.0,0.0,0.0,0.0,0.0,0.0,0.0,0.0,0.0,0.0,0.0,0.0,0.0,0.0,0.0,0.0,0.0,0.0,0.0,0.0,0.0,0.0,0.0,0.0,0.0,0.0,0.0,0.0,0.0,0.0,0.0,0.0,0.0,0.0,-1.6932,-1.8172,-1.9075,-1.9075,-1.9075,-1.9075,-1.9075,-1.9075,-1.8452,0.0,0.0,0.0,0.0,0.0,0.0,0.0,0.0,0.0,0.0,0.0,0.0,0.0,0.0,0.0,0.0,0.0,0.0,0.0,0.0,0.0,0.0,0.0,0.0,0.0,0.0,0.0,0.0,0.0,0.0,0.0,0.0,0.0,0.0,0.0,0.0,0.0,0.0,0.0,0.0,0.0,0.0,0.0,0.0,0.0,0.0,0.0,0.0,0.0,0.0,0.0,0.0,0.0,0.0,0.0,0.0,0.0,0.0,0.0,0.0,0.0,0.0,0.0,0.0,0.0,0.0,0.0,0.0,0.0,0.0,0.0,0.0,0.0,0.0,0.0,0.0,0.0,0.0,0.0,0.0,0.0,0.0,0.0,0.0,0.0,0.0,0.0,0.0,0.0,0.0,0.0,0.0,0.0,0.0,0.0,0.0,0.0,0.0,0.0,0.0,0.0,0.0,0.0,-1.6932,-1.8172,-1.9075,-1.9075,-1.9075,-1.9075,-1.9075,-1.9075,-1.8452,-1.7001,0.0,0.0,0.0,0.0,0.0,0.0,0.0,0.0,0.0,0.0,0.0,0.0,0.0,0.0,0.0,0.0,0.0,0.0,0.0,0.0,0.0,0.0,0.0,0.0,0.0,0.0,0.0,0.0,0.0,0.0,0.0,0.0,0.0,0.0,0.0,0.0,0.0,0.0,0.0,0.0,0.0,0.0,0.0,0.0,0.0,0.0,0.0,0.0,0.0,0.0,0.0,0.0,0.0,0.0,0.0,0.0,0.0,0.0,0.0,0.0,0.0,0.0,0.0,0.0,0.0,0.0,0.0,0.0,0.0,0.0,0.0,0.0,0.0,0.0,0.0,0.0,0.0,0.0,0.0,0.0,0.0,0.0,0.0,0.0,0.0,0.0,0.0,0.0,0.0,0.0,0.0,0.0,0.0,0.0,0.0,0.0,0.0,0.0,0.0,0.0,0.0,0.0,-1.733,-1.8695,-1.9613,-1.9613,-1.9613,-1.9613,-1.9613,-1.9613,-1.9041,-1.7678,0.0,0.0,0.0,0.0,0.0,0.0,0.0,0.0,0.0,0.0,0.0,0.0,0.0,0.0,0.0,0.0,0.0,0.0,0.0,0.0,0.0,0.0,0.0,0.0,0.0,0.0,0.0,0.0,0.0,0.0,0.0,0.0,0.0,0.0,0.0,0.0,0.0,0.0,0.0,0.0,0.0,0.0,0.0,0.0,0.0,0.0,0.0,0.0,0.0,0.0,0.0,0.0,0.0,0.0,0.0,0.0,0.0,0.0,0.0,0.0,0.0,0.0,0.0,0.0,0.0,0.0,0.0,0.0,0.0,0.0,0.0,0.0,0.0,0.0,0.0,0.0,0.0,0.0,0.0,0.0,0.0,0.0,0.0,0.0,0.0,0.0,0.0,0.0,0.0,0.0,0.0,0.0,0.0,0.0,0.0,0.0,0.0,0.0,0.0,0.0,0.0,0.0,-1.8036,-1.9476,-2.042,-2.042,-2.042,-2.042,-2.042,-2.042,-1.9961,-1.8842,0.0,0.0,0.0,0.0,0.0,0.0,0.0,0.0,0.0,0.0,0.0,0.0,0.0,0.0,0.0,0.0,0.0,0.0,0.0,0.0,0.0,0.0,0.0,0.0,0.0,0.0,0.0,0.0,0.0,0.0,0.0,0.0,0.0,0.0,0.0,0.0,0.0,0.0,0.0,0.0,0.0,0.0,0.0,0.0,0.0,0.0,0.0,0.0,0.0,0.0,0.0,0.0,0.0,0.0,0.0,0.0,0.0,0.0,0.0,0.0,-1.7358,0.0,0.0,0.0,0.0,0.0,0.0,0.0,0.0,0.0,0.0,0.0,0.0,0.0,0.0,0.0,0.0,0.0,0.0,0.0,0.0,0.0,0.0,0.0,0.0,0.0,0.0,0.0,0.0,0.0,0.0,0.0,0.0,0.0,0.0,0.0,0.0,0.0,0.0,0.0,0.0,0.0,-1.8073,-1.9476,-2.042,-2.042,-2.042,-2.042,-2.042,-2.042,-2.0012,-1.9183,-1.9262,0.0,0.0,0.0,0.0,0.0,0.0,0.0,0.0,0.0,0.0,0.0,0.0,0.0,0.0,0.0,0.0,0.0,0.0,0.0,0.0,0.0,0.0,0.0,0.0,0.0,0.0,0.0,0.0,0.0,0.0,0.0,0.0,0.0,0.0,0.0,0.0,0.0,0.0,0.0,0.0,0.0,0.0,0.0,0.0,0.0,0.0,0.0,0.0,0.0,0.0,0.0,0.0,0.0,0.0,0.0,0.0,0.0,0.0,0.0,0.0,-1.8262,0.0,0.0,0.0,0.0,0.0,0.0,0.0,0.0,0.0,0.0,0.0,0.0,0.0,0.0,0.0,0.0,0.0,0.0,0.0,0.0,0.0,0.0,0.0,0.0,0.0,0.0,0.0,0.0,0.0,0.0,0.0,0.0,0.0,0.0,0.0,0.0,0.0,0.0,0.0,0.0,-1.9165,-2.0332,-2.1093,-2.1093,-2.1093,-2.1093,-2.1093,-2.1093,-2.0843,-2.0169,-2.036,0.0,0.0,0.0,0.0,0.0,0.0,0.0,0.0,0.0,0.0,0.0,0.0,0.0,0.0,0.0,0.0,0.0,0.0,0.0,0.0,0.0,0.0,0.0,0.0,0.0,0.0,0.0,0.0,0.0,0.0,0.0,0.0,0.0,0.0,0.0,0.0,0.0,0.0,0.0,0.0,0.0,0.0,0.0,0.0,0.0,0.0,0.0,0.0,0.0,0.0,0.0,0.0,0.0,-1.9154,-1.9539,-1.9561,-1.99,-2.0085,-2.0042,-1.9288,-1.8938,-1.8938,0.0,0.0,0.0,0.0,0.0,0.0,0.0,0.0,0.0,0.0,0.0,0.0,0.0,0.0,0.0,0.0,0.0,0.0,0.0,0.0,0.0,0.0,0.0,0.0,0.0,-1.9716,-1.9783,0.0,0.0,0.0,0.0,0.0,0.0,0.0,0.0,0.0,0.0,0.0,0.0,-2.0411,-2.1252,-2.1807,-2.1807,-2.1807,-2.1807,-2.1807,-2.1807,-2.1642,-2.1259,-2.159,-2.108,0.0,0.0,0.0,0.0,0.0,0.0,0.0,0.0,0.0,0.0,0.0,0.0,0.0,0.0,0.0,0.0,0.0,0.0,0.0,0.0,0.0,0.0,0.0,0.0,0.0,0.0,0.0,0.0,0.0,0.0,0.0,0.0,-1.4646,-1.4644,0.0,0.0,0.0,0.0,0.0,0.0,0.0,0.0,0.0,0.0,0.0,0.0,0.0,-1.867,-1.8859,-1.934,-1.9684,-1.9814,-1.9955,-1.9987,-1.9987,-2.0053,-2.0085,-2.0074,-1.9944,0.0,-1.9889,-1.9889,0.0,0.0,0.0,0.0,0.0,0.0,0.0,0.0,0.0,0.0,0.0,0.0,0.0,0.0,0.0,0.0,0.0,0.0,0.0,0.0,0.0,0.0,-2.0601,-2.1159,-2.0887,-2.0607,0.0,-2.0233,-1.9799,-2.0103,-1.9675,0.0,0.0,0.0,0.0,0.0,0.0,0.0,-2.045,-2.1252,-2.1807,-2.1807,-2.1807,-2.1807,-2.1807,-2.1807,-2.1776,-2.1714,-2.1776,-2.1354,-2.0381,-2.0144,0.0,0.0,0.0,0.0,0.0,0.0,0.0,0.0,0.0,0.0,0.0,0.0,0.0,0.0,0.0,0.0,0.0,0.0,0.0,0.0,0.0,0.0,0.0,0.0,0.0,0.0,0.0,0.0,0.0,-1.4599,-1.4873,-1.5892,-1.5775,-1.5585,0.0,0.0,0.0,0.0,0.0,0.0,0.0,0.0,0.0,-1.8753,-1.9136,-1.9361,-1.9619,-1.9901,-2.0009,-2.0085,-2.0085,-2.0293,-2.0544,-2.0544,-2.0697,-2.0959,-2.0959,-2.0959,-2.0915,-2.0303,-2.0085,-2.0085,0.0,0.0,0.0,0.0,-2.0085,-2.0085,-2.0085,-2.0085,0.0,-2.0085,0.0,0.0,0.0,0.0,0.0,0.0,0.0,0.0,0.0,0.0,-2.0914,-2.1328,-2.1161,-2.0942,-2.1206,-2.0885,-2.0576,0.0,-2.0512,-2.0286,-2.0272,0.0,0.0,0.0,0.0,0.0,-2.1175,-2.1568,-2.1807,-2.1807,-2.1807,-2.1807,-2.1807,-2.1807,-2.1807,-2.1807,-2.1807,-2.1645,-2.1252,-2.0592,-2.011,0.0,0.0,0.0,0.0,0.0,0.0,0.0,0.0,0.0,0.0,0.0,0.0,0.0,0.0,0.0,0.0,0.0,0.0,0.0,0.0,0.0,0.0,0.0,0.0,0.0,0.0,0.0,0.0,-1.5337,-1.5698,-1.7079,-1.6777,-1.66,0.0,0.0,0.0,0.0,0.0,0.0,-1.8557,-1.8955,-1.9208,-1.9285,-1.9483,-1.9735,-1.9985,-2.0128,-2.0259,-2.0389,-2.0389,-2.063,-2.1046,-2.1046,-2.1243,-2.1592,-2.1592,-2.1592,-2.1538,-2.0817,-2.0445,-2.0445,-2.0445,-2.0445,-2.0445,-2.0445,-2.0445,-2.0445,-2.0445,-2.0445,-2.0445,-2.0445,0.0,-2.0978,-2.0841,0.0,0.0,0.0,0.0,-2.096,-2.1452,-2.1343,-2.1232,-2.1564,-2.1453,-2.125,-2.1513,-2.1438,-2.129,0.0,-2.129,-2.1169,-2.0884,0.0,0.0,0.0,0.0,-2.1088,-2.1721,-2.1807,-2.1807,-2.1807,-2.1807,-2.1807,-2.1807,-2.1807,-2.1807,-2.1807,-2.1807,-2.1807,-2.1807,-2.1175,-2.0857,-2.0857,0.0,0.0,0.0,0.0,0.0,0.0,0.0,0.0,0.0,0.0,0.0,0.0,0.0,0.0,0.0,0.0,0.0,0.0,0.0,0.0,0.0,0.0,0.0,0.0,0.0,0.0,0.0,0.0,0.0,-1.7883,-1.8207,0.0,0.0,0.0,0.0,-1.8045,-1.868,-1.9034,-1.9034,-1.9198,-1.9274,-1.9285,-1.9483,-1.9828,-2.0286,-2.0286,-2.0578,-2.1237,-2.1237,-2.1317,-2.1549,-2.1549,-2.1559,-2.1592,-2.1592,-2.1592,-2.1581,-2.1538,-2.1516,-2.1516,-2.1516,-2.1516,-2.1516,-2.1516,-2.1516,-2.1516,-2.1516,-2.1516,-2.1516,-2.1516,-2.1387,-2.128,-2.1269,-2.1129,0.0,0.0,-2.1312,-2.1409,-2.2088,-2.197,-2.1848,-2.2445,-2.2188,-2.1821,-2.1983,-2.1918,-2.1766,0.0,-2.1766,-2.1776,-2.1721,0.0,-2.1731,-2.1731,-2.1731,-2.1731,-2.1807,-2.1807,-2.1807,-2.1807,-2.1807,-2.1807,-2.1807,-2.1807,-2.1807,-2.1807,-2.1807,-2.1807,-2.1807,-2.1731,-2.1731,-2.1731,-2.0837,0.0,0.0,0.0,0.0,0.0,0.0,0.0,0.0,0.0,0.0,0.0,0.0,0.0,0.0,0.0,0.0,0.0,0.0,0.0,0.0,0.0,0.0,0.0,0.0,0.0,0.0,0.0,0.0,-1.8612,-1.8788,0.0,-1.8487,-1.8839,-1.8998,-1.8721,-1.8931,-1.9075,-1.9075,-1.9422,-1.9656,-1.9656,-2.0065,-2.0376,-2.0534,-2.0834,-2.1,-2.1101,-2.1382,-2.1604,-2.1886,-2.198,-2.2215,-2.2499,-2.2972,-2.3176,-2.3247,-2.3756,-2.3049,-2.1592,-2.1592,-2.1592,-2.1592,-2.1592,-2.1592,-2.1592,-2.1592,-2.1592,-2.1647,-2.1953,-2.199,-2.1973,-2.2339,-2.2342,-2.2331,-2.2342,-2.228,-2.2323,-2.2633,-2.2455,-2.2264,-2.2585,-2.2327,-2.2025,-2.2101,-2.1959,-2.1807,-2.1807,-2.1807,-2.1807,-2.1807,-2.1807,-2.1807,-2.1807,-2.1807,-2.1807,-2.1807,-2.1807,-2.1807,-2.1807,-2.1807,-2.1807,-2.1807,-2.1807,-2.1807,-2.1807,-2.1807,-2.1807,-2.1807,-2.1807,-2.1807,-2.1807,-2.1482,-2.1328,0.0,0.0,0.0,0.0,0.0,0.0,0.0,0.0,0.0,0.0,0.0,0.0,0.0,0.0,0.0,0.0,0.0,0.0,0.0,0.0,0.0,0.0,0.0,0.0,0.0,0.0,-1.8273,-1.9034,-1.9075,-1.9075,-1.9075,-1.9075,-1.9204,-1.9292,-1.937,-1.9375,-1.952,-1.982,-1.9986,-1.9986,-2.0407,-2.0636,-2.0792,-2.11,-2.1267,-2.1343,-2.1632,-2.1937,-2.2228,-2.2396,-2.2644,-2.3001,-2.3486,-2.3694,-2.3768,-2.4288,-2.3693,-2.2466,-2.2759,-2.2829,-2.2829,-2.2536,-2.2466,-2.2395,-2.2133,-2.2062,-2.2116,-2.2444,-2.2553,-2.2608,-2.2914,-2.3001,-2.3001,-2.3001,-2.2852,-2.2703,-2.2852,-2.2628,-2.2327,-2.2478,-2.2252,-2.2035,-2.2035,-2.1883,-2.1807,-2.1807,-2.1807,-2.1807,-2.1807,-2.1807,-2.1807,-2.1807,-2.1807,-2.1807,-2.1807,-2.1807,-2.1807,-2.1807,-2.1807,-2.1807,-2.1807,-2.1807,-2.1807,-2.1807,-2.1807,-2.1807,-2.1807,-2.1807,-2.1807,-2.1807,-2.1807,-2.1655,-2.1328,0.0,0.0,0.0,0.0,0.0,0.0,0.0,0.0,0.0,0.0,0.0,0.0,0.0,0.0,0.0,0.0,0.0,0.0,0.0,0.0,0.0,0.0,0.0,-1.7969,-1.8654,-1.9075,-1.9075,-1.9075,-1.9075,-1.9085,-1.9085,-1.9349,-1.9748,-1.9848,-1.9975,-2.04,-2.0431,-2.0441,-2.0441,-2.0462,-2.0679,-2.1135,-2.1135,-2.1426,-2.2111,-2.2101,-2.2327,-2.2703,-2.2703,-2.2852,-2.3001,-2.3075,-2.3075,-2.3075,-2.3075,-2.3486,-2.4192,-2.4933,-2.5229,-2.5158,-2.4337,-2.4047,-2.3975,-2.3287,-2.3001,-2.3001,-2.3001,-2.3001,-2.3001,-2.3001,-2.3001,-2.3001,-2.3001,-2.2852,-2.2703,-2.2703,-2.2402,-2.2101,-2.2101,-2.1959,-2.1807,-2.1807,-2.1807,-2.1807,-2.1807,-2.1807,-2.1807,-2.1807,-2.1807,-2.1807,-2.1807,-2.1807,0.0,-2.1807,-2.1807,-2.1807,-2.1807,-2.1807,-2.1807,-2.1807,-2.1807,-2.1807,-2.1807,-2.1807,-2.1807,-2.1807,-2.1807,-2.1807,-2.1807,-2.1807,-2.1405,-2.0459,0.0,0.0,0.0,0.0,0.0,0.0,0.0,0.0,0.0,0.0,0.0,0.0,0.0,0.0,0.0,0.0,0.0,0.0,0.0,0.0,0.0,0.0,-1.7969,-1.7969,-1.8654,-1.9075,-1.9075,-1.9075,-1.9199,-1.9541,-1.964,-1.9758,-2.0203,-2.0245,-2.0296,-2.042,-2.0741,-2.0928,-2.0928,-2.1248,-2.1487,-2.1621,-2.1761,-2.1824,-2.1883,-2.2176,-2.2327,-2.2327,-2.3117,-2.3265,-2.2841,-2.4154,-2.436,-2.3841,-2.4432,-2.4802,-2.4862,-2.4009,-2.3925,-2.4348,-2.3559,-2.3276,-2.3276,-2.3065,-2.3001,-2.3001,-2.3001,-2.3001,-2.3001,-2.3001,-2.3001,-2.3001,-2.3001,-2.2927,-2.2852,-2.2777,-2.2478,-2.2252,-2.2101,-2.1959,-2.1807,-2.1807,-2.1807,-2.1807,-2.1807,-2.1807,-2.1807,-2.1807,-2.1807,-2.1807,-2.1807,-2.1807,0.0,-2.1807,-2.1807,-2.1807,-2.1807,-2.1807,-2.1807,-2.1807,-2.1807,-2.1807,-2.1807,-2.1807,-2.1807,-2.1807,-2.1807,-2.1807,-2.1807,-2.1807,-2.1405,0.0,0.0,0.0,0.0,0.0,0.0,0.0,0.0,0.0,0.0,0.0,0.0,0.0,0.0,0.0,0.0,0.0,0.0,0.0,0.0,0.0,0.0,-1.8612,-1.8733,-1.8733,-1.8977,-1.9137,-1.9401,-1.9354,-1.9541,-1.9996,-2.0038,-2.0224,-2.0679,-2.071,-2.0803,-2.1,-2.1259,-2.1487,-2.1683,-2.1952,-2.219,-2.2387,-2.2533,-2.2533,-2.2387,-2.3054,-2.3361,-2.3351,-2.4528,-2.4825,-2.455,-2.5597,-2.5731,-2.5354,-2.5804,-2.6178,0.0,0.0,0.0,0.0,0.0,-2.3276,-2.3001,-2.3001,-2.3001,-2.3001,-2.3001,-2.3001,-2.3001,-2.3001,-2.3001,-2.3001,-2.3001,-2.2852,-2.2703,-2.2628,-2.2327,-2.2101,-2.2035,-2.1883,-2.1807,-2.1807,-2.1807,-2.1807,-2.1807,-2.1807,0.0,-2.1807,-2.1807,-2.1807,-2.1807,-2.1807,-2.1807,-2.1807,-2.1807,-2.1807,-2.1807,-2.1807,-2.1807,-2.1807,-2.1807,0.0,0.0,0.0,-2.1807,-2.1807,-2.1807,0.0,0.0,0.0,-2.1568,-2.1011,0.0,0.0,0.0,-1.9155,-1.8822,0.0,0.0,0.0,0.0,0.0,0.0,0.0,0.0,0.0,0.0,0.0,0.0,0.0,0.0,0.0,0.0,-1.9599,-1.99,-1.99,-1.9479,-1.9375,-1.9789,-1.99,-2.0006,-2.0462,-2.0503,-2.069,-2.1155,-2.1238,-2.1445,-2.1859,0.0,0.0,0.0,0.0,-2.277,-2.3184,-2.3184,-2.3265,-2.3346,-2.4331,-2.4949,-2.526,-2.6323,-2.6863,-2.695,-2.71,-2.71,-2.7025,-2.7025,-2.7397,-2.7801,-2.6139,-2.536,-2.5087,-2.4337,-2.3621,-2.3001,-2.3001,0.0,0.0,-2.3001,-2.3001,-2.3001,-2.3001,-2.3001,-2.3001,-2.3001,-2.2777,-2.2478,-2.2478,-2.2176,-2.1883,-2.1807,-2.1807,-2.1807,-2.1807,-2.1807,-2.1807,-2.1807,-2.1807,-2.1807,-2.1807,-2.1807,-2.1807,-2.1807,-2.1807,-2.1807,-2.1807,-2.1807,-2.1807,-2.1807,0.0,0.0,-2.1807,-2.1807,-2.1807,-2.1807,-2.1807,-2.1807,-2.1807,-2.1807,-2.1807,-2.1807,-2.1807,-2.1807,-2.1807,-2.1807,-2.1405,-2.0624,-1.9816,-1.9737,0.0,0.0,0.0,0.0,0.0,0.0,0.0,0.0,0.0,0.0,0.0,0.0,0.0,0.0,0.0,-1.9555,-2.0006,-2.0296,-2.0296,-2.0213,-2.0193,-2.0286,-2.0296,-2.0472,-2.0938,-2.0979,-2.1176,-2.1631,-2.2025,-2.2273,-2.2356,-2.2718,-2.2956,-2.3049,-2.3049,-2.3101,-2.3184,-2.3184,-2.3566,-2.4252,0.0,0.0,-2.593,-2.6902,-2.7138,-2.6788,-2.7533,-2.7545,-2.7025,-2.7025,-2.71,-2.7175,-2.6974,-2.5863,-2.4337,-2.4192,-2.3621,-2.3001,-2.3001,-2.3001,-2.3001,-2.3001,-2.3001,-2.3001,-2.3001,-2.3001,0.0,-2.3001,-2.2927,-2.2852,-2.2703,-2.2478,-2.2252,-2.2101,-2.1959,-2.1807,-2.1807,-2.1807,-2.1807,-2.1807,-2.1807,-2.1807,-2.1807,-2.1807,-2.1807,-2.1807,-2.1807,-2.1807,-2.1807,-2.1807,-2.1807,-2.1807,-2.1807,-2.1807,-2.1807,-2.1807,-2.1807,-2.1807,-2.1807,-2.1807,-2.1807,-2.1807,-2.1807,-2.1807,-2.1807,-2.1807,-2.1807,-2.1807,-2.1731,-2.1492,-2.0692,-1.9668,0.0,0.0,0.0,0.0,0.0,0.0,0.0,0.0,0.0,0.0,0.0,-1.7944,0.0,0.0,-1.9657,-2.0019,-2.0472,-2.0772,-2.0772,-2.0969,-2.1031,-2.0793,-2.0772,-2.0948,-2.1414,-2.1662,-2.1901,-2.2128,-2.2584,-2.2842,-2.2842,-2.306,-2.3298,-2.3525,-2.3536,-2.3639,-2.3867,-2.3867,-2.4251,-2.519,-2.5755,-2.654,-2.7633,-2.8649,-2.9038,-2.8888,-2.9349,-2.9349,-2.8975,-2.8975,-2.8812,-2.8535,-2.8635,-2.7418,-2.5545,-2.5545,-2.5335,-2.49,-2.4536,-2.4228,-2.3951,-2.3512,-2.3198,-2.3001,-2.3001,-2.3001,-2.3001,-2.3001,-2.2852,-2.2703,-2.2553,-2.2327,-2.2101,-2.1949,-2.1883,-2.1807,-2.1807,-2.1807,-2.1807,-2.1807,-2.1807,-2.1807,-2.1807,-2.1807,-2.1807,-2.1807,-2.1807,-2.1807,-2.1807,-2.1807,-2.1807,-2.1807,-2.1807,-2.1807,-2.1807,-2.1807,-2.1807,-2.1807,-2.1807,-2.1807,-2.1807,-2.1807,-2.1807,-2.1807,-2.1807,-2.1807,-2.1807,-2.1807,-2.1807,-2.1807,-2.1328,-2.0692,0.0,0.0,0.0,0.0,0.0,0.0,0.0,0.0,-1.7166,-1.7458,-1.823,-1.8934,-1.9013,-1.989,-2.0555,-2.0555,-2.0948,-2.1248,-2.1248,-2.1569,-2.1694,-2.1414,-2.1383,-2.1528,-2.1901,-2.2356,-2.2635,-2.2635,-2.306,-2.3318,-2.3318,-2.3401,-2.3619,-2.3991,-2.4095,-2.4312,-2.4674,-2.493,-2.5455,-2.6356,-2.7508,-2.8599,-2.9568,-3.0445,-3.094,-3.0986,-3.0986,-3.0986,-3.0986,-3.0986,-3.0712,-3.0294,-3.0294,-2.9247,-2.7679,-2.7172,-2.68,-2.6434,-2.567,-2.5253,-2.4759,-2.4095,-2.3613,-2.3285,-2.3285,-2.322,-2.3143,-2.3143,-2.2842,-2.2478,-2.2478,-2.2176,-2.1883,-2.1883,-2.1807,-2.1807,-2.1807,-2.1807,-2.1807,-2.1807,-2.1807,-2.1807,-2.1807,-2.188,-2.1911,-2.1818,-2.1807,-2.1807,-2.1807,-2.1807,-2.1807,-2.1807,-2.1807,-2.1807,-2.1807,-2.1807,-2.1807,-2.1807,-2.1807,-2.1807,-2.1807,-2.1807,-2.1807,-2.1807,-2.1807,-2.1807,-2.1807,-2.1807,-2.1807,-2.1807,-2.1807,-2.1731,-1.5551,-1.6175,-1.6932,-1.7687,-1.7345,-1.7207,0.0,0.0,-1.8213,-1.9239,-1.9579,-1.9813,-2.0124,-2.0648,-2.1041,-2.1041,-2.1424,-2.1725,-2.1725,-2.1776,-2.1942,-2.2304,-2.2335,-2.2366,-2.2418,-2.2842,-2.3111,-2.3111,-2.3536,-2.3805,-2.3805,-2.4178,-2.4416,-2.4467,-2.4871,-2.5109,-2.5161,-2.6408,-2.7468,-2.8397,-2.9487,-3.0412,-3.0942,-3.1254,-3.1304,-3.0986,-3.0986,-3.0986,-3.0986,-3.0986,-3.0947,-3.0895,-3.0895,-3.0768,-3.0274,-2.7828,-2.5989,-2.4791,-2.4634,-2.4601,-2.4557,-2.4399,-2.4366,-2.4323,-2.4323,-2.4006,-2.3646,-2.3646,-2.3178,-2.2703,-2.2703,-2.2402,-2.2101,-2.2101,-2.1949,-2.1807,-2.1807,-2.1807,-2.1807,-2.1807,-2.1807,-2.1807,-2.1807,-2.2149,-2.2273,-2.1869,-2.1807,-2.1807,-2.1807,-2.1807,-2.1807,-2.1807,-2.1807,-2.1807,-2.1807,-2.1807,-2.1807,-2.1807,-2.1807,-2.1807,-2.1807,-2.1807,-2.1807,-2.1807,-2.1807,-2.1807,-2.1807,-2.1807,-2.1807,-2.1807,-2.1807,-2.1405,-1.6862,-1.7276,0.0,0.0,-1.8385,-1.8377,-1.927,-1.9264,-1.9249,-1.9978,-2.0358,-2.0607,-2.0793,-2.1207,-2.1518,0.0,-2.1683,-2.1807,-2.1807,-2.2035,-2.2273,-2.247,-2.2977,-2.3194,-2.2925,-2.3318,-2.3588,-2.3588,-2.4012,-2.426,-2.426,-2.4695,-2.4943,-2.4943,-2.5378,-2.5606,-2.5606,-2.6754,-2.7886,-2.8889,-2.9918,-3.0909,-3.186,-3.2018,-3.1785,-3.1483,-3.1483,-3.13,-3.0986,-3.0986,-3.0986,-3.0986,-3.0986,-3.0672,-3.0126,-2.8961,-2.8098,-2.7411,-2.6405,-2.5893,-2.5565,-2.504,-2.4705,-2.4486,-2.4486,-2.4334,-2.417,-2.417,-2.3861,-2.3468,-2.3188,-2.2894,-2.26,-2.2164,-2.2025,-2.2032,-2.2149,-2.2211,-2.2294,-2.2563,-2.2604,-2.2604,-2.2604,-2.277,-2.2832,-2.2635,-2.2604,-2.2604,-2.2604,-2.2604,-2.2511,-2.2242,-2.1963,-2.1807,-2.1807,-2.1807,-2.1807,-2.1807,-2.1807,-2.1807,-2.1807,-2.1807,-2.1807,-2.1807,-2.1807,-2.1807,-2.1807,-2.1807,-2.1807,-2.1807,-2.1807,-2.1568,-1.8037,0.0,0.0,-1.8998,-1.9235,-1.9344,-1.9754,-1.9862,-2.0069,-2.0524,-2.0886,-2.1155,-2.128,-2.158,0.0,-2.1807,-2.1807,-2.1807,-2.1807,-2.2201,-2.2542,-2.2677,-2.3391,-2.3795,-2.3577,-2.3867,-2.4064,-2.4064,-2.4364,-2.4602,-2.4726,-2.5047,-2.5373,-2.5498,-2.5934,-2.6344,-2.6594,-2.761,-2.8718,-2.9738,-3.0785,-3.1738,-3.2546,-3.2538,-3.2319,-3.2071,-3.2071,-3.1744,-3.1222,-3.1222,-3.113,-3.0986,-3.0986,-3.0508,-2.9704,-2.9459,-2.9225,-2.8834,-2.7336,-2.6619,-2.6141,-2.5606,-2.5142,-2.488,-2.488,-2.4792,-2.4683,-2.4683,-2.4404,-2.3971,-2.3627,-2.3307,-2.2987,-2.2495,-2.2412,-2.2428,-2.2615,-2.2687,-2.278,-2.3122,-2.3184,-2.3184,-2.3184,-2.3298,-2.3381,-2.3381,-2.3484,-2.3474,-2.3215,-2.3184,-2.306,-2.2718,-2.2273,-2.1994,-2.1994,-2.188,-2.1807,-2.1807,-2.1807,-2.1807,-2.1807,-2.1807,-2.1807,-2.1807,-2.1807,-2.1807,-2.1807,-2.1807,-2.1807,-2.1807,-2.1807,-2.1807,0.0,0.0,-1.9075,-1.9065,-1.9406,-1.9806,-1.9827,-2.0089,-2.0534,-2.1,-2.1104,-2.1248,-2.1694,-2.1797,-2.1807,-2.1807,-2.1807,-2.1807,-2.1807,-2.2201,-2.2666,-2.3111,-2.3588,-2.4043,0.0,-2.4509,-2.4519,-2.4519,-2.4444,-2.4736,-2.5181,-2.5476,-2.5774,-2.6225,-2.6697,-2.7377,-2.832,-2.9523,-3.0574,-3.1577,-3.2968,-3.3308,-3.288,-3.2707,-3.2685,-3.2659,-3.2659,-3.2346,-3.1823,-3.1823,-3.1483,-3.0986,-3.0986,-3.0508,-2.9626,-2.8743,-2.7959,-2.7185,-2.6218,-2.5968,-2.5874,-2.5884,-2.5874,-2.5863,-2.5863,-2.5524,-2.5153,-2.5153,-2.4492,-2.3817,-2.3807,-2.3486,-2.3163,-2.3143,-2.3143,-2.3143,-2.3163,-2.3163,-2.3163,-2.3184,-2.3184,-2.3184,-2.3184,-2.3557,-2.3857,-2.3857,-2.4229,-2.4188,-2.3298,-2.3184,-2.3184,-2.3163,-2.2749,-2.248,-2.248,-2.2066,-2.1807,-2.1807,-2.1807,-2.1807,-2.1807,-2.1807,-2.1807,-2.1807,-2.1807,-2.1807,-2.1807,-2.1807,-2.1807,-2.1807,-2.1807,-2.1807,0.0,0.0,-1.953,-1.953,-1.9862,-2.0286,-2.0586,-2.0772,-2.101,-2.1476,-2.1569,-2.1621,-2.1776,-2.1807,-2.1807,-2.1807,-2.1807,-2.1807,-2.1807,-2.247,-2.3008,-2.3163,-2.3857,0.0,0.0,0.0,0.0,-2.454,-2.483,-2.5155,-2.5476,-2.6151,-2.6641,-2.696,-2.7252,-2.7857,-2.8829,-2.9716,-3.0711,-3.1901,-3.3288,-3.3972,-3.3861,-3.3832,-3.3626,-3.3287,-3.3287,-3.2947,-3.2411,-3.2411,-3.2071,-3.1472,-3.0919,-3.0276,-2.9549,-2.8119,-2.7418,-2.7103,-2.6218,-2.5895,-2.5895,-2.5895,-2.5895,-2.5895,-2.5895,-2.5786,-2.5655,-2.5655,-2.538,-2.4927,-2.4594,-2.4275,-2.3966,-2.3499,-2.3426,-2.3429,-2.3659,-2.365,-2.3732,-2.4022,-2.4084,-2.4084,-2.4084,-2.4219,-2.4322,-2.4322,-2.4447,-2.4426,-2.4126,-2.3826,-2.365,-2.365,-2.3225,-2.2956,-2.2956,-2.2532,-2.2263,-2.2263,-2.1973,-2.1807,-2.1807,-2.1807,-2.1807,-2.1807,-2.1807,-2.1807,-2.1807,-2.1807,-2.1807,-2.1807,-2.1807,-2.1807,0.0,-1.9702,-1.9827,-1.9827,-2.0224,-2.0752,-2.1041,-2.1238,-2.1445,-2.1745,-2.1807,-2.1807,-2.1807,-2.1807,-2.1807,-2.1807,-2.1807,-2.1807,-2.1807,-2.2604,-2.3184,-2.3184,-2.3991,0.0,0.0,0.0,0.0,-2.454,-2.4964,-2.5384,-2.5805,-2.662,-2.7289,-2.7633,-2.7755,-2.8351,-2.9715,-3.0079,-3.0979,-3.2587,-3.3641,-3.4243,-3.4397,-3.4397,-3.4201,-3.3875,-3.3875,-3.3548,-3.3012,-3.3012,-3.2501,-3.1575,-3.1086,-3.0208,-2.9141,-2.7918,-2.7213,-2.6858,-2.6118,-2.5895,-2.5895,-2.5895,-2.5895,-2.5895,-2.5895,-2.5895,-2.5895,-2.5895,-2.5738,-2.5484,-2.5078,-2.4753,-2.4534,-2.3981,-2.3835,-2.3919,-2.4053,-2.4115,-2.4198,-2.4488,-2.454,-2.454,-2.454,-2.454,-2.454,-2.454,-2.454,-2.454,-2.454,-2.4291,-2.4115,-2.4115,-2.3701,-2.3432,-2.3432,-2.3008,-2.2677,-2.2511,-2.2221,-2.1973,-2.1818,-2.1807,-2.1807,-2.1807,-2.1807,-2.1807,-2.1807,-2.1807,-2.1807,-2.1807,-2.1807,-2.1807,-1.9127,-1.9458,-1.9869,-1.9889,-2.0493,-2.1155,-2.1155,-2.1487,-2.1807,-2.1807,-2.1807,-2.1807,0.0,0.0,-2.1807,-2.1807,-2.1807,-2.1807,-2.1807,-2.2604,-2.3184,0.0,0.0,0.0,0.0,0.0,0.0,-2.4571,0.0,-2.555,-2.6267,-2.6992,-2.7714,-2.8466,-2.8186,-2.8991,-3.0991,-3.0531,-3.15,-3.3713,-3.3992,-3.4243,-3.4397,-3.4397,-3.4397,-3.4397,-3.4397,-3.411,-3.3639,-3.3639,-3.2761,-3.1304,-3.1317,-3.0193,-2.8523,-2.8065,-2.7323,-2.6594,-2.6103,-2.5917,-2.5895,-2.5895,-2.5895,-2.5895,-2.5895,-2.5895,-2.5895,-2.5895,-2.5728,-2.5559,-2.5285,-2.5031,-2.4775,-2.454,-2.454,-2.454,-2.454,-2.454,-2.454,-2.454,-2.454,-2.454,-2.454,-2.454,-2.454,-2.454,-2.454,-2.454,-2.454,-2.454,-2.454,-2.454,-2.4167,-2.3919,-2.3919,-2.3484,-2.3039,-2.2594,-2.2542,-2.2325,-2.1859,-2.1849,-2.1828,-2.1807,-2.1807,-2.1807,-2.1807,-2.1807,-2.1807,-2.1807,-2.1807,-2.1807,-1.9893,-2.0172,-2.0338,-2.0679,-2.1197,-2.1631,-2.1631,-2.1725,-2.1807,-2.1807,-2.1807,-2.1807,0.0,0.0,0.0,-2.1807,-2.1807,0.0,-2.1807,-2.2604,0.0,0.0,0.0,-2.454,-2.454,-2.454,0.0,0.0,-2.5471,-2.6087,-2.7003,-2.7562,-2.8408,-2.9726,-2.8631,-2.9257,-3.1952,-3.2401,-3.3031,-3.3992,-3.4076,-3.4243,-3.4397,-3.4397,-3.4397,-3.4397,-3.4397,-3.4319,-3.4188,-3.4188,-3.3328,-3.188,-3.1209,-3.0034,-2.8482,-2.7774,-2.7305,-2.7075,-2.6605,-2.6201,-2.5895,-2.5895,-2.5895,-2.5895,-2.5895,-2.5895,-2.5895,-2.5895,-2.5633,-2.5295,-2.52,-2.4871,-2.4625,-2.454,-2.454,-2.454,-2.454,-2.454,-2.454,-2.454,-2.454,-2.454,-2.454,-2.454,-2.454,-2.454,-2.454,-2.454,-2.454,-2.454,-2.454,-2.454,-2.4436,-2.4374,-2.4374,-2.396,-2.365,-2.3536,-2.3194,-2.2801,-2.2335,-2.2325,-2.2159,-2.1818,-2.1807,-2.1807,-2.1807,-2.1807,-2.1807,-2.1807,-2.1807,-2.1807,-1.9934,-2.0276,-2.0534,-2.1,-2.1455,-2.1807,-2.1807,-2.1807,-2.1807,-2.1807,-2.1807,0.0,0.0,0.0,0.0,0.0,0.0,0.0,-2.1807,-2.2604,-2.3184,0.0,-2.3991,0.0,-2.454,-2.454,-2.4809,0.0,-2.5841,-2.6445,-2.7264,-2.7836,-2.8828,-3.017,-2.891,-2.9095,-3.1069,-3.2413,-3.3202,-3.3458,-3.3979,-3.4314,-3.4397,-3.4397,-3.4397,-3.4397,0.0,-3.4397,-3.4397,-3.4397,-3.3423,-3.1835,-3.1416,-3.0191,-2.8612,-2.7876,-2.7632,-2.7566,-2.7097,-2.6747,-2.6452,-2.6037,-2.5895,-2.5895,-2.5895,-2.5895,-2.5895,-2.5895,-2.5728,-2.5464,-2.5285,-2.5031,-2.4786,-2.454,-2.454,-2.454,-2.454,-2.454,-2.454,-2.454,-2.454,-2.454,-2.454,-2.454,-2.454,-2.454,-2.454,-2.454,-2.454,-2.454,-2.454,-2.454,-2.454,-2.454,-2.454,-2.4312,-2.4084,-2.3888,-2.3629,-2.3194,-2.2522,-2.2501,-2.2273,-2.1818,-2.1807,-2.1807,-2.1807,-2.1807,-2.1807,-2.1807,-2.1807,-2.1807,-1.9706,-2.0131,-2.0555,-2.1073,-2.1507,-2.1807,-2.1807,-2.1807,-2.1807,-2.1807,0.0,0.0,-2.1807,0.0,-2.1807,-2.1807,0.0,-2.1807,-2.1807,-2.2553,-2.3122,-2.3184,-2.3939,-2.4478,-2.4444,-2.454,-2.4892,-2.582,-2.6135,-2.6668,-2.7349,-2.8064,-2.8839,-2.9897,-2.929,-2.9106,-2.9577,-3.1512,-3.2575,-3.2747,-3.3615,-3.4134,-3.4397,-3.4301,-3.4301,-3.4397,-3.4397,0.0,-3.4397,-3.4397,-3.325,-3.1577,-3.1577,-3.0429,-2.8702,-2.8287,-2.8134,-2.8069,-2.7577,-2.7413,-2.725,-2.6299,-2.5994,-2.5983,-2.5917,-2.5895,-2.5895,-2.5895,-2.5895,-2.5728,-2.5285,-2.52,-2.5031,-2.4625,-2.454,-2.454,-2.454,-2.454,-2.454,-2.454,-2.454,-2.454,-2.454,-2.454,-2.454,-2.454,-2.454,-2.454,-2.454,-2.454,-2.454,-2.454,-2.454,-2.454,-2.454,-2.454,-2.4374,-2.3991,-2.3971,-2.3577,-2.2718,-2.2625,-2.2366,-2.1901,-2.1838,-2.1807,-2.1807,-2.1807,-2.1807,-2.1807,-2.1807,-2.1807,-2.0079,-2.0369,-2.0627,-2.1476,-2.1745,-2.1807,-2.1807,-2.1807,0.0,0.0,0.0,-2.1807,-2.1807,-2.1807,0.0,-2.1807,0.0,0.0,0.0,0.0,-2.276,0.0,0.0,0.0,0.0,0.0,0.0,0.0,0.0,-2.6998,-2.7828,-2.8247,-2.8488,-2.8757,-3.08,-3.1235,-2.9726,-3.0979,-3.204,-3.2907,-3.2364,-3.2895,-3.4397,-3.3602,-3.3687,-3.4397,-3.4397,0.0,-3.4397,-3.4397,-3.325,-3.1577,-3.1577,-3.0429,-2.8746,-2.8659,-2.8637,-2.856,-2.808,-2.7916,-2.7763,-2.6813,-2.6507,-2.6431,-2.6026,-2.5895,-2.5895,-2.5895,-2.5812,-2.5559,-2.5285,-2.5115,-2.4861,-2.454,-2.454,-2.454,-2.454,-2.454,-2.454,-2.454,-2.454,-2.454,-2.454,-2.454,-2.454,-2.454,-2.454,-2.454,-2.454,-2.454,-2.454,-2.454,-2.454,-2.454,-2.454,-2.454,-2.4509,-2.4436,-2.4426,-2.4188,-2.366,-2.3267,-2.2853,-2.2387,-2.2004,-2.1807,-2.1807,-2.1807,-2.1807,-2.1807,-2.1807,-2.1807,-1.9893,-2.0245,-2.0586,-2.1269,-2.1631,-2.1807,-2.1807,0.0,0.0,0.0,0.0,-2.1807,-2.1807,0.0,0.0,0.0,0.0,0.0,0.0,0.0,0.0,0.0,0.0,0.0,0.0,0.0,0.0,0.0,0.0,-2.7024,-2.7789,-2.9226,-2.9806,-2.9371,-3.1589,-3.2202,-3.0777,-3.1235,-3.194,-3.2993,-3.2016,-3.2376,-3.3602,-3.2722,-3.2809,-3.3602,-3.3164,0.0,-3.3602,-3.3164,-3.2103,-3.0866,-3.0866,-2.9988,-2.8757,-2.8757,-2.8757,-2.8724,-2.8495,-2.8418,-2.8298,-2.7599,-2.7031,-2.6583,-2.6354,-2.6103,-2.5895,-2.5728,-2.5644,-2.5475,-2.5115,-2.4946,-2.4861,-2.454,-2.454,-2.454,-2.454,-2.454,-2.454,-2.454,-2.454,-2.454,-2.454,-2.454,-2.454,-2.454,-2.454,-2.454,-2.454,-2.454,-2.454,-2.454,-2.454,-2.454,-2.454,-2.454,-2.454,-2.454,-2.454,-2.4343,-2.3898,-2.3432,-2.2967,-2.2501,-2.2045,-2.1807,-2.1807,-2.1807,-2.1807,-2.1807,-2.1807,-2.1807,-1.9702,-2.0089,-2.0534,-2.1,-2.1455,-2.1807,-2.1807,-2.1807,0.0,0.0,-2.1807,-2.1807,-2.1807,0.0,0.0,0.0,0.0,0.0,0.0,0.0,0.0,0.0,0.0,0.0,0.0,0.0,0.0,0.0,0.0,0.0,-2.7893,-3.0299,-3.1134,-3.026,-3.2016,-3.255,-3.1577,-3.14,-3.1753,-3.2722,-3.1577,-3.1577,-3.2636,-3.1753,-3.184,-3.2636,-3.1928,0.0,0.0,-3.1928,-3.1045,-3.017,-3.017,-2.9646,-2.8757,-2.8757,-2.8757,-2.8757,-2.8757,-2.8757,-2.8691,-2.832,-2.7621,-2.6911,-2.6802,-2.6441,-2.6059,-2.589,-2.573,-2.5475,-2.5031,-2.4946,-2.4861,-2.454,-2.454,-2.454,-2.454,-2.454,-2.454,-2.454,-2.454,-2.454,-2.454,-2.454,-2.454,-2.454,-2.454,-2.454,-2.454,-2.454,-2.454,-2.454,-2.454,-2.454,-2.454,-2.454,-2.454,-2.454,-2.454,-2.4385,-2.4033,-2.3577,-2.3122,-2.2656,-2.219,-2.1901,-2.1807,-2.1807,-2.1807,-2.1807,-2.1807,-2.1807,-1.9702,-2.0089,-2.0534,-2.1,-2.1455,-2.1807,-2.1807,0.0,0.0,0.0,-2.1807,-2.1807,-2.1807,-2.1807,0.0,0.0,0.0,0.0,0.0,0.0,0.0,0.0,0.0,0.0,0.0,0.0,0.0,0.0,0.0,0.0,-2.8648,-3.0586,-3.1134,-3.026,-3.2016,-3.255,-3.1577,-3.0777,-3.0789,-3.1665,-2.9909,-2.9988,-3.1665,-3.0789,-3.0878,-3.1753,-3.1665,0.0,0.0,-3.1665,-3.1045,-3.017,-3.017,-2.9646,-2.8757,-2.8757,-2.8757,-2.8757,-2.8757,-2.8757,-2.8746,-2.8702,-2.8342,-2.7829,-2.7381,-2.6933,-2.6562,-2.6476,-2.6075,-2.5559,-2.5285,-2.5031,-2.4861,-2.454,-2.454,-2.454,-2.454,-2.454,-2.454,-2.454,-2.454,-2.454,-2.454,-2.454,-2.454,-2.454,-2.454,-2.454,-2.454,-2.454,-2.454,-2.454,-2.454,-2.454,-2.454,-2.454,-2.454,-2.454,-2.454,-2.4519,-2.4478,-2.4053,-2.3598,-2.3132,-2.2666,-2.2232,-2.1807,-2.1807,-2.1807,-2.1807,-2.1807,-2.1807,-1.9292,-1.9872,-2.0462,-2.0648,-2.1259,-2.1807,-2.1807,0.0,0.0,-2.1807,-2.1807,-2.1807,-2.1807,-2.1807,-2.1807,-2.1807,0.0,0.0,0.0,0.0,0.0,0.0,0.0,0.0,0.0,0.0,0.0,0.0,0.0,0.0,-2.8379,-2.9829,-3.0609,-3.017,-3.2016,-3.2809,-3.2463,-3.2103,-3.2376,-3.325,-3.0789,-3.0351,-3.1577,-3.0079,-2.9909,-3.0699,-3.017,0.0,0.0,-3.017,-2.9726,-2.9371,-2.9371,-2.9106,-2.8757,-2.8757,-2.8757,-2.8757,-2.8757,-2.8757,-2.8757,-2.8757,-2.8626,-2.8386,-2.7713,-2.7247,-2.6736,-2.6183,-2.5872,-2.5658,-2.519,-2.4946,-2.4861,-2.454,-2.454,-2.454,-2.454,-2.454,-2.454,-2.454,-2.454,-2.454,-2.454,-2.454,-2.454,-2.454,-2.454,-2.454,-2.454,-2.454,-2.454,-2.454,-2.454,-2.454,-2.454,-2.454,-2.454,-2.454,-2.454,-2.454,-2.454,-2.4115,-2.366,-2.3194,-2.2739,-2.2273,-2.1807,-2.1807,-2.1807,-2.1807,-2.1807,-2.1807,-1.9075,-1.9737,-2.042,-2.042,-2.1124,-2.1807,0.0,0.0,0.0,-2.1807,-2.1807,-2.1807,-2.1807,-2.1807,-2.1807,-2.1807,0.0,-2.1807,0.0,0.0,0.0,0.0,0.0,0.0,0.0,0.0,0.0,0.0,0.0,0.0,0.0,-2.9984,-3.0519,-3.017,-3.1753,-3.255,-3.255,-3.255,-3.2895,-3.3518,-3.1311,-3.0519,-3.1134,-2.9555,-2.9198,-2.9726,-2.9106,0.0,0.0,-2.9117,-2.8757,-2.8757,-2.8757,-2.8757,-2.8757,-2.8757,-2.8757,-2.8757,-2.8757,-2.8757,-2.8757,-2.8757,-2.8757,-2.8691,-2.8077,-2.7564,-2.7044,-2.6512,-2.6126,-2.5709,-2.5072,-2.4861,-2.4786,-2.4615,-2.454,-2.454,-2.454,-2.454,-2.454,-2.454,-2.454,-2.454,-2.454,-2.454,-2.454,-2.454,-2.454,-2.454,-2.454,-2.454,-2.454,-2.454,-2.454,-2.454,-2.454,-2.454,-2.454,-2.454,-2.454,-2.454,-2.454,-2.4115,-2.366,-2.3194,-2.2739,-2.2273,-2.1807,-2.1807,-2.1807,-2.1807,-2.1807,-2.1807,-1.9075,-1.9737,-2.042,-2.042,-2.1124,-2.1807,0.0,0.0,0.0,-2.1807,-2.1807,-2.1807,-2.1807,-2.1807,-2.1807,-2.1807,-2.1807,0.0,0.0,0.0,0.0,0.0,0.0,0.0,0.0,0.0,0.0,0.0,0.0,0.0,0.0,-3.13,-3.1134,-3.026,-3.1134,-3.1577,-3.1577,-3.1577,-3.1665,-3.1577,-3.0699,-3.017,-3.017,-2.9198,-2.885,0.0,0.0,0.0,0.0,-2.8757,-2.8757,-2.8757,-2.8757,-2.8757,-2.8757,-2.8757,-2.8757,-2.8757,-2.8757,-2.8757,-2.8757,-2.8757,-2.8757,-2.8757,-2.8477,-2.805,-2.7763,-2.7934,-2.6982,-2.5709,-2.5072,-2.47,-2.454,-2.4861,-2.47,-2.454,-2.454,-2.454,-2.454,-2.454,-2.454,-2.454,-2.454,-2.454,-2.454,-2.454,-2.454,-2.454,-2.454,-2.454,-2.454,-2.454,-2.454,-2.454,-2.454,-2.454,-2.454,-2.454,-2.454,-2.454,-2.454,-2.4115,-2.366,-2.3194,-2.2739,-2.2273,-2.1807,-2.1807,-2.1807,-2.1807,-2.1807,-2.1807,-1.9075,-1.9737,-2.042,-2.042,-2.1124,-2.1807,-2.1807,0.0,-2.1807,-2.1807,-2.1807,-2.1807,-2.1807,-2.1807,-2.1807,-2.1807,-2.1807,0.0,0.0,0.0,0.0,0.0,0.0,0.0,0.0,0.0,0.0,0.0,0.0,0.0,0.0,-3.0834,-3.1134,-3.026,-3.1134,-3.1311,-3.0609,-3.1311,-3.1928,-3.255,-3.1577,-3.1488,-3.2016,-3.0519,-2.9726,0.0,0.0,0.0,0.0,-2.8757,-2.8757,-2.8757,-2.8757,-2.8757,-2.8757,-2.8757,-2.8757,-2.8757,-2.8757,-2.8757,-2.8757,-2.8757,-2.8757,-2.8757,-2.8664,-2.8473,-2.8103,-2.7861,-2.6904,-2.587,-2.5818,-2.5552,-2.5221,-2.4946,-2.4871,-2.47,-2.454,-2.454,-2.454,-2.454,-2.4615,-2.4775,-2.4775,-2.4775,-2.4775,-2.4775,-2.4615,-2.454,-2.454,-2.454,-2.454,-2.454,-2.454,-2.454,-2.454,-2.454,-2.454,-2.454,-2.454,-2.454,-2.454,-2.4115,-2.366,-2.3194,-2.2739,-2.2273,-2.1807,-2.1807,-2.1807,-2.1807,-2.1807,-2.1807,0.0,-1.9613,-2.0213,-2.0379,-2.099,0.0,0.0,0.0,-2.1807,-2.1807,-2.1807,-2.1807,-2.1807,-2.1807,-2.1807,-2.1807,-2.1807,0.0,0.0,0.0,0.0,0.0,0.0,0.0,0.0,0.0,0.0,0.0,0.0,0.0,0.0,-3.0733,-3.1559,-3.0777,-3.0956,-3.0789,-3.017,-3.0789,-3.14,-3.1928,-3.1311,-3.14,-3.1928,-3.0351,-2.9646,0.0,0.0,0.0,0.0,-2.8664,-2.8664,-2.8664,-2.8571,-2.8571,-2.8664,-2.8664,-2.8664,-2.8757,-2.8757,-2.8757,-2.8757,-2.8757,-2.8757,-2.8757,-2.8664,-2.8488,-2.8297,-2.771,-2.6971,-2.6349,-2.6194,-2.5959,-2.5605,-2.5158,-2.4946,-2.4861,-2.47,-2.454,-2.454,-2.4615,-2.47,-2.4786,-2.4861,-2.4775,-2.4786,-2.4786,-2.4625,-2.454,-2.454,-2.454,-2.454,-2.454,-2.454,-2.454,-2.454,-2.454,-2.454,-2.454,-2.454,-2.4467,-2.4302,-2.3857,-2.3401,-2.2936,-2.247,-2.2097,-2.1807,-2.1807,-2.1807,-2.1807,-2.1807,-2.1807,0.0,0.0,0.0,0.0,0.0,0.0,0.0,0.0,0.0,-2.1807,-2.1807,-2.1807,-2.1807,-2.1807,-2.1807,-2.1807,0.0,0.0,0.0,0.0,0.0,0.0,0.0,0.0,0.0,0.0,0.0,0.0,0.0,0.0,0.0,-3.0834,-3.1992,-3.168,-3.0765,-3.026,-3.026,-3.026,-3.026,-3.026,-3.026,-3.026,-3.026,-2.929,-2.8932,0.0,0.0,0.0,0.0,-2.8488,-2.8395,-2.8395,-2.8092,-2.8196,-2.8395,-2.8395,-2.8571,-2.8757,-2.8757,-2.8757,-2.8757,-2.8757,-2.8757,-2.8664,-2.8488,-2.8395,-2.8204,-2.7558,-2.7306,-2.7094,-2.6232,-2.5955,-2.5796,-2.5349,-2.5052,-2.4861,-2.4861,-2.47,-2.4529,-2.4775,-2.47,-2.4625,-2.4861,-2.47,-2.454,-2.454,-2.454,-2.454,-2.454,-2.454,-2.454,-2.454,-2.454,-2.454,-2.454,-2.454,-2.454,-2.454,-2.454,-2.4343,-2.3898,-2.3432,-2.2967,-2.2501,-2.2045,-2.1807,-2.1807,-2.1807,-2.1807,-2.1807,-2.1807,-2.1807,-1.9075,0.0,-1.9872,-2.0317,0.0,0.0,0.0,0.0,0.0,0.0,0.0,0.0,0.0,0.0,0.0,0.0,0.0,0.0,0.0,0.0,0.0,0.0,0.0,0.0,0.0,0.0,0.0,0.0,0.0,0.0,-2.8142,-2.9449,-3.0793,-3.2125,-3.1547,-3.1223,-3.1223,-3.0519,-3.0519,-3.1223,-3.0519,-3.0609,-3.1223,-3.026,-2.9909,0.0,0.0,0.0,-2.8488,-2.8395,-2.829,-2.8092,-2.7998,-2.8196,-2.8395,-2.8395,-2.8571,-2.8757,-2.8757,-2.8757,-2.8757,-2.8581,-2.8384,-2.8186,-2.8092,-2.8092,-2.807,-2.7859,-2.7387,-2.6978,-2.696,-2.6455,-2.5794,-2.5601,-2.5209,-2.4861,-2.4625,-2.454,-2.454,-2.4625,-2.47,-2.4871,-2.4861,-2.4861,-2.4786,-2.4786,-2.4615,-2.454,-2.454,-2.47,-2.4786,-2.4786,-2.4946,-2.4946,-2.4775,-2.4615,-2.454,-2.454,-2.454,-2.4343,-2.3898,-2.3432,-2.2967,-2.2501,-2.2045,-2.1807,-2.1807,-2.1807,-2.1807,-2.1807,-2.1807,-2.1807,-1.8586,-1.9039,-1.9603,-2.0265,-2.0617,-2.0979,0.0,0.0,0.0,0.0,0.0,0.0,0.0,0.0,0.0,0.0,0.0,0.0,0.0,0.0,0.0,0.0,0.0,0.0,0.0,0.0,0.0,0.0,0.0,0.0,-2.733,-2.8265,-2.946,-3.0979,-3.1182,-3.161,-3.2277,-3.0866,-3.0429,-3.0956,-2.9988,-2.9818,-3.026,-2.9818,-2.9555,0.0,0.0,0.0,-2.8395,-2.8113,-2.7914,-2.782,-2.782,-2.8008,-2.8196,-2.8395,-2.8488,-2.8581,-2.8581,-2.8571,-2.8373,-2.829,-2.8092,-2.7998,-2.7809,-2.782,-2.7809,-2.7998,-2.763,-2.7211,-2.7197,-2.6695,-2.6091,-2.5704,-2.5207,-2.4861,-2.47,-2.4625,-2.454,-2.4615,-2.47,-2.4786,-2.4861,-2.4786,-2.4786,-2.4861,-2.47,-2.454,-2.47,-2.4786,-2.4861,-2.4861,-2.5115,-2.52,-2.5031,-2.4871,-2.47,-2.454,-2.4615,-2.4502,-2.4065,-2.3677,-2.3102,-2.2345,-2.2008,-2.1807,-2.1807,-2.1807,-2.1807,-2.1807,-2.1807,-2.1883,-1.7823,-1.8385,-1.9127,-2.011,-2.0369,-2.0648,-2.1507,0.0,0.0,0.0,0.0,0.0,0.0,0.0,0.0,0.0,0.0,0.0,0.0,0.0,0.0,0.0,0.0,0.0,0.0,0.0,0.0,0.0,0.0,0.0,-2.6496,-2.7296,-2.8214,-2.927,-3.0146,-3.1296,-3.2684,-3.1009,-3.017,-3.017,-2.929,-2.8757,-2.8757,-2.8757,-2.8757,-2.8757,0.0,0.0,-2.8207,-2.782,-2.7631,-2.7631,-2.7631,-2.782,-2.8092,-2.8301,-2.8395,-2.8395,-2.8395,-2.8196,-2.7904,-2.7904,-2.7904,-2.7809,-2.7631,-2.7536,-2.7631,-2.7809,-2.7726,-2.7453,-2.7159,-2.6809,-2.6425,-2.5774,-2.5312,-2.4955,-2.4882,-2.4615,-2.454,-2.4786,-2.4615,-2.454,-2.4786,-2.47,-2.4625,-2.4871,-2.47,-2.4615,-2.4946,-2.4946,-2.4946,-2.5031,-2.52,-2.5285,-2.5285,-2.5285,-2.5031,-2.4615,-2.4775,-2.4746,-2.4303,-2.3992,-2.3324,-2.2303,-2.2064,-2.1956,-2.1883,-2.1807,-2.1807,-2.1807,-2.1807,-2.1959,-1.707,-1.7619,-1.8436,-1.9589,-2.0151,-2.0565,-2.1093,0.0,0.0,0.0,0.0,0.0,0.0,0.0,0.0,0.0,0.0,0.0,0.0,0.0,0.0,0.0,0.0,0.0,0.0,0.0,0.0,0.0,0.0,0.0,-2.6005,-2.6557,-2.726,-2.8211,-2.8796,-2.9703,-3.1198,-3.0578,-3.017,-3.017,-2.929,-2.8757,-2.8757,-2.8757,-2.8664,-2.8488,0.0,-2.8113,-2.7736,-2.7631,-2.7631,-2.7631,-2.7631,-2.7914,-2.8301,-2.8395,-2.8395,-2.8395,-2.8092,-2.7904,-2.7631,-2.7631,-2.7536,-2.7452,-2.7357,-2.7357,-2.7347,-2.7452,-2.7357,-2.7336,-2.7274,-2.691,-2.6443,-2.5976,-2.5529,-2.5016,-2.4623,-2.454,-2.454,-2.454,-2.454,-2.454,-2.454,-2.47,-2.4861,-2.4861,-2.4861,-2.4946,-2.5115,-2.5115,-2.52,-2.5475,-2.5644,-2.5728,-2.5559,-2.5559,-2.538,-2.5115,-2.5115,-2.4903,-2.4437,-2.4041,-2.3541,-2.2942,-2.2776,-2.2422,-2.2025,-2.1873,-2.1807,-2.1807,-2.1949,-2.2101,-1.6315,-1.6524,-1.7116,-1.8497,-1.9624,-2.0545,-2.101,0.0,0.0,0.0,0.0,0.0,0.0,0.0,0.0,0.0,0.0,0.0,0.0,0.0,0.0,0.0,0.0,0.0,0.0,0.0,0.0,0.0,0.0,0.0,-2.5895,-2.6114,-2.6513,-2.7256,-2.7491,-2.8012,-2.8935,-2.8733,-2.9195,-3.017,-2.929,-2.8757,-2.8757,-2.8757,-2.8664,-2.8395,0.0,-2.8207,-2.782,-2.782,-2.782,-2.7809,-2.8019,-2.8207,-2.8395,-2.8196,-2.8102,-2.7914,-2.7726,-2.7536,-2.7452,-2.7536,-2.7441,-2.7357,-2.7441,-2.7357,-2.7262,-2.7262,-2.7262,-2.7262,-2.7262,-2.691,-2.6455,-2.5989,-2.5544,-2.5109,-2.4643,-2.454,-2.454,-2.47,-2.47,-2.47,-2.47,-2.4946,-2.5031,-2.5031,-2.5031,-2.5115,-2.538,-2.538,-2.5464,-2.557,-2.5812,-2.5895,-2.5738,-2.5728,-2.5644,-2.5464,-2.538,-2.5249,-2.4848,-2.454,-2.4196,-2.3734,-2.3243,-2.2776,-2.2478,-2.2227,-2.2101,-2.1959,-2.2176,-2.2327,-1.5551,-1.5692,-1.6061,-1.7329,0.0,-2.0072,-2.0793,0.0,0.0,0.0,0.0,0.0,0.0,0.0,0.0,0.0,0.0,0.0,0.0,0.0,0.0,0.0,0.0,0.0,0.0,0.0,0.0,0.0,0.0,0.0,-2.5895,-2.5895,-2.607,-2.6441,-2.6463,-2.6682,-2.7151,-2.7151,-2.7911,-2.9556,-2.8884,-2.8593,-2.8593,-2.8702,-2.8664,-2.8301,-2.8395,-2.8196,-2.7904,-2.7998,-2.7998,-2.8092,-2.8301,-2.8395,-2.8395,-2.8092,-2.7904,-2.7631,-2.7357,-2.7357,-2.7441,-2.7536,-2.7536,-2.7536,-2.7631,-2.7631,-2.7441,-2.7441,-2.7441,-2.7441,-2.7357,-2.6993,-2.661,-2.6154,-2.5699,-2.5342,-2.4885,-2.4698,-2.47,-2.4946,-2.4946,-2.4946,-2.4946,-2.5115,-2.5285,-2.5285,-2.5285,-2.538,-2.5644,-2.5644,-2.5654,-2.5654,-2.5812,-2.5895,-2.5895,-2.5895,-2.5812,-2.5654,-2.5644,-2.5565,-2.536,-2.5185,-2.4946,-2.4469,-2.3863,-2.3328,-2.296,-2.2677,-2.2433,-2.2176,-2.2402,-2.2553,-1.4713,-1.5196,-1.5919,-1.6344,-1.7322,0.0,-2.0103,-2.0551,0.0,0.0,0.0,0.0,0.0,0.0,0.0,0.0,0.0,0.0,0.0,0.0,0.0,0.0,0.0,0.0,0.0,0.0,0.0,0.0,0.0,0.0,-2.5895,-2.5895,-2.5917,-2.595,-2.595,-2.619,-2.6671,-2.6682,-2.6922,-2.7502,-2.7872,-2.8091,-2.8102,-2.8549,-2.856,-2.7998,-2.829,-2.8113,-2.7631,-2.7904,-2.8196,-2.8395,-2.8395,-2.8395,-2.8395,-2.8092,-2.7998,-2.7904,-2.7441,-2.7631,-2.7904,-2.7726,-2.7726,-2.7987,-2.7998,-2.7998,-2.7998,-2.7998,-2.7998,-2.7809,-2.7441,-2.7231,-2.7086,-2.663,-2.6347,-2.6067,-2.5606,-2.5348,-2.52,-2.52,-2.52,-2.52,-2.52,-2.538,-2.5559,-2.5559,-2.5559,-2.5654,-2.5812,-2.5728,-2.5644,-2.5822,-2.5906,-2.5895,-2.5895,-2.5895,-2.5895,-2.5895,-2.5895,-2.5884,-2.5852,-2.5852,-2.5622,-2.5131,-2.4925,-2.4298,-2.3348,-2.315,-2.2839,-2.2402,-2.2553,-2.2703,-1.4569,-1.5204,-1.5857,-1.6233,0.0,0.0,0.0,0.0,0.0,0.0,0.0,0.0,0.0,0.0,0.0,0.0,0.0,0.0,0.0,0.0,0.0,0.0,0.0,0.0,0.0,0.0,0.0,0.0,0.0,0.0,0.0,-2.5895,-2.5895,-2.5895,-2.5895,-2.5994,-2.6168,-2.6179,-2.6256,-2.6441,-2.7217,-2.7499,-2.742,-2.7684,-2.7742,-2.7551,-2.7942,-2.8114,-2.8113,-2.8384,-2.8571,-2.8664,-2.8488,-2.829,-2.8102,-2.7809,-2.7726,-2.7726,-2.7452,-2.7631,-2.7987,-2.7904,-2.7904,-2.7987,-2.8196,-2.8092,-2.7998,-2.7998,-2.7998,-2.7998,-2.7809,-2.7715,-2.7599,-2.6972,-2.6592,-2.612,-2.5493,-2.5196,-2.5031,-2.52,-2.5285,-2.5475,-2.5475,-2.5644,-2.5728,-2.5654,-2.5738,-2.5812,-2.5906,-2.5812,-2.5822,-2.5906,-2.5895,-2.5895,-2.5895,-2.5895,-2.5895,-2.5895,-2.5895,-2.5895,-2.5895,-2.5895,-2.5819,-2.5633,-2.5245,-2.4827,-2.4298,-2.3783,-2.3328,-2.2992,-2.2918,-2.2852,-1.4569,-1.4991,-1.5501,0.0,0.0,0.0,0.0,0.0,0.0,0.0,0.0,0.0,0.0,0.0,0.0,0.0,0.0,0.0,0.0,0.0,0.0,0.0,0.0,0.0,0.0,0.0,0.0,0.0,0.0,0.0,0.0,-2.5895,-2.5895,-2.5895,-2.5895,-2.5895,-2.5895,-2.5895,-2.5895,-2.5906,-2.6562,-2.6857,-2.6844,-2.7161,-2.7223,-2.7265,-2.7627,-2.7822,-2.7953,-2.8217,-2.8386,-2.8549,-2.8516,-2.8384,-2.8092,-2.7914,-2.782,-2.782,-2.7631,-2.7809,-2.8279,-2.8186,-2.8186,-2.8279,-2.8477,-2.8384,-2.8279,-2.8279,-2.8279,-2.8279,-2.8279,-2.8092,-2.7881,-2.7249,-2.6785,-2.632,-2.5679,-2.5379,-2.5295,-2.5369,-2.5559,-2.5644,-2.5644,-2.5812,-2.5812,-2.5728,-2.5812,-2.5895,-2.5895,-2.5895,-2.5895,-2.5895,-2.5895,-2.5895,-2.5895,-2.5895,-2.5895,-2.5895,-2.5895,-2.5895,-2.5895,-2.5895,-2.5895,-2.5895,-2.5568,-2.5245,-2.5001,-2.4429,-2.395,-2.3491,-2.3319,-2.3143,-1.4569,-1.4641,0.0,0.0,0.0,0.0,0.0,0.0,0.0,0.0,0.0,0.0,0.0,0.0,0.0,0.0,0.0,0.0,0.0,0.0,0.0,0.0,0.0,0.0,0.0,0.0,0.0,0.0,0.0,0.0,0.0,-2.5895,-2.5895,-2.5895,-2.5895,-2.5895,-2.5895,-2.5895,-2.5895,-2.5895,-2.5895,-2.6147,-2.6638,-2.7097,-2.7138,-2.6993,-2.7238,-2.7149,-2.7004,-2.7238,-2.7599,-2.808,-2.856,-2.8653,-2.8384,-2.8384,-2.8384,-2.8384,-2.8081,-2.8362,-2.8746,-2.8466,-2.856,-2.8839,-2.8839,-2.8839,-2.8839,-2.8839,-2.8839,-2.8839,-2.8839,-2.8362,-2.787,-2.7434,-2.7158,-2.6864,-2.627,-2.6064,-2.5895,-2.5895,-2.5895,-2.5895,-2.5895,-2.5895,-2.5895,-2.5895,-2.5895,-2.5895,-2.5895,-2.5895,-2.5895,-2.5895,-2.5895,-2.5895,-2.5895,-2.5895,-2.5895,-2.5895,-2.5895,-2.5895,-2.5895,-2.5895,-2.5895,-2.5895,-2.5895,-2.5666,-2.5175,-2.5175,-2.4683,-2.3744,-2.3733,-2.3471,-1.4569,0.0,0.0,0.0,0.0,0.0,0.0,0.0,0.0,0.0,0.0,0.0,0.0,0.0,0.0,0.0,0.0,0.0,0.0,0.0,0.0,0.0,0.0,0.0,0.0,0.0,0.0,0.0,0.0,0.0,0.0,-2.6456,-2.6539,-2.5906,-2.5895,-2.5895,-2.5895,-2.5895,-2.5895,-2.5895,-2.5895,-2.5888,-2.5871,-2.6171,-2.6432,-2.6497,-2.6748,-2.6933,-2.7238,-2.7315,-2.7403,-2.7545,-2.7529,-2.7504,-2.7414,-2.7222,-2.7222,-2.7414,-2.7121,-2.7381,-2.7741,-2.7504,-2.7583,-2.7741,-2.7741,-2.7741,-2.7741,-2.7741,-2.7741,-2.7741,-2.7741,-2.7651,-2.7515,-2.7538,-2.699,-2.6454,-2.6032,-2.5808,-2.5644,-2.5644,-2.5812,-2.5895,-2.5895,-2.5895,-2.5895,-2.5895,-2.5895,-2.5895,-2.5895,-2.5895,-2.5895,-2.5895,-2.5895,-2.5895,-2.5895,-2.5895,-2.5895,-2.5895,-2.5895,-2.5895,-2.5895,-2.5895,-2.5895,-2.5895,-2.5895,-2.583,-2.5677,-2.5338,-2.5033,-2.4727,-2.405,-2.3656,-1.4569,0.0,0.0,0.0,0.0,0.0,0.0,0.0,0.0,0.0,0.0,0.0,0.0,0.0,0.0,0.0,0.0,0.0,0.0,0.0,0.0,0.0,0.0,0.0,0.0,0.0,0.0,0.0,0.0,0.0,0.0,-2.6273,-2.6456,-2.5906,-2.5895,-2.5895,-2.5895,-2.5895,-2.5895,-2.5895,-2.5895,-2.5812,-2.5728,-2.5812,-2.5975,-2.6173,-2.6258,-2.6496,-2.6769,-2.6966,-2.7042,-2.7064,-2.7084,-2.716,-2.7071,-2.6972,-2.6972,-2.7071,-2.6972,-2.705,-2.7315,-2.716,-2.7238,-2.7315,-2.7315,-2.7315,-2.7315,-2.7315,-2.7315,-2.7315,-2.7315,-2.7173,-2.7031,-2.7225,-2.6867,-2.6314,-2.5937,-2.5753,-2.5728,-2.5728,-2.5822,-2.5895,-2.5895,-2.5895,-2.5895,-2.5895,-2.5895,-2.5895,-2.5895,-2.5895,-2.5895,-2.5895,-2.5895,-2.5895,-2.5895,-2.5895,-2.5895,-2.5895,-2.5895,-2.5895,-2.5895,-2.5895,-2.5895,-2.5895,-2.5895,-2.5895,-2.5895,-2.56,-2.536,-2.5153,-2.4388,-2.3919,0.0,0.0,0.0,0.0,0.0,0.0,0.0,0.0,0.0,0.0,0.0,0.0,0.0,0.0,0.0,0.0,0.0,0.0,0.0,0.0,0.0,0.0,0.0,0.0,0.0,0.0,0.0,0.0,0.0,0.0,0.0,-2.5607,-2.587,-2.5841,-2.5841,-2.5852,-2.5895,-2.5895,-2.5895,-2.5895,-2.5895,-2.5895,-2.5895,-2.5895,-2.5895,-2.5895,-2.5895,-2.5895,-2.5928,-2.6376,-2.6562,-2.6605,-2.702,-2.7184,-2.7184,-2.7184,-2.7096,-2.7085,-2.7085,-2.7008,-2.6997,-2.6997,-2.6997,-2.7085,-2.7085,-2.7096,-2.7184,-2.7184,-2.7184,-2.7184,-2.7184,-2.6878,-2.6562,-2.6562,-2.6562,-2.6441,-2.5994,-2.5895,-2.5895,-2.5895,-2.5895,-2.5895,-2.5895,-2.5895,-2.5895,-2.5895,-2.5895,-2.5895,-2.5895,-2.5895,-2.5895,-2.5895,-2.5895,-2.5895,-2.5895,-2.5895,-2.5895,-2.5895,-2.5895,-2.5895,-2.5895,-2.5895,-2.5895,-2.5895,-2.5895,-2.5895,-2.5895,-2.5895,-2.5677,-2.5229,-2.477,-2.4279,0.0,0.0,0.0,0.0,0.0,0.0,0.0,0.0,0.0,0.0,0.0,0.0,0.0,0.0,0.0,0.0,0.0,0.0,0.0,0.0,0.0,0.0,0.0,0.0,0.0,0.0,0.0,0.0,0.0,0.0,-2.4708,-2.5329,-2.5633,-2.5398,-2.5327,-2.5513,-2.5895,-2.5895,-2.5895,0.0,-2.5895,-2.5895,-2.5895,-2.5895,-2.5895,-2.5895,-2.5895,-2.5895,-2.5906,-2.6016,-2.6059,-2.607,-2.6168,-2.6201,-2.6201,-2.6201,-2.585,-2.5412,-2.5412,-2.5058,-2.4518,-2.4518,-2.4961,-2.5412,-2.5412,-2.5765,-2.6201,-2.6201,-2.6201,-2.6201,-2.6201,-2.6136,-2.6059,-2.6059,-2.6059,-2.6026,-2.5917,-2.5895,-2.5895,-2.5895,-2.5895,-2.5895,-2.5895,-2.5895,-2.5895,-2.5895,-2.5895,-2.5895,-2.5895,-2.5895,-2.5895,-2.5895,-2.5895,-2.5895,-2.5895,-2.5895,-2.5895,-2.5895,-2.5895,-2.5895,-2.5895,-2.5895,-2.5895,-2.5895,-2.5895,-2.5895,-2.5895,-2.5895,-2.5852,-2.5732,-2.5251,-2.477,0.0,0.0,0.0,0.0,0.0,0.0,0.0,0.0,0.0,0.0,0.0,0.0,0.0,0.0,0.0,0.0,0.0,0.0,0.0,0.0,0.0,0.0,0.0,0.0,0.0,0.0,0.0,0.0,0.0,-2.4559,-2.4126,-2.4726,-2.5049,-2.4836,-2.4847,-2.5076,-2.5546,-2.5546,-2.5666,-2.5895,-2.5895,-2.5895,-2.5895,-2.5895,-2.5895,-2.5895,-2.5895,-2.5895,-2.5895,-2.5895,-2.5895,-2.5895,-2.5895,-2.5895,-2.5895,-2.5895,-2.5464,-2.4861,-2.4861,-2.4413,-2.38,-2.38,-2.4059,-2.4327,-2.4327,-2.4584,-2.4935,-2.5295,-2.538,-2.5464,-2.5812,-2.5895,-2.5895,-2.5895,-2.5895,-2.5895,-2.5895,-2.5895,-2.5895,-2.5895,-2.5895,-2.5895,-2.5895,-2.5895,-2.5895,-2.5895,-2.5895,-2.5895,-2.5895,-2.5895,-2.5895,-2.5895,-2.5895,-2.5895,-2.5895,-2.5895,-2.5895,-2.5895,-2.5895,-2.5895,-2.5895,-2.5895,-2.5895,-2.5895,-2.5895,-2.5895,-2.5895,-2.5895,-2.5895,-2.5884,-2.5393,-2.4923,0.0,0.0,0.0,0.0,0.0,0.0,0.0,0.0,0.0,0.0,0.0,0.0,0.0,0.0,0.0,0.0,0.0,0.0,0.0,0.0,0.0,0.0,0.0,0.0,0.0,0.0,0.0,0.0,0.0,-2.3602,-2.3602,-2.4006,-2.4268,-2.4355,-2.4355,-2.4585,-2.5043,-2.5054,-2.5295,-2.5775,-2.5863,-2.5895,-2.5895,-2.5895,-2.5895,-2.5895,-2.5895,-2.5895,-2.5895,-2.5895,-2.5895,-2.5895,-2.5895,-2.5895,-2.5895,-2.5895,-2.538,-2.468,-2.468,-2.4155,-2.3454,-2.3627,-2.3627,-2.3627,-2.3887,-2.3973,-2.4155,-2.4765,-2.4946,-2.5115,-2.5464,-2.5728,-2.5895,-2.5728,-2.5812,-2.5895,-2.5895,-2.5895,-2.5895,-2.5895,-2.5895,-2.5895,-2.5895,-2.5895,-2.5895,-2.5895,-2.5895,-2.5895,-2.5895,-2.5895,-2.5895,-2.5895,-2.5895,-2.5895,-2.5895,-2.5895,-2.5895,-2.5895,-2.5895,-2.5895,-2.5895,-2.5895,-2.5895,-2.5895,-2.5895,-2.5895,-2.5895,-2.5895,-2.5895,-2.5895,-2.548,-2.5043,0.0,0.0,0.0,0.0,0.0,0.0,0.0,0.0,0.0,0.0,0.0,0.0,0.0,0.0,0.0,0.0,0.0,0.0,0.0,0.0,0.0,0.0,0.0,0.0,0.0,0.0,0.0,0.0,-2.3056,-2.3099,-2.3099,-2.3165,-2.3394,-2.382,-2.3831,-2.4071,-2.4574,-2.4574,-2.4814,-2.5273,-2.5699,-2.5895,-2.5895,-2.5895,-2.5895,-2.5895,-2.5895,-2.5895,-2.5895,-2.5895,-2.5895,-2.5895,-2.5895,-2.5895,-2.5895,-2.5895,-2.5115,-2.3973,-2.3973,-2.3115,-2.2087,-2.2706,-2.2969,-2.3144,-2.4337,-2.4765,-2.4775,-2.4861,-2.5295,-2.5549,-2.4402,-2.502,-2.5728,-2.5211,-2.5464,-2.5895,-2.5895,-2.5895,-2.5895,-2.5895,-2.5895,-2.5895,-2.5895,-2.5895,-2.5895,-2.5895,-2.5895,-2.5895,-2.5895,-2.5895,-2.5895,-2.5895,-2.5895,-2.5895,-2.5895,-2.5895,-2.5895,-2.5895,-2.5895,-2.5895,-2.5895,-2.5895,-2.5895,-2.5895,-2.5895,-2.5895,-2.5895,-2.5895,-2.5895,-2.5895,-2.5841,-2.5546,0.0,0.0,0.0,0.0,0.0,0.0,0.0,0.0,0.0,0.0,0.0,0.0,0.0,0.0,0.0,0.0,0.0,0.0,0.0,0.0,0.0,0.0,0.0,0.0,0.0,0.0,0.0,0.0,-2.3001,-2.3001,-2.3001,-2.3001,-2.3099,-2.3307,-2.3318,-2.3558,-2.4061,-2.4061,-2.4312,-2.4792,-2.5011,-2.524,-2.5491,-2.5491,-2.5644,-2.5895,-2.5895,-2.5895,-2.5895,-2.5895,-2.5895,-2.5895,-2.5895,-2.5895,-2.5895,-2.5895,-2.5285,-2.4413,-2.4413,-2.3474,-2.2441,-2.3125,-2.3135,-2.2969,-2.3983,-2.4241,-2.4327,-2.4765,-2.5115,-2.5295,-2.502,-2.5464,-2.5812,-2.5549,-2.5728,-2.5895,-2.5895,-2.5895,-2.5895,-2.5895,-2.5895,-2.5895,-2.5895,-2.5895,-2.5895,-2.5895,-2.5895,-2.5895,-2.5895,-2.5895,-2.5895,-2.5895,-2.5895,-2.5895,-2.5895,-2.5895,-2.5895,-2.5895,-2.5895,-2.5895,-2.5895,-2.5895,-2.5895,-2.5895,-2.5895,-2.5895,-2.5895,-2.5895,-2.5895,-2.5895,-2.5895,-2.5633,0.0,0.0,0.0,0.0,0.0,0.0,0.0,0.0,0.0,0.0,0.0,0.0,0.0,0.0,0.0,0.0,0.0,0.0,0.0,0.0,0.0,0.0,0.0,0.0,0.0,0.0,0.0,0.0,-2.3001,-2.3001,-2.3001,-2.3001,-2.3001,-2.3001,-2.3001,-2.3176,-2.3547,-2.3667,-2.3919,-2.4301,-2.4421,-2.4661,-2.5,-2.5,-2.5262,-2.5721,-2.5852,-2.5895,-2.5895,-2.5895,-2.5895,-2.5895,-2.5895,-2.5895,-2.5895,-2.5895,-2.5464,-2.4861,-2.4861,-2.4079,-2.3135,-2.3897,-2.3637,-2.3222,-2.4069,-2.4231,-2.4145,-2.4765,-2.5031,-2.5211,-2.5285,-2.5633,-2.5822,-2.5728,-2.5812,-2.5895,-2.5895,-2.5895,-2.5895,-2.5895,-2.5895,-2.5895,-2.5895,-2.5895,-2.5895,-2.5895,-2.5895,-2.5895,-2.5895,-2.5895,-2.5895,-2.5895,-2.5895,-2.5895,-2.5895,-2.5895,-2.5895,-2.5895,-2.5895,-2.5895,-2.5895,-2.5895,-2.5895,-2.5895,-2.5895,-2.5895,-2.5895,-2.5895,-2.5895,-2.5895,-2.5895,-2.571,0.0,0.0,0.0,0.0,0.0,0.0,0.0,0.0,0.0,0.0,0.0,0.0,0.0,0.0,0.0,0.0,0.0,0.0,0.0,0.0,0.0,0.0,0.0,0.0,0.0,0.0,0.0,0.0,-2.3001,-2.3001,-2.3001,-2.3001,-2.3001,-2.3001,-2.3001,-2.3012,-2.3045,-2.3504,-2.3744,-2.3777,-2.4257,-2.4497,-2.453,-2.453,-2.477,-2.524,-2.5699,-2.5895,-2.5895,-2.5895,-2.5895,-2.5895,-2.5895,-2.5895,-2.5895,-2.5895,-2.5464,-2.4861,-2.4861,-2.4413,-2.3887,-2.4594,-2.4337,-2.3973,-2.538,-2.538,-2.4861,-2.4861,-2.538,-2.5549,-2.4241,-2.4935,-2.5728,-2.5115,-2.5464,-2.5895,-2.5895,-2.5895,-2.5895,-2.5895,-2.5895,-2.5895,-2.5895,-2.5895,-2.5895,-2.5895,-2.5895,-2.5895,-2.5895,-2.5895,-2.5895,-2.5895,-2.5895,-2.5895,-2.5895,-2.5895,-2.5895,-2.5895,-2.5895,-2.5895,-2.5895,-2.5895,-2.5895,-2.5895,-2.5895,-2.5895,-2.5895,-2.5895,-2.5895,-2.5895,-2.5895,-2.5884,0.0,0.0,0.0,0.0,0.0,0.0,0.0,0.0,0.0,0.0,0.0,0.0,0.0,0.0,0.0,0.0,0.0,0.0,0.0,0.0,0.0,0.0,0.0,0.0,0.0,0.0,0.0,0.0,0.0,-2.3001,-2.3001,-2.3001,-2.3001,-2.3001,-2.3001,-2.3001,-2.3001,-2.3176,-2.3263,-2.3263,-2.3449,-2.37,-2.4006,-2.4006,-2.4268,-2.4738,-2.4923,-2.5338,-2.5895,-2.5895,-2.5895,-2.5895,-2.5895,-2.5895,-2.5895,-2.5895,-2.5728,-2.5549,-2.5549,-2.5115,-2.4594,-2.5295,-2.5031,-2.468,-2.5644,-2.5728,-2.5549,-2.5549,-2.5728,-2.5812,-2.5285,-2.5549,-2.5812,-2.5644,-2.5728,-2.5895,-2.5895,-2.5895,-2.5895,-2.5895,-2.5895,-2.5895,-2.5895,-2.5895,-2.5895,-2.5895,-2.5895,-2.5895,-2.5895,-2.5895,-2.5895,-2.5895,-2.5895,-2.5895,-2.5895,-2.5895,-2.5895,-2.5895,-2.5895,-2.5895,-2.5895,-2.5895,-2.5895,-2.5895,-2.5895,-2.5895,-2.5895,-2.5895,-2.5895,-2.5895,-2.5895,-2.5895,0.0,0.0,0.0,0.0,0.0,0.0,0.0,0.0,0.0,0.0,0.0,0.0,0.0,0.0,0.0,0.0,0.0,0.0,0.0,0.0,0.0,0.0,0.0,0.0,0.0,0.0,0.0,0.0,0.0,0.0,-2.3001,-2.3001,-2.3001,-2.3001,-2.3001,-2.3001,-2.3001,-2.3001,-2.3001,-2.3001,-2.3001,-2.3176,-2.3482,-2.3482,-2.3755,-2.4235,-2.4235,-2.4781,-2.5655,-2.5655,-2.5753,-2.5895,-2.5895,-2.5895,-2.5895,-2.5895,-2.5895,-2.5895,-2.5895,-2.5633,-2.5295,-2.5728,-2.5644,-2.5295,-2.5728,-2.5895,-2.5895,-2.5895,-2.5895,-2.5895,-2.5895,-2.5895,-2.5895,-2.5895,-2.5895,-2.5895,-2.5895,-2.5895,-2.5895,-2.5895,-2.5895,-2.5895,-2.5895,-2.5895,-2.5895,-2.5895,-2.5895,-2.5895,-2.5895,-2.5895,-2.5895,-2.5895,-2.5895,-2.5895,-2.5895,-2.5895,-2.5895,-2.5895,-2.5895,-2.5895,-2.5895,-2.5895,-2.5895,-2.5895,-2.5895,-2.5895,-2.5895,-2.5895,-2.5895,-2.5895,-2.5895,-2.5819,0.0,0.0,0.0,0.0,0.0,0.0,0.0,0.0,0.0,0.0,0.0,0.0,0.0,0.0,0.0,0.0,0.0,0.0,0.0,0.0,0.0,0.0,0.0,0.0,0.0,0.0,0.0,0.0,-2.3001,-2.3001,-2.3001,-2.3001,-2.3001,-2.3001,-2.3001,-2.3001,-2.3001,-2.3001,-2.3001,-2.3001,-2.3001,-2.3001,-2.3001,-2.3001,-2.3263,-2.3711,-2.3711,-2.4246,-2.5131,-2.5142,-2.5437,-2.5884,-2.5884,-2.5884,-2.5895,-2.5895,-2.5895,-2.5895,-2.5895,-2.5895,-2.5895,-2.5895,-2.5895,-2.5895,-2.5895,-2.5895,-2.5895,-2.5895,-2.5895,-2.5895,-2.5895,-2.5895,-2.5895,-2.5895,-2.5895,-2.5895,-2.5895,-2.5895,-2.5895,-2.5895,-2.5895,-2.5895,-2.5895,-2.5895,-2.5895,-2.5895,-2.5895,-2.5895,-2.5895,-2.5895,-2.5895,-2.5895,-2.5895,-2.5895,-2.5895,-2.5895,-2.5895,-2.5895,-2.5895,-2.5895,-2.5895,-2.5895,-2.5895,-2.5895,-2.5895,-2.5895,-2.5895,-2.5895,-2.5895,-2.5895,-2.5895,-2.5633,-1.4569,0.0,0.0,0.0,0.0,0.0,0.0,0.0,0.0,0.0,0.0,0.0,0.0,0.0,0.0,0.0,0.0,0.0,0.0,0.0,0.0,0.0,0.0,0.0,0.0,0.0,0.0,0.0,-2.3001,-2.3001,-2.3001,-2.3001,-2.3001,-2.3001,-2.3001,-2.3001,-2.3001,-2.3001,-2.3001,-2.3001,-2.3001,-2.3001,-2.3001,-2.3001,-2.3078,-2.3198,-2.3198,-2.3558,-2.4159,-2.453,-2.4956,-2.5371,-2.5371,-2.559,-2.5895,-2.5895,-2.5895,-2.5895,-2.5895,-2.5895,-2.5895,-2.5895,-2.5895,-2.5895,-2.5895,-2.5895,-2.5895,-2.5895,-2.5895,-2.5895,-2.5895,-2.5895,-2.5895,-2.5895,-2.5895,-2.5895,-2.5895,-2.5895,-2.5895,-2.5895,-2.5895,-2.5895,-2.5895,-2.5895,-2.5895,-2.5895,-2.5895,-2.5895,-2.5895,-2.5895,-2.5895,-2.5895,-2.5895,-2.5895,-2.5895,-2.5895,-2.5895,-2.5895,-2.5895,-2.5895,-2.5895,-2.5895,-2.5895,-2.5895,-2.5895,-2.5895,-2.5895,-2.5895,-2.5895,-2.5895,-2.5895,-2.5633,0.0,0.0,0.0,0.0,0.0,0.0,0.0,-1.7254,0.0,0.0,0.0,0.0,0.0,0.0,0.0,0.0,0.0,0.0,0.0,0.0,0.0,0.0,0.0,0.0,0.0,-2.3001,-2.3001,-2.3001,-2.3001,-2.3001,-2.3001,-2.3001,-2.3001,-2.3001,-2.3001,-2.3001,-2.3001,-2.3001,-2.3001,-2.3001,-2.3001,-2.3001,-2.3001,-2.3001,-2.3001,-2.3001,-2.3001,-2.3165,-2.3449,-2.3744,-2.4268,-2.4902,-2.5098,-2.5349,-2.5622,-2.583,-2.5895,-2.5895,-2.5895,-2.5895,-2.5895,-2.5895,-2.5895,-2.5895,-2.5895,-2.5895,-2.5895,-2.5895,-2.5895,-2.5895,-2.5895,-2.5895,-2.5895,-2.5895,-2.5895,-2.5895,-2.5895,-2.5895,-2.5895,-2.5895,-2.5895,-2.5895,-2.5895,-2.5895,-2.5895,-2.5895,-2.5895,-2.5895,-2.5895,-2.5895,-2.5895,-2.5895,-2.5895,-2.5895,-2.5895,-2.5895,-2.5895,-2.5895,-2.5895,-2.5895,-2.5895,-2.5895,-2.5895,-2.5895,-2.5895,-2.5895,-2.5895,-2.5895,-2.5895,-2.5895,-2.5895,-2.5742,0.0,0.0,0.0,0.0,0.0,0.0,-1.7257,-1.8224,-1.9265,0.0,0.0,0.0,0.0,0.0,0.0,0.0,0.0,0.0,0.0,0.0,0.0,0.0,0.0,0.0,-2.3001,-2.3001,-2.3001,-2.3001,-2.3001,-2.3001,-2.3001,-2.3001,-2.3001,-2.3001,-2.3001,-2.3001,-2.3001,-2.3001,-2.3001,-2.3001,-2.3001,-2.3001,-2.3001,-2.3001,-2.3001,-2.3001,-2.3001,-2.3001,-2.3001,-2.3001,-2.3558,-2.4443,-2.4847,-2.5076,-2.5229,-2.5666,-2.5852,-2.5895,-2.5895,-2.5895,-2.5895,-2.5895,-2.5895,-2.5895,-2.5895,-2.5895,-2.5895,-2.5895,-2.5895,-2.5895,-2.5895,-2.5895,-2.5895,-2.5895,-2.5895,-2.5895,-2.5895,-2.5895,-2.5895,-2.5895,-2.5895,-2.5895,-2.5895,-2.5895,-2.5895,-2.5895,-2.5895,-2.5895,-2.5895,-2.5895,-2.5895,-2.5895,-2.5895,-2.5895,-2.5895,-2.5895,-2.5895,-2.5895,-2.5895,-2.5895,-2.5895,-2.5895,-2.5895,-2.5895,-2.5895,-2.5895,-2.5895,-2.5895,-2.5895,-2.5895,-2.5895,-2.5895,0.0,0.0,0.0,0.0,0.0,0.0,-1.6718,-1.7082,-1.7448,0.0,0.0,0.0,0.0,0.0,0.0,0.0,0.0,0.0,0.0,0.0,0.0,0.0,0.0,0.0,-2.3001,-2.3001,-2.3001,-2.3001,-2.3001,-2.3001,-2.3001,-2.3001,-2.3001,-2.3001,-2.3001,-2.3001,-2.3001,-2.3001,-2.3001,-2.3001,-2.3001,-2.3001,-2.3001,-2.3001,-2.3001,-2.3001,-2.3001,-2.3001,-2.3001,-2.3001,-2.3351,-2.3886,-2.3973,-2.4486,-2.5185,-2.5273,-2.5568,-2.5895,-2.5895,-2.5895,-2.5895,-2.5895,-2.5895,-2.5895,-2.5895,-2.5895,-2.5895,-2.5895,-2.5895,-2.5895,-2.5895,-2.5895,-2.5895,-2.5895,-2.5895,-2.5895,-2.5895,-2.5895,-2.5895,-2.5895,-2.5895,-2.5895,-2.5895,-2.5895,-2.5895,-2.5895,-2.5895,-2.5895,-2.5895,-2.5895,-2.5895,-2.5895,-2.5895,-2.5895,-2.5895,-2.5895,-2.5895,-2.5895,-2.5895,-2.5895,-2.5895,-2.5895,-2.5895,-2.5895,-2.5895,-2.5895,-2.5895,-2.5895,-2.5895,-2.5895,-2.5895,-2.5895,0.0,0.0,0.0,-1.6158,0.0,0.0,0.0,-1.7367,-1.7602,0.0,0.0,0.0,0.0,0.0,0.0,0.0,0.0,0.0,0.0,0.0,0.0,0.0,0.0,0.0,-2.3001,-2.3001,-2.3001,-2.3001,-2.3001,-2.3001,-2.3001,-2.3001,-2.3001,-2.3001,-2.3001,-2.3001,-2.3001,-2.3001,-2.3001,-2.3001,-2.3001,-2.3001,-2.3001,-2.3001,-2.3001,-2.3001,-2.3001,-2.3001,-2.3001,-2.3001,-2.3143,-2.3394,-2.3635,-2.4028,-2.4508,-2.5,-2.5327,-2.5568,-2.5819,-2.5895,-2.5895,-2.5895,-2.5895,-2.5895,-2.5895,-2.5895,-2.5895,-2.5895,-2.5895,-2.5895,-2.5895,-2.5895,-2.5895,-2.5895,-2.5895,-2.5895,-2.5895,-2.5895,-2.5895,-2.5895,-2.5895,-2.5895,-2.5895,-2.5895,-2.5895,-2.5895,-2.5895,-2.5895,-2.5895,-2.5895,-2.5895,-2.5895,-2.5895,-2.5895,-2.5895,-2.5895,-2.5895,-2.5895,-2.5895,-2.5895,-2.5895,-2.5895,-2.5895,-2.5895,-2.5895,-2.5895,-2.5895,-2.5895,-2.5895,-2.5895,-2.5895,-2.5895,0.0,0.0,0.0,0.0,0.0,-1.7367,0.0,0.0,0.0,-1.9177,0.0,0.0,0.0,0.0,0.0,0.0,0.0,0.0,0.0,0.0,0.0,0.0,0.0,0.0,0.0,-2.3001,-2.3001,-2.3001,-2.3001,-2.3001,-2.3001,-2.3001,-2.3001,-2.3001,-2.3001,-2.3001,-2.3001,-2.3001,-2.3001,-2.3001,-2.3001,-2.3001,-2.3001,-2.3001,-2.3001,-2.3001,-2.3001,-2.3001,-2.3001,-2.3001,-2.3001,-2.3045,-2.3438,-2.3646,-2.382,-2.4607,-2.5011,-2.5229,-2.5622,-2.5819,-2.5895,-2.5895,-2.5895,-2.5895,-2.5895,-2.5895,-2.5895,-2.5895,-2.5895,-2.5895,-2.5895,-2.5895,-2.5895,-2.5895,-2.5895,-2.5895,-2.5895,-2.5895,-2.5895,-2.5895,-2.5895,-2.5895,-2.5895,-2.5895,-2.5895,-2.5895,-2.5895,-2.5895,-2.5895,-2.5895,-2.5895,-2.5895,-2.5895,-2.5895,-2.5895,-2.5895,-2.5895,-2.5895,-2.5895,-2.5895,-2.5895,-2.5895,-2.5895,-2.5895,-2.5895,-2.5895,-2.5895,-2.5895,-2.5895,-2.5895,-2.5895,-2.5895,0.0,0.0,0.0,0.0,-1.8443,0.0,0.0,0.0,-1.9177,-1.9256,0.0,0.0,0.0,0.0,0.0,0.0,0.0,0.0,0.0,0.0,0.0,0.0,0.0,0.0,0.0,-2.3001,-2.3001,-2.3001,-2.3001,-2.3001,-2.3001,-2.3001,-2.3001,-2.3001,-2.3001,-2.3001,-2.3001,-2.3001,-2.3001,-2.3001,-2.3001,-2.3001,-2.3001,-2.3001,-2.3001,-2.3001,-2.3001,-2.3001,-2.3001,-2.3001,-2.3001,-2.3012,-2.3056,-2.334,-2.3744,-2.3853,-2.4432,-2.5175,-2.524,-2.5535,-2.5895,-2.5895,-2.5895,-2.5895,-2.5895,-2.5895,-2.5895,-2.5895,-2.5895,-2.5895,-2.5895,-2.5895,-2.5895,-2.5895,-2.5895,-2.5895,-2.5895,-2.5895,-2.5895,-2.5895,-2.5895,-2.5895,-2.5895,-2.5895,-2.5895,-2.5895,-2.5895,-2.5895,-2.5895,-2.5895,-2.5895,-2.5895,-2.5895,-2.5895,-2.5895,-2.5895,-2.5895,-2.5895,-2.5895,-2.5895,-2.5895,-2.5895,-2.5895,-2.5895,-2.5895,-2.5895,-2.5895,-2.5895,-2.5895,-2.5895,-2.5895,-2.5895,0.0,0.0,0.0,0.0,0.0,0.0,-1.9344,0.0,-1.9335,0.0,0.0,0.0,0.0,0.0,0.0,0.0,0.0,0.0,0.0,0.0,0.0,0.0,0.0,0.0,0.0,0.0,0.0,0.0,-2.3001,-2.3001,-2.3001,-2.3001,-2.3001,-2.3001,-2.3001,-2.3001,-2.3001,-2.3001,-2.3001,-2.3001,-2.3001,-2.3001,-2.3001,-2.3001,-2.3001,-2.3001,-2.3001,-2.3001,-2.3001,-2.3001,-2.3001,-2.3001,-2.3001,-2.3121,-2.334,-2.3624,-2.3984,-2.441,-2.4978,-2.5306,-2.5524,-2.5808,-2.5895,-2.5895,-2.5895,-2.5895,-2.5895,-2.5895,-2.5895,-2.5895,-2.5895,-2.5895,-2.5895,-2.5895,-2.5895,-2.5895,-2.5895,-2.5895,-2.5895,-2.5895,-2.5895,-2.5895,-2.5895,-2.5895,-2.5895,-2.5895,-2.5895,-2.5895,-2.5895,-2.5895,-2.5895,-2.5895,-2.5895,-2.5895,-2.5895,-2.5895,-2.5895,-2.5895,-2.5895,-2.5895,-2.5895,-2.5895,-2.5895,-2.5895,-2.5895,-2.5895,-2.5895,-2.5895,-2.5895,-2.5895,-2.5895,-2.5895,-1.9972,0.0,0.0,0.0,0.0,0.0,0.0,0.0,0.0,0.0,0.0,0.0,0.0,0.0,0.0,0.0,0.0,0.0,0.0,0.0,0.0,0.0,0.0,0.0,0.0,0.0,0.0,-2.3001,-2.3001,-2.3001,-2.3001,-2.3001,-2.3001,-2.3001,-2.3001,-2.3001,-2.3001,-2.3001,-2.3001,-2.3001,-2.3001,-2.3001,-2.3001,-2.3001,-2.3001,-2.3001,-2.3001,-2.3001,-2.3001,-2.3001,-2.3001,-2.3001,-2.3001,-2.3001,-2.3045,-2.3394,-2.3613,-2.3853,-2.4694,-2.5153,-2.5426,-2.5786,-2.5895,-2.5895,-2.5895,-2.5895,-2.5895,-2.5895,-2.5895,-2.5895,-2.5895,-2.5895,-2.5895,-2.5895,-2.5895,-2.5895,-2.5895,-2.5895,-2.5895,-2.5895,-2.5895,-2.5895,-2.5895,-2.5895,-2.5895,-2.5895,-2.5895,-2.5895,-2.5895,-2.5895,-2.5895,-2.5895,-2.5895,-2.5895,-2.5895,-2.5895,-2.5895,-2.5895,-2.5895,-2.5895,-2.5895,-2.5895,-2.5895,-2.5895,-2.5895,-2.5979,-2.6218,-2.5979,-2.5979,-2.6218,-2.5979,-2.6063,0.0,0.0,0.0,-2.0692,0.0,0.0,0.0,0.0,-2.1721,0.0,0.0,0.0,0.0,0.0,-2.1652,-2.1207,0.0,0.0,0.0,0.0,0.0,0.0,0.0,0.0,0.0,0.0,0.0,-2.3001,-2.3001,-2.3001,-2.3001,-2.3001,-2.3001,-2.3001,-2.3001,-2.3001,-2.3001,-2.3001,-2.3001,-2.3001,-2.3001,-2.3001,-2.3001,-2.3001,-2.3001,-2.3001,-2.3001,-2.3001,-2.3001,-2.3001,-2.3001,-2.3001,-2.3001,-2.3001,-2.3001,-2.3023,-2.3329,-2.3809,-2.4334,-2.5109,-2.5884,-2.5895,-2.5895,-2.5895,-2.5895,-2.5895,-2.5895,-2.5895,-2.5895,-2.5895,-2.5895,-2.5895,-2.5895,-2.5895,-2.5895,-2.5895,-2.5895,-2.5895,-2.5895,-2.5895,-2.5895,-2.5895,-2.5895,-2.5895,-2.5895,-2.5895,-2.5895,-2.5895,-2.5895,-2.5895,-2.5895,-2.5895,-2.5895,-2.5895,-2.5895,-2.5895,-2.5895,-2.5895,-2.5895,-2.5895,-2.5895,-2.5895,-2.5895,-2.5895,-2.5895,-2.6302,-2.7185,-2.6302,-2.6302,-2.7103,-2.6302,-2.6385,0.0,0.0,-2.2327,-2.1711,0.0,0.0,0.0,0.0,0.0,0.0,0.0,0.0,0.0,0.0,-2.1756,-2.1751,-2.1931,-2.2124,0.0,0.0,0.0,0.0,0.0,0.0,0.0,0.0,0.0,-2.3001,-2.3001,-2.3001,-2.3001,-2.3001,-2.3001,-2.3001,-2.3001,-2.3001,-2.3001,-2.3001,-2.3001,-2.3001,-2.3001,-2.3001,-2.3001,-2.3001,-2.3001,-2.3001,-2.3001,-2.3001,-2.3001,-2.3001,-2.3001,-2.3001,-2.3001,-2.3001,-2.3001,-2.3001,-2.311,-2.3372,-2.4203,-2.4891,-2.5469,-2.5797,-2.5895,-2.5895,-2.5895,-2.5895,-2.5895,-2.5895,-2.5895,-2.5895,-2.5895,-2.5895,-2.5895,-2.5895,-2.5895,-2.5895,-2.5895,-2.5895,-2.5895,-2.5895,-2.5895,-2.5895,-2.5895,-2.5895,-2.5895,-2.5895,-2.5895,-2.5895,-2.5895,-2.5895,-2.5895,-2.5895,-2.5895,-2.5979,-2.629,-2.629,-2.6207,-2.5906,-2.5895,-2.5895,-2.5895,-2.5895,-2.5895,-2.5895,-2.5895,-2.6302,-2.7185,-2.6857,-2.694,-2.7185,-2.7406,-2.7406,-2.2553,-2.2628,0.0,-2.2327,-2.2327,0.0,-2.1959,0.0,0.0,0.0,0.0,0.0,0.0,0.0,-2.1949,-2.2176,-2.2176,-2.2252,0.0,-2.2703,0.0,0.0,0.0,0.0,0.0,0.0,-2.3001,-2.3001,-2.3001,-2.3001,0.0,0.0,-2.3001,-2.3001,-2.3001,-2.3001,-2.3001,-2.3001,-2.3001,-2.3001,-2.3001,-2.3001,-2.3001,-2.3001,-2.3001,-2.3001,-2.3001,-2.3001,-2.3001,-2.3001,-2.3001,-2.3001,-2.3001,-2.3001,-2.3001,-2.3001,-2.311,-2.3351,-2.3995,-2.4639,-2.5229,-2.5535,-2.5764,-2.5895,-2.5895,-2.5895,-2.5895,-2.5895,-2.5895,-2.5895,-2.5895,-2.5895,-2.5895,-2.5895,-2.5895,-2.5895,-2.5895,-2.5895,-2.5895,-2.5895,-2.5895,-2.5895,-2.5895,-2.5895,-2.5895,-2.5895,-2.5895,-2.5895,-2.5895,-2.6063,-2.6063,-2.5906,-2.6063,-2.6135,-2.629,-2.6445,-2.6373,-2.5895,-2.6063,-2.6135,-2.6135,-2.6135,-2.6223,-2.64,-2.6462,-2.6937,-2.8011,-2.7881,-2.8028,-2.8279,-2.8493,-2.8493]},{"header":{"parameterUnit":"m.s-1","parameterCategory":1,"la1":30.6,"la2":29.2853,"lo1":-89.7004,"lo2":-87.6739,"dy":0.0162,"dx":0.0183,"nx":112,"ny":82,"refTime":"2023-07-26T12:00:00:Z","depth":0,"parameterNumber":3,"parameterNumberName":"V-component_of_WINDS"},"data":[0.0,0.0,0.0,0.0,0.0,0.0,0.0,0.0,0.0,0.0,0.0,0.0,0.0,0.0,0.0,0.0,0.0,0.0,0.0,0.0,0.0,0.0,0.0,0.0,0.0,0.0,0.0,0.0,0.0,0.0,0.0,0.0,0.0,0.0,0.0,0.0,0.0,0.0,0.0,0.0,0.0,0.0,0.0,0.0,0.0,0.0,0.0,0.0,0.0,0.0,0.0,0.0,0.0,0.0,0.0,0.0,0.0,0.0,0.0,0.0,0.0,0.0,0.0,0.0,0.0,0.0,0.0,0.0,0.0,0.0,0.0,0.0,0.0,0.0,0.0,0.0,0.0,0.0,0.0,0.0,0.0,0.0,0.0,0.0,0.0,0.0,0.0,0.0,0.0,0.0,0.0,-2.9168,-2.8958,-2.8821,-2.8821,-2.8743,-2.9362,-3.0784,0.0,0.0,0.0,0.0,0.0,0.0,0.0,0.0,0.0,0.0,0.0,0.0,0.0,0.0,0.0,0.0,0.0,0.0,0.0,0.0,0.0,0.0,0.0,0.0,0.0,0.0,0.0,0.0,0.0,0.0,0.0,0.0,0.0,0.0,0.0,0.0,0.0,0.0,0.0,0.0,0.0,0.0,0.0,0.0,0.0,0.0,0.0,0.0,0.0,0.0,0.0,0.0,0.0,0.0,0.0,0.0,0.0,0.0,0.0,0.0,0.0,0.0,0.0,0.0,0.0,0.0,0.0,0.0,0.0,0.0,0.0,0.0,0.0,0.0,0.0,0.0,0.0,0.0,0.0,0.0,0.0,0.0,0.0,0.0,0.0,0.0,0.0,0.0,0.0,0.0,0.0,0.0,0.0,0.0,0.0,0.0,0.0,0.0,0.0,0.0,0.0,0.0,0.0,0.0,-3.0245,-3.0275,-3.0526,-3.0667,-3.0667,-3.0382,-3.0718,-3.1952,0.0,0.0,0.0,0.0,0.0,0.0,0.0,0.0,0.0,0.0,0.0,0.0,0.0,0.0,0.0,0.0,0.0,0.0,0.0,0.0,0.0,0.0,0.0,0.0,0.0,0.0,0.0,0.0,0.0,0.0,0.0,0.0,0.0,0.0,0.0,0.0,0.0,0.0,0.0,0.0,0.0,0.0,0.0,0.0,0.0,0.0,0.0,0.0,0.0,0.0,0.0,0.0,0.0,0.0,0.0,0.0,0.0,0.0,0.0,0.0,0.0,0.0,0.0,0.0,0.0,0.0,0.0,0.0,0.0,0.0,0.0,0.0,0.0,0.0,0.0,0.0,0.0,0.0,0.0,0.0,0.0,0.0,0.0,0.0,0.0,0.0,0.0,0.0,0.0,0.0,0.0,0.0,0.0,0.0,0.0,0.0,0.0,0.0,0.0,0.0,0.0,0.0,0.0,-3.0959,-3.0755,-3.0518,-3.0658,-3.0781,-3.0781,-3.0593,-3.0925,-3.1913,-3.1165,0.0,0.0,0.0,0.0,0.0,0.0,0.0,0.0,0.0,0.0,0.0,0.0,0.0,0.0,0.0,0.0,0.0,0.0,0.0,0.0,0.0,0.0,0.0,0.0,0.0,0.0,0.0,0.0,0.0,0.0,0.0,0.0,0.0,0.0,0.0,0.0,0.0,0.0,0.0,0.0,0.0,0.0,0.0,0.0,0.0,0.0,0.0,0.0,0.0,0.0,0.0,0.0,0.0,0.0,0.0,0.0,0.0,0.0,0.0,0.0,0.0,0.0,0.0,0.0,0.0,0.0,0.0,0.0,0.0,0.0,0.0,0.0,0.0,0.0,0.0,0.0,0.0,0.0,0.0,0.0,0.0,0.0,0.0,0.0,0.0,0.0,0.0,0.0,0.0,0.0,0.0,0.0,0.0,0.0,0.0,0.0,0.0,0.0,0.0,0.0,0.0,0.0,-3.1162,-3.0925,-3.0551,-3.0593,-3.0634,-3.0634,-3.0551,-3.0885,-3.1787,-3.175,0.0,0.0,0.0,0.0,0.0,0.0,0.0,0.0,0.0,0.0,0.0,0.0,0.0,0.0,0.0,0.0,0.0,0.0,0.0,0.0,0.0,0.0,0.0,0.0,0.0,0.0,0.0,0.0,0.0,0.0,0.0,0.0,0.0,0.0,0.0,0.0,0.0,0.0,0.0,0.0,0.0,0.0,0.0,0.0,0.0,0.0,0.0,0.0,0.0,0.0,0.0,0.0,0.0,0.0,0.0,0.0,0.0,0.0,0.0,0.0,0.0,0.0,0.0,0.0,0.0,0.0,0.0,0.0,0.0,0.0,0.0,0.0,0.0,0.0,0.0,0.0,0.0,0.0,0.0,0.0,0.0,0.0,0.0,0.0,0.0,0.0,0.0,0.0,0.0,0.0,0.0,0.0,0.0,0.0,0.0,0.0,0.0,0.0,0.0,0.0,0.0,0.0,-3.1338,-3.0925,-3.0551,-3.0821,-3.1044,-3.1044,-3.0716,-3.1004,-3.2162,-3.1913,0.0,0.0,0.0,0.0,0.0,0.0,0.0,0.0,0.0,0.0,0.0,0.0,0.0,0.0,0.0,0.0,0.0,0.0,0.0,0.0,0.0,0.0,0.0,0.0,0.0,0.0,0.0,0.0,0.0,0.0,0.0,0.0,0.0,0.0,0.0,0.0,0.0,0.0,0.0,0.0,0.0,0.0,0.0,0.0,0.0,0.0,0.0,0.0,0.0,0.0,0.0,0.0,0.0,0.0,0.0,0.0,0.0,0.0,0.0,0.0,0.0,0.0,0.0,0.0,0.0,0.0,0.0,0.0,0.0,0.0,0.0,0.0,0.0,0.0,0.0,0.0,0.0,0.0,0.0,0.0,0.0,0.0,0.0,0.0,0.0,0.0,0.0,0.0,0.0,0.0,0.0,0.0,0.0,0.0,0.0,0.0,0.0,0.0,0.0,0.0,0.0,0.0,-3.1338,-3.0925,0.0,-3.0634,-3.0757,-3.0757,-3.0593,-3.0885,-3.1877,0.0,0.0,0.0,0.0,0.0,0.0,0.0,0.0,0.0,0.0,0.0,0.0,0.0,0.0,0.0,0.0,0.0,0.0,0.0,0.0,0.0,0.0,0.0,0.0,0.0,0.0,0.0,0.0,0.0,0.0,0.0,0.0,0.0,0.0,0.0,0.0,0.0,0.0,0.0,0.0,0.0,0.0,0.0,0.0,0.0,0.0,0.0,0.0,0.0,0.0,0.0,0.0,0.0,0.0,0.0,0.0,0.0,0.0,0.0,0.0,0.0,0.0,0.0,0.0,0.0,0.0,0.0,0.0,0.0,0.0,0.0,0.0,0.0,0.0,0.0,0.0,0.0,0.0,0.0,0.0,0.0,0.0,0.0,0.0,0.0,0.0,0.0,0.0,0.0,0.0,0.0,0.0,0.0,0.0,0.0,0.0,0.0,0.0,0.0,0.0,0.0,0.0,-3.1731,-3.124,-3.0821,0.0,-3.0526,-3.0526,-3.0526,-3.0526,-3.0861,-3.164,0.0,0.0,0.0,0.0,0.0,0.0,0.0,0.0,0.0,0.0,0.0,0.0,0.0,0.0,0.0,0.0,0.0,0.0,0.0,0.0,0.0,0.0,0.0,0.0,0.0,0.0,0.0,0.0,0.0,0.0,0.0,0.0,0.0,0.0,0.0,0.0,0.0,0.0,0.0,0.0,0.0,0.0,0.0,0.0,0.0,0.0,0.0,0.0,0.0,0.0,0.0,0.0,0.0,0.0,0.0,0.0,0.0,0.0,0.0,0.0,0.0,0.0,0.0,0.0,0.0,0.0,0.0,0.0,0.0,0.0,0.0,0.0,0.0,0.0,0.0,0.0,0.0,0.0,0.0,0.0,0.0,0.0,0.0,0.0,0.0,0.0,0.0,0.0,0.0,0.0,0.0,0.0,0.0,0.0,0.0,0.0,0.0,0.0,0.0,0.0,0.0,0.0,-3.1677,-3.1004,-3.0526,-3.0526,-3.0526,-3.0526,-3.0526,-3.0526,-3.0861,0.0,0.0,0.0,0.0,0.0,0.0,0.0,0.0,0.0,0.0,0.0,0.0,0.0,0.0,0.0,0.0,0.0,0.0,0.0,0.0,0.0,0.0,0.0,0.0,0.0,0.0,0.0,0.0,0.0,0.0,0.0,0.0,0.0,0.0,0.0,0.0,0.0,0.0,0.0,0.0,0.0,0.0,0.0,0.0,0.0,0.0,0.0,0.0,0.0,0.0,0.0,0.0,0.0,0.0,0.0,0.0,0.0,0.0,0.0,0.0,0.0,0.0,0.0,0.0,0.0,0.0,0.0,0.0,0.0,0.0,0.0,0.0,0.0,0.0,0.0,0.0,0.0,0.0,0.0,0.0,0.0,0.0,0.0,0.0,0.0,0.0,0.0,0.0,0.0,0.0,0.0,0.0,0.0,0.0,0.0,0.0,0.0,0.0,0.0,0.0,0.0,0.0,0.0,-3.1677,-3.1004,-3.0526,-3.0526,-3.0526,-3.0526,-3.0526,-3.0526,-3.0861,-3.164,0.0,0.0,0.0,0.0,0.0,0.0,0.0,0.0,0.0,0.0,0.0,0.0,0.0,0.0,0.0,0.0,0.0,0.0,0.0,0.0,0.0,0.0,0.0,0.0,0.0,0.0,0.0,0.0,0.0,0.0,0.0,0.0,0.0,0.0,0.0,0.0,0.0,0.0,0.0,0.0,0.0,0.0,0.0,0.0,0.0,0.0,0.0,0.0,0.0,0.0,0.0,0.0,0.0,0.0,0.0,0.0,0.0,0.0,0.0,0.0,0.0,0.0,0.0,0.0,0.0,0.0,0.0,0.0,0.0,0.0,0.0,0.0,0.0,0.0,0.0,0.0,0.0,0.0,0.0,0.0,0.0,0.0,0.0,0.0,0.0,0.0,0.0,0.0,0.0,0.0,0.0,0.0,0.0,0.0,0.0,0.0,0.0,0.0,0.0,0.0,0.0,0.0,-3.2593,-3.1898,-3.1388,-3.1388,-3.1388,-3.1388,-3.1388,-3.1388,-3.1533,-3.1893,0.0,0.0,0.0,0.0,0.0,0.0,0.0,0.0,0.0,0.0,0.0,0.0,0.0,0.0,0.0,0.0,0.0,0.0,0.0,0.0,0.0,0.0,0.0,0.0,0.0,0.0,0.0,0.0,0.0,0.0,0.0,0.0,0.0,0.0,0.0,0.0,0.0,0.0,0.0,0.0,0.0,0.0,0.0,0.0,0.0,0.0,0.0,0.0,0.0,0.0,0.0,0.0,0.0,0.0,0.0,0.0,0.0,0.0,0.0,0.0,0.0,0.0,0.0,0.0,0.0,0.0,0.0,0.0,0.0,0.0,0.0,0.0,0.0,0.0,0.0,0.0,0.0,0.0,0.0,0.0,0.0,0.0,0.0,0.0,0.0,0.0,0.0,0.0,0.0,0.0,0.0,0.0,0.0,0.0,0.0,0.0,0.0,0.0,0.0,0.0,0.0,0.0,-3.3921,-3.3229,-3.268,-3.268,-3.268,-3.268,-3.268,-3.268,-3.2573,-3.2309,0.0,0.0,0.0,0.0,0.0,0.0,0.0,0.0,0.0,0.0,0.0,0.0,0.0,0.0,0.0,0.0,0.0,0.0,0.0,0.0,0.0,0.0,0.0,0.0,0.0,0.0,0.0,0.0,0.0,0.0,0.0,0.0,0.0,0.0,0.0,0.0,0.0,0.0,0.0,0.0,0.0,0.0,0.0,0.0,0.0,0.0,0.0,0.0,0.0,0.0,0.0,0.0,0.0,0.0,0.0,0.0,0.0,0.0,0.0,0.0,-2.7914,0.0,0.0,0.0,0.0,0.0,0.0,0.0,0.0,0.0,0.0,0.0,0.0,0.0,0.0,0.0,0.0,0.0,0.0,0.0,0.0,0.0,0.0,0.0,0.0,0.0,0.0,0.0,0.0,0.0,0.0,0.0,0.0,0.0,0.0,0.0,0.0,0.0,0.0,0.0,0.0,0.0,-3.399,-3.3229,-3.268,-3.268,-3.268,-3.268,-3.268,-3.268,-3.2817,-3.306,-3.3195,0.0,0.0,0.0,0.0,0.0,0.0,0.0,0.0,0.0,0.0,0.0,0.0,0.0,0.0,0.0,0.0,0.0,0.0,0.0,0.0,0.0,0.0,0.0,0.0,0.0,0.0,0.0,0.0,0.0,0.0,0.0,0.0,0.0,0.0,0.0,0.0,0.0,0.0,0.0,0.0,0.0,0.0,0.0,0.0,0.0,0.0,0.0,0.0,0.0,0.0,0.0,0.0,0.0,0.0,0.0,0.0,0.0,0.0,0.0,0.0,-2.7987,0.0,0.0,0.0,0.0,0.0,0.0,0.0,0.0,0.0,0.0,0.0,0.0,0.0,0.0,0.0,0.0,0.0,0.0,0.0,0.0,0.0,0.0,0.0,0.0,0.0,0.0,0.0,0.0,0.0,0.0,0.0,0.0,0.0,0.0,0.0,0.0,0.0,0.0,0.0,0.0,-3.4753,-3.4175,-3.3756,-3.3756,-3.3756,-3.3756,-3.3756,-3.3756,-3.3682,-3.3567,-3.3885,0.0,0.0,0.0,0.0,0.0,0.0,0.0,0.0,0.0,0.0,0.0,0.0,0.0,0.0,0.0,0.0,0.0,0.0,0.0,0.0,0.0,0.0,0.0,0.0,0.0,0.0,0.0,0.0,0.0,0.0,0.0,0.0,0.0,0.0,0.0,0.0,0.0,0.0,0.0,0.0,0.0,0.0,0.0,0.0,0.0,0.0,0.0,0.0,0.0,0.0,0.0,0.0,0.0,-2.8802,-2.8968,-2.9,-2.9643,-2.9918,-2.9853,-2.8595,-2.8077,-2.8077,0.0,0.0,0.0,0.0,0.0,0.0,0.0,0.0,0.0,0.0,0.0,0.0,0.0,0.0,0.0,0.0,0.0,0.0,0.0,0.0,0.0,0.0,0.0,0.0,0.0,-3.0652,-3.0609,0.0,0.0,0.0,0.0,0.0,0.0,0.0,0.0,0.0,0.0,0.0,0.0,-3.5531,-3.5195,-3.4899,-3.4899,-3.4899,-3.4899,-3.4899,-3.4899,-3.4634,-3.4021,-3.4551,-3.4568,0.0,0.0,0.0,0.0,0.0,0.0,0.0,0.0,0.0,0.0,0.0,0.0,0.0,0.0,0.0,0.0,0.0,0.0,0.0,0.0,0.0,0.0,0.0,0.0,0.0,0.0,0.0,0.0,0.0,0.0,0.0,0.0,-2.6696,-2.683,0.0,0.0,0.0,0.0,0.0,0.0,0.0,0.0,0.0,0.0,0.0,0.0,0.0,-2.9026,-2.8903,-2.9499,-2.974,-2.9654,-2.9724,-2.9772,-2.9772,-2.987,-2.9918,-2.9902,-2.9708,0.0,-2.9626,-2.9626,0.0,0.0,0.0,0.0,0.0,0.0,0.0,0.0,0.0,0.0,0.0,0.0,0.0,0.0,0.0,0.0,0.0,0.0,0.0,0.0,0.0,0.0,-3.1124,-3.1667,-3.2011,-3.2192,0.0,-3.1759,-3.1686,-3.2486,-3.2907,0.0,0.0,0.0,0.0,0.0,0.0,0.0,-3.5599,-3.5195,-3.4899,-3.4899,-3.4899,-3.4899,-3.4899,-3.4899,-3.4849,-3.475,-3.4849,-3.5018,-3.5301,-3.4715,0.0,0.0,0.0,0.0,0.0,0.0,0.0,0.0,0.0,0.0,0.0,0.0,0.0,0.0,0.0,0.0,0.0,0.0,0.0,0.0,0.0,0.0,0.0,0.0,0.0,0.0,0.0,0.0,0.0,-2.7895,-2.7971,-2.7946,-2.8459,-2.8853,0.0,0.0,0.0,0.0,0.0,0.0,0.0,0.0,0.0,-2.9436,-2.9608,-2.9672,-2.9502,-2.9783,-2.9946,-2.9918,-2.9918,-3.0085,-3.0457,-3.0457,-3.0684,-3.1073,-3.1073,-3.1073,-3.1008,-3.0243,-2.9918,-2.9918,0.0,0.0,0.0,0.0,-2.9918,-2.9918,-2.9918,-2.9918,0.0,-2.9918,0.0,0.0,0.0,0.0,0.0,0.0,0.0,0.0,0.0,0.0,-3.19,-3.2071,-3.2275,-3.2557,-3.2968,-3.2941,-3.2928,0.0,-3.3473,-3.3929,-3.4935,0.0,0.0,0.0,0.0,0.0,-3.5241,-3.5024,-3.4899,-3.4899,-3.4899,-3.4899,-3.4899,-3.4899,-3.4899,-3.4899,-3.4899,-3.4977,-3.5195,-3.5133,-3.5186,0.0,0.0,0.0,0.0,0.0,0.0,0.0,0.0,0.0,0.0,0.0,0.0,0.0,0.0,0.0,0.0,0.0,0.0,0.0,0.0,0.0,0.0,0.0,0.0,0.0,0.0,0.0,0.0,-2.8543,-2.8613,-2.8565,-2.9059,-2.934,0.0,0.0,0.0,0.0,0.0,0.0,-2.9698,-3.0187,-3.0443,-3.0417,-3.029,-3.0244,-3.0337,-3.0266,-3.0319,-3.0514,-3.0514,-3.0729,-3.1202,-3.1202,-3.1494,-3.2012,-3.2012,-3.2012,-3.1931,-3.0862,-3.0453,-3.0453,-3.0453,-3.0453,-3.0453,-3.0453,-3.0453,-3.0453,-3.0453,-3.0453,-3.0453,-3.0453,0.0,-3.1248,-3.1339,0.0,0.0,0.0,0.0,-3.243,-3.2411,-3.2553,-3.2695,-3.2735,-3.2878,-3.3195,-3.3769,-3.3978,-3.4071,0.0,-3.4071,-3.4376,-3.5278,0.0,0.0,0.0,0.0,-3.527,-3.493,-3.4899,-3.4899,-3.4899,-3.4899,-3.4899,-3.4899,-3.4899,-3.4899,-3.4899,-3.4899,-3.4899,-3.4899,-3.5241,-3.5407,-3.5407,0.0,0.0,0.0,0.0,0.0,0.0,0.0,0.0,0.0,0.0,0.0,0.0,0.0,0.0,0.0,0.0,0.0,0.0,0.0,0.0,0.0,0.0,0.0,0.0,0.0,0.0,0.0,0.0,0.0,-2.8207,-2.8857,0.0,0.0,0.0,0.0,-3.0943,-3.0633,-3.046,-3.046,-3.0426,-3.0401,-3.0417,-3.029,-3.0533,-3.1237,-3.1237,-3.1536,-3.2085,-3.2085,-3.2055,-3.1947,-3.1947,-3.1963,-3.2012,-3.2012,-3.2012,-3.1996,-3.1931,-3.1898,-3.1898,-3.1898,-3.1898,-3.1898,-3.1898,-3.1898,-3.1898,-3.1898,-3.1898,-3.1898,-3.1898,-3.2008,-3.215,-3.2134,-3.2226,0.0,0.0,-3.2199,-3.2346,-3.2902,-3.3192,-3.3483,-3.4072,-3.4496,-3.4752,-3.4673,-3.4738,-3.4833,0.0,-3.4833,-3.4849,-3.493,0.0,-3.4947,-3.4947,-3.4947,-3.4947,-3.4899,-3.4899,-3.4899,-3.4899,-3.4899,-3.4899,-3.4899,-3.4899,-3.4899,-3.4899,-3.4899,-3.4899,-3.4899,-3.4947,-3.4947,-3.4947,-3.5374,0.0,0.0,0.0,0.0,0.0,0.0,0.0,0.0,0.0,0.0,0.0,0.0,0.0,0.0,0.0,0.0,0.0,0.0,0.0,0.0,0.0,0.0,0.0,0.0,0.0,0.0,0.0,0.0,-2.9641,-2.9922,0.0,-3.0316,-3.0443,-3.0551,-3.0699,-3.0593,-3.0526,-3.0526,-3.0931,-3.1153,-3.1153,-3.1495,-3.183,-3.2077,-3.1929,-3.203,-3.2338,-3.2152,-3.2333,-3.2755,-3.274,-3.2935,-3.3356,-3.296,-3.2793,-3.2743,-3.2399,-3.2165,-3.2012,-3.2012,-3.2012,-3.2012,-3.2012,-3.2012,-3.2012,-3.2012,-3.2012,-3.2093,-3.2546,-3.2756,-3.2885,-3.3275,-3.3437,-3.3421,-3.3437,-3.3502,-3.3567,-3.3713,-3.3925,-3.4121,-3.4284,-3.4546,-3.4739,-3.4691,-3.4804,-3.4899,-3.4899,-3.4899,-3.4899,-3.4899,-3.4899,-3.4899,-3.4899,-3.4899,-3.4899,-3.4899,-3.4899,-3.4899,-3.4899,-3.4899,-3.4899,-3.4899,-3.4899,-3.4899,-3.4899,-3.4899,-3.4899,-3.4899,-3.4899,-3.4899,-3.4899,-3.5055,-3.5148,0.0,0.0,0.0,0.0,0.0,0.0,0.0,0.0,0.0,0.0,0.0,0.0,0.0,0.0,0.0,0.0,0.0,0.0,0.0,0.0,0.0,0.0,0.0,0.0,0.0,0.0,-3.0262,-3.046,-3.0526,-3.0526,-3.0526,-3.0526,-3.0584,-3.0874,-3.0849,-3.1007,-3.1239,-3.1719,-3.1984,-3.1984,-3.2342,-3.2706,-3.2954,-3.2804,-3.2905,-3.3182,-3.2994,-3.3144,-3.3583,-3.3519,-3.3729,-3.4101,-3.3697,-3.3527,-3.3475,-3.3124,-3.276,-3.2384,-3.2203,-3.2153,-3.2153,-3.2335,-3.2384,-3.2433,-3.266,-3.2708,-3.2789,-3.3275,-3.3437,-3.3518,-3.3971,-3.4101,-3.4101,-3.4101,-3.4201,-3.43,-3.4201,-3.4349,-3.4546,-3.4448,-3.4594,-3.4756,-3.4756,-3.4851,-3.4899,-3.4899,-3.4899,-3.4899,-3.4899,-3.4899,-3.4899,-3.4899,-3.4899,-3.4899,-3.4899,-3.4899,-3.4899,-3.4899,-3.4899,-3.4899,-3.4899,-3.4899,-3.4899,-3.4899,-3.4899,-3.4899,-3.4899,-3.4899,-3.4899,-3.4899,-3.4899,-3.4994,-3.5148,0.0,0.0,0.0,0.0,0.0,0.0,0.0,0.0,0.0,0.0,0.0,0.0,0.0,0.0,0.0,0.0,0.0,0.0,0.0,0.0,0.0,0.0,0.0,-3.1123,-3.074,-3.0526,-3.0526,-3.0526,-3.0526,-3.0543,-3.0543,-3.0815,-3.1603,-3.1609,-3.1967,-3.2646,-3.2696,-3.2713,-3.2713,-3.2746,-3.3094,-3.3822,-3.3822,-3.4124,-3.4707,-3.4691,-3.4546,-3.43,-3.43,-3.4201,-3.4101,-3.405,-3.405,-3.405,-3.405,-3.3697,-3.3145,-3.2641,-3.2437,-3.2492,-3.3039,-3.3251,-3.3303,-3.3882,-3.4101,-3.4101,-3.4101,-3.4101,-3.4101,-3.4101,-3.4101,-3.4101,-3.4101,-3.4201,-3.43,-3.43,-3.4497,-3.4691,-3.4691,-3.4804,-3.4899,-3.4899,-3.4899,-3.4899,-3.4899,-3.4899,-3.4899,-3.4899,-3.4899,-3.4899,-3.4899,-3.4899,0.0,-3.4899,-3.4899,-3.4899,-3.4899,-3.4899,-3.4899,-3.4899,-3.4899,-3.4899,-3.4899,-3.4899,-3.4899,-3.4899,-3.4899,-3.4899,-3.4899,-3.4899,-3.5102,-3.5616,0.0,0.0,0.0,0.0,0.0,0.0,0.0,0.0,0.0,0.0,0.0,0.0,0.0,0.0,0.0,0.0,0.0,0.0,0.0,0.0,0.0,0.0,-3.1123,-3.1123,-3.074,-3.0526,-3.0526,-3.0526,-3.0725,-3.1272,-3.1279,-3.162,-3.2332,-3.2398,-3.2481,-3.268,-3.3193,-3.3491,-3.3491,-3.4005,-3.4386,-3.4601,-3.449,-3.4589,-3.4851,-3.4643,-3.4546,-3.4546,-3.3951,-3.385,-3.4184,-3.3245,-3.3071,-3.3423,-3.3018,-3.2765,-3.2695,-3.3351,-3.3387,-3.3055,-3.3646,-3.3866,-3.3866,-3.4034,-3.4101,-3.4101,-3.4101,-3.4101,-3.4101,-3.4101,-3.4101,-3.4101,-3.4101,-3.4151,-3.4201,-3.425,-3.4448,-3.4594,-3.4691,-3.4804,-3.4899,-3.4899,-3.4899,-3.4899,-3.4899,-3.4899,-3.4899,-3.4899,-3.4899,-3.4899,-3.4899,-3.4899,0.0,-3.4899,-3.4899,-3.4899,-3.4899,-3.4899,-3.4899,-3.4899,-3.4899,-3.4899,-3.4899,-3.4899,-3.4899,-3.4899,-3.4899,-3.4899,-3.4899,-3.4899,-3.5102,0.0,0.0,0.0,0.0,0.0,0.0,0.0,0.0,0.0,0.0,0.0,0.0,0.0,0.0,0.0,0.0,0.0,0.0,0.0,0.0,0.0,0.0,-3.113,-3.1331,-3.1331,-3.0817,-3.0626,-3.0898,-3.0974,-3.1272,-3.2,-3.2067,-3.2365,-3.3094,-3.3143,-3.3292,-3.3607,-3.4021,-3.4386,-3.47,-3.5131,-3.5512,-3.5827,-3.5712,-3.5712,-3.5827,-3.5331,-3.5129,-3.5112,-3.4228,-3.4013,-3.426,-3.351,-3.3382,-3.3646,-3.3326,-3.3058,0.0,0.0,0.0,0.0,0.0,-3.3866,-3.4101,-3.4101,-3.4101,-3.4101,-3.4101,-3.4101,-3.4101,-3.4101,-3.4101,-3.4101,-3.4101,-3.4201,-3.43,-3.4349,-3.4546,-3.4691,-3.4756,-3.4851,-3.4899,-3.4899,-3.4899,-3.4899,-3.4899,-3.4899,0.0,-3.4899,-3.4899,-3.4899,-3.4899,-3.4899,-3.4899,-3.4899,-3.4899,-3.4899,-3.4899,-3.4899,-3.4899,-3.4899,-3.4899,0.0,0.0,0.0,-3.4899,-3.4899,-3.4899,0.0,0.0,0.0,-3.5024,-3.5316,0.0,0.0,0.0,-3.6025,-3.6156,0.0,0.0,0.0,0.0,0.0,0.0,0.0,0.0,0.0,0.0,0.0,0.0,0.0,0.0,0.0,0.0,-3.1212,-3.1692,-3.1692,-3.1172,-3.1007,-3.1669,-3.1692,-3.2017,-3.2746,-3.2812,-3.311,-3.3856,-3.3988,-3.4319,-3.4982,0.0,0.0,0.0,0.0,-3.6439,-3.7102,-3.7102,-3.7051,-3.7001,-3.6243,-3.5796,-3.5577,-3.4774,-3.4383,-3.434,-3.4222,-3.4222,-3.4281,-3.4281,-3.3984,-3.3427,-3.2715,-3.2459,-3.2547,-3.3039,-3.3578,-3.4101,-3.4101,0.0,0.0,-3.4101,-3.4101,-3.4101,-3.4101,-3.4101,-3.4101,-3.4101,-3.425,-3.4448,-3.4448,-3.4643,-3.4851,-3.4899,-3.4899,-3.4899,-3.4899,-3.4899,-3.4899,-3.4899,-3.4899,-3.4899,-3.4899,-3.4899,-3.4899,-3.4899,-3.4899,-3.4899,-3.4899,-3.4899,-3.4899,-3.4899,0.0,0.0,-3.4899,-3.4899,-3.4899,-3.4899,-3.4899,-3.4899,-3.4899,-3.4899,-3.4899,-3.4899,-3.4899,-3.4899,-3.4899,-3.4899,-3.5102,-3.5543,-3.5933,-3.5977,0.0,0.0,0.0,0.0,0.0,0.0,0.0,0.0,0.0,0.0,0.0,0.0,0.0,0.0,0.0,-3.1447,-3.2017,-3.2481,-3.2481,-3.2348,-3.2315,-3.2464,-3.2481,-3.2762,-3.3508,-3.3574,-3.3889,-3.4618,-3.5247,-3.5644,-3.5777,-3.6357,-3.6738,-3.6887,-3.6887,-3.697,-3.7102,-3.7102,-3.6814,-3.6296,0.0,0.0,-3.5043,-3.4278,-3.4117,-3.4442,-3.3849,-3.3864,-3.4281,-3.4281,-3.4222,-3.4012,-3.2868,-3.266,-3.3039,-3.3145,-3.3578,-3.4101,-3.4101,-3.4101,-3.4101,-3.4101,-3.4101,-3.4101,-3.4101,-3.4101,0.0,-3.4101,-3.4151,-3.4201,-3.43,-3.4448,-3.4594,-3.4691,-3.4804,-3.4899,-3.4899,-3.4899,-3.4899,-3.4899,-3.4899,-3.4899,-3.4899,-3.4899,-3.4899,-3.4899,-3.4899,-3.4899,-3.4899,-3.4899,-3.4899,-3.4899,-3.4899,-3.4899,-3.4899,-3.4899,-3.4899,-3.4899,-3.4899,-3.4899,-3.4899,-3.4899,-3.4899,-3.4899,-3.4899,-3.4899,-3.4899,-3.4899,-3.4947,-3.5071,-3.5481,-3.6037,0.0,0.0,0.0,0.0,0.0,0.0,0.0,0.0,0.0,0.0,0.0,-3.1879,0.0,0.0,-3.2393,-3.2193,-3.2762,-3.3243,-3.3243,-3.3557,-3.3657,-3.3276,-3.3243,-3.3524,-3.427,-3.4667,-3.5048,-3.5413,-3.6141,-3.6555,-3.6555,-3.6903,-3.7284,-3.7649,-3.7665,-3.7831,-3.8195,-3.8195,-3.7883,-3.7171,-3.6782,-3.6195,-3.5368,-3.46,-3.4301,-3.4427,-3.4061,-3.4061,-3.4379,-3.4379,-3.4185,-3.3856,-3.3232,-3.3261,-3.3746,-3.3746,-3.3928,-3.4273,-3.4558,-3.4441,-3.4206,-3.4533,-3.4392,-3.4101,-3.4101,-3.4101,-3.4101,-3.4101,-3.4201,-3.43,-3.4399,-3.4546,-3.4691,-3.4787,-3.4851,-3.4899,-3.4899,-3.4899,-3.4899,-3.4899,-3.4899,-3.4899,-3.4899,-3.4899,-3.4899,-3.4899,-3.4899,-3.4899,-3.4899,-3.4899,-3.4899,-3.4899,-3.4899,-3.4899,-3.4899,-3.4899,-3.4899,-3.4899,-3.4899,-3.4899,-3.4899,-3.4899,-3.4899,-3.4899,-3.4899,-3.4899,-3.4899,-3.4899,-3.4899,-3.4899,-3.5148,-3.5481,0.0,0.0,0.0,0.0,0.0,0.0,0.0,0.0,-3.1617,-3.1658,-3.1896,-3.2143,-3.2277,-3.2617,-3.2895,-3.2895,-3.3524,-3.4005,-3.4005,-3.4518,-3.4717,-3.427,-3.422,-3.4452,-3.5048,-3.5777,-3.6224,-3.6224,-3.6903,-3.7317,-3.7317,-3.745,-3.7798,-3.8394,-3.856,-3.8907,-3.9487,-3.9511,-3.9198,-3.8527,-3.7689,-3.677,-3.5868,-3.5178,-3.4665,-3.4414,-3.4414,-3.4414,-3.4414,-3.4414,-3.4109,-3.3645,-3.3645,-3.3942,-3.4334,-3.4314,-3.4457,-3.4763,-3.5331,-3.5078,-3.4711,-3.5223,-3.5007,-3.4522,-3.4522,-3.4424,-3.4311,-3.4311,-3.4348,-3.4448,-3.4448,-3.4643,-3.4851,-3.4851,-3.4899,-3.4899,-3.4899,-3.4899,-3.4899,-3.4899,-3.4899,-3.4899,-3.4899,-3.5015,-3.5065,-3.4916,-3.4899,-3.4899,-3.4899,-3.4899,-3.4899,-3.4899,-3.4899,-3.4899,-3.4899,-3.4899,-3.4899,-3.4899,-3.4899,-3.4899,-3.4899,-3.4899,-3.4899,-3.4899,-3.4899,-3.4899,-3.4899,-3.4899,-3.4899,-3.4899,-3.4899,-3.4947,-3.242,-3.2091,-3.1677,-3.1261,-3.1452,-3.1528,0.0,0.0,-3.123,-3.155,-3.1639,-3.1862,-3.2519,-3.3205,-3.3673,-3.3673,-3.4286,-3.4767,-3.4767,-3.4849,-3.5114,-3.5694,-3.5744,-3.5794,-3.5876,-3.6555,-3.6986,-3.6986,-3.7665,-3.8096,-3.8096,-3.8692,-3.9073,-3.9156,-3.9802,-4.0183,-4.0266,-4.0279,-3.9967,-3.9265,-3.8428,-3.7222,-3.591,-3.5639,-3.5073,-3.4414,-3.4414,-3.4414,-3.4414,-3.4414,-3.437,-3.4312,-3.4312,-3.4321,-3.4369,-3.4364,-3.5122,-3.6072,-3.6179,-3.6131,-3.6066,-3.6173,-3.6125,-3.606,-3.606,-3.559,-3.5056,-3.5056,-3.4688,-3.43,-3.43,-3.4497,-3.4691,-3.4691,-3.4787,-3.4899,-3.4899,-3.4899,-3.4899,-3.4899,-3.4899,-3.4899,-3.4899,-3.5446,-3.5644,-3.4998,-3.4899,-3.4899,-3.4899,-3.4899,-3.4899,-3.4899,-3.4899,-3.4899,-3.4899,-3.4899,-3.4899,-3.4899,-3.4899,-3.4899,-3.4899,-3.4899,-3.4899,-3.4899,-3.4899,-3.4899,-3.4899,-3.4899,-3.4899,-3.4899,-3.4899,-3.5102,-3.1714,-3.149,0.0,0.0,-3.0902,-3.1043,-3.1141,-3.1283,-3.1566,-3.2127,-3.258,-3.2978,-3.3276,-3.3938,-3.4435,0.0,-3.47,-3.4899,-3.4899,-3.5263,-3.5644,-3.5959,-3.6771,-3.7119,-3.6688,-3.7317,-3.7748,-3.7748,-3.8427,-3.8825,-3.8825,-3.952,-3.9918,-3.9918,-4.0613,-4.0978,-4.0978,-4.0613,-4.0011,-3.922,-3.8465,-3.7496,-3.6329,-3.619,-3.5769,-3.4965,-3.4965,-3.4762,-3.4414,-3.4414,-3.4414,-3.4414,-3.4414,-3.4668,-3.4963,-3.4976,-3.5324,-3.5885,-3.6679,-3.6637,-3.6342,-3.6777,-3.6627,-3.6303,-3.6303,-3.6076,-3.5833,-3.5833,-3.5711,-3.5456,-3.5033,-3.5086,-3.5136,-3.479,-3.4739,-3.4919,-3.5446,-3.5545,-3.5678,-3.6108,-3.6174,-3.6174,-3.6174,-3.6439,-3.6539,-3.6224,-3.6174,-3.6174,-3.6174,-3.6174,-3.6025,-3.5595,-3.5148,-3.4899,-3.4899,-3.4899,-3.4899,-3.4899,-3.4899,-3.4899,-3.4899,-3.4899,-3.4899,-3.4899,-3.4899,-3.4899,-3.4899,-3.4899,-3.4899,-3.4899,-3.4899,-3.5024,-3.1083,0.0,0.0,-3.0551,-3.0634,-3.0957,-3.1461,-3.1785,-3.2116,-3.2845,-3.3425,-3.3856,-3.4054,-3.4535,0.0,-3.4899,-3.4899,-3.4899,-3.4899,-3.5528,-3.6075,-3.629,-3.7433,-3.8079,-3.7731,-3.8195,-3.851,-3.851,-3.899,-3.9371,-3.957,-4.0083,-4.0409,-4.0608,-4.1302,-4.1552,-4.1346,-4.0934,-4.026,-3.9464,-3.8702,-3.7823,-3.6948,-3.6616,-3.621,-3.5619,-3.5619,-3.5256,-3.4675,-3.4675,-3.4574,-3.4414,-3.4414,-3.4787,-3.54,-3.5578,-3.577,-3.6087,-3.7282,-3.7319,-3.6988,-3.7431,-3.7274,-3.6886,-3.6886,-3.6756,-3.6594,-3.6594,-3.6523,-3.6388,-3.5866,-3.5889,-3.5909,-3.5481,-3.5349,-3.5547,-3.6191,-3.6307,-3.6456,-3.7003,-3.7102,-3.7102,-3.7102,-3.7284,-3.7417,-3.7417,-3.7582,-3.7566,-3.7152,-3.7102,-3.6903,-3.6357,-3.5644,-3.5197,-3.5197,-3.5015,-3.4899,-3.4899,-3.4899,-3.4899,-3.4899,-3.4899,-3.4899,-3.4899,-3.4899,-3.4899,-3.4899,-3.4899,-3.4899,-3.4899,-3.4899,-3.4899,0.0,0.0,-3.0526,-3.051,-3.1056,-3.1543,-3.1576,-3.215,-3.2862,-3.3607,-3.3773,-3.4005,-3.4717,-3.4883,-3.4899,-3.4899,-3.4899,-3.4899,-3.4899,-3.5528,-3.6274,-3.6986,-3.7748,-3.8477,0.0,-3.9222,-3.9239,-3.9239,-3.9309,-3.9587,-4.0299,-4.0183,-4.0456,-4.1165,-4.1906,-4.1956,-4.1206,-4.1389,-4.1131,-4.0416,-3.929,-3.8486,-3.7824,-3.6806,-3.6301,-3.6272,-3.6272,-3.5923,-3.5343,-3.5343,-3.4965,-3.4414,-3.4414,-3.4787,-3.5464,-3.6134,-3.6768,-3.7417,-3.8148,-3.8319,-3.8359,-3.8375,-3.8359,-3.8343,-3.8343,-3.7841,-3.729,-3.729,-3.7004,-3.6675,-3.6659,-3.6865,-3.7069,-3.7036,-3.7036,-3.7036,-3.7069,-3.7069,-3.7069,-3.7102,-3.7102,-3.7102,-3.7102,-3.7698,-3.8179,-3.8179,-3.8775,-3.8709,-3.7284,-3.7102,-3.7102,-3.7069,-3.6406,-3.5976,-3.5976,-3.5313,-3.4899,-3.4899,-3.4899,-3.4899,-3.4899,-3.4899,-3.4899,-3.4899,-3.4899,-3.4899,-3.4899,-3.4899,-3.4899,-3.4899,-3.4899,-3.4899,0.0,0.0,-3.1255,-3.1255,-3.1785,-3.2464,-3.2945,-3.3243,-3.3624,-3.4369,-3.4518,-3.4601,-3.4849,-3.4899,-3.4899,-3.4899,-3.4899,-3.4899,-3.4899,-3.5959,-3.682,-3.7069,-3.8179,0.0,0.0,0.0,0.0,-3.9272,-3.9736,-4.0062,-4.0183,-4.1049,-4.1617,-4.1714,-4.2571,-4.2692,-4.1947,-4.166,-4.1127,-4.0285,-3.9147,-3.8399,-3.8105,-3.7739,-3.7346,-3.6968,-3.6968,-3.6591,-3.5996,-3.5996,-3.5619,-3.5107,-3.5569,-3.5606,-3.5529,-3.6646,-3.7222,-3.7476,-3.8148,-3.8391,-3.8391,-3.8391,-3.8391,-3.8391,-3.8391,-3.823,-3.8035,-3.8035,-3.7984,-3.784,-3.7334,-3.738,-3.7439,-3.7065,-3.6949,-3.7133,-3.768,-3.7847,-3.798,-3.8444,-3.8543,-3.8543,-3.8543,-3.8758,-3.8924,-3.8924,-3.9123,-3.909,-3.8609,-3.8129,-3.7847,-3.7847,-3.7168,-3.6738,-3.6738,-3.6059,-3.5628,-3.5628,-3.5164,-3.4899,-3.4899,-3.4899,-3.4899,-3.4899,-3.4899,-3.4899,-3.4899,-3.4899,-3.4899,-3.4899,-3.4899,-3.4899,0.0,-3.1378,-3.1576,-3.1576,-3.2365,-3.321,-3.3673,-3.3988,-3.4319,-3.48,-3.4899,-3.4899,-3.4899,-3.4899,-3.4899,-3.4899,-3.4899,-3.4899,-3.4899,-3.6174,-3.7102,-3.7102,-3.8394,0.0,0.0,0.0,0.0,-3.9272,-3.9951,-4.0426,-4.0506,-4.1584,-4.2222,-4.2348,-4.2944,-4.2834,-4.1852,-4.1591,-4.0925,-3.9707,-3.887,-3.8366,-3.8202,-3.8202,-3.7984,-3.7622,-3.7622,-3.7259,-3.6664,-3.6664,-3.6414,-3.6163,-3.6558,-3.6808,-3.6965,-3.7557,-3.7975,-3.8179,-3.8359,-3.8391,-3.8391,-3.8391,-3.8391,-3.8391,-3.8391,-3.8391,-3.8391,-3.8391,-3.852,-3.8502,-3.8068,-3.8117,-3.8142,-3.7824,-3.7777,-3.7909,-3.8493,-3.8593,-3.8725,-3.9189,-3.9272,-3.9272,-3.9272,-3.9272,-3.9272,-3.9272,-3.9272,-3.9272,-3.9272,-3.8874,-3.8593,-3.8593,-3.793,-3.75,-3.75,-3.682,-3.629,-3.6025,-3.5562,-3.5164,-3.4916,-3.4899,-3.4899,-3.4899,-3.4899,-3.4899,-3.4899,-3.4899,-3.4899,-3.4899,-3.4899,-3.4899,-3.0609,-3.1139,-3.1643,-3.1676,-3.2796,-3.3856,-3.3856,-3.4386,-3.4899,-3.4899,-3.4899,-3.4899,0.0,0.0,-3.4899,-3.4899,-3.4899,-3.4899,-3.4899,-3.6174,-3.7102,0.0,0.0,0.0,0.0,0.0,0.0,-3.9322,0.0,-4.069,-4.1231,-4.1763,-4.2272,-4.2805,-4.299,-4.238,-4.094,-4.126,-4.05,-3.8782,-3.859,-3.8366,-3.8202,-3.8202,-3.8202,-3.8202,-3.8202,-3.7883,-3.736,-3.736,-3.7357,-3.7473,-3.7488,-3.8299,-3.9439,-3.8806,-3.9022,-3.9428,-3.8699,-3.8424,-3.8391,-3.8391,-3.8391,-3.8391,-3.8391,-3.8391,-3.8391,-3.8391,-3.8504,-3.8616,-3.875,-3.8914,-3.9077,-3.9272,-3.9272,-3.9272,-3.9272,-3.9272,-3.9272,-3.9272,-3.9272,-3.9272,-3.9272,-3.9272,-3.9272,-3.9272,-3.9272,-3.9272,-3.9272,-3.9272,-3.9272,-3.9272,-3.8676,-3.8278,-3.8278,-3.7582,-3.687,-3.6158,-3.6075,-3.5727,-3.4982,-3.4965,-3.4932,-3.4899,-3.4899,-3.4899,-3.4899,-3.4899,-3.4899,-3.4899,-3.4899,-3.4899,-3.1835,-3.2282,-3.2547,-3.3094,-3.3922,-3.4618,-3.4618,-3.4767,-3.4899,-3.4899,-3.4899,-3.4899,0.0,0.0,0.0,-3.4899,-3.4899,0.0,-3.4899,-3.6174,0.0,0.0,0.0,-3.9272,-3.9272,-3.9272,0.0,0.0,-4.0763,-4.1345,-4.1779,-4.2441,-4.2515,-4.1868,-4.2648,-4.2173,-4.017,-3.9834,-3.9364,-3.859,-3.8516,-3.8366,-3.8202,-3.8202,-3.8202,-3.8202,-3.8202,-3.8115,-3.797,-3.797,-3.8003,-3.8162,-3.8713,-3.9141,-3.9564,-3.985,-4.0102,-4.014,-3.9444,-3.8845,-3.8391,-3.8391,-3.8391,-3.8391,-3.8391,-3.8391,-3.8391,-3.8391,-3.8544,-3.8766,-3.8805,-3.904,-3.9218,-3.9272,-3.9272,-3.9272,-3.9272,-3.9272,-3.9272,-3.9272,-3.9272,-3.9272,-3.9272,-3.9272,-3.9272,-3.9272,-3.9272,-3.9272,-3.9272,-3.9272,-3.9272,-3.9272,-3.9106,-3.9007,-3.9007,-3.8344,-3.7847,-3.7665,-3.7119,-3.6489,-3.5744,-3.5727,-3.5462,-3.4916,-3.4899,-3.4899,-3.4899,-3.4899,-3.4899,-3.4899,-3.4899,-3.4899,-3.1901,-3.2448,-3.2862,-3.3607,-3.4336,-3.4899,-3.4899,-3.4899,-3.4899,-3.4899,-3.4899,0.0,0.0,0.0,0.0,0.0,0.0,0.0,-3.4899,-3.6174,-3.7102,0.0,-3.8394,0.0,-3.9272,-3.9272,-3.9702,0.0,-4.1153,-4.1511,-4.1983,-4.2659,-4.2539,-4.1525,-4.2459,-4.2333,-4.0857,-3.9849,-3.922,-3.9002,-3.8575,-3.8277,-3.8202,-3.8202,-3.8202,-3.8202,0.0,-3.8202,-3.8202,-3.8202,-3.8619,-3.9313,-3.9673,-4.0247,-4.0862,-4.0942,-4.0966,-4.0869,-4.0173,-3.9654,-3.9217,-3.8602,-3.8391,-3.8391,-3.8391,-3.8391,-3.8391,-3.8391,-3.8504,-3.8655,-3.875,-3.8914,-3.9094,-3.9272,-3.9272,-3.9272,-3.9272,-3.9272,-3.9272,-3.9272,-3.9272,-3.9272,-3.9272,-3.9272,-3.9272,-3.9272,-3.9272,-3.9272,-3.9272,-3.9272,-3.9272,-3.9272,-3.9272,-3.9272,-3.9272,-3.8907,-3.8543,-3.8228,-3.7814,-3.7119,-3.6042,-3.6009,-3.5644,-3.4916,-3.4899,-3.4899,-3.4899,-3.4899,-3.4899,-3.4899,-3.4899,-3.4899,-3.1537,-3.2216,-3.2895,-3.3723,-3.4419,-3.4899,-3.4899,-3.4899,-3.4899,-3.4899,0.0,0.0,-3.4899,0.0,-3.4899,-3.4899,0.0,-3.4899,-3.4899,-3.6092,-3.7003,-3.7102,-3.8311,-3.9172,-3.9309,-3.9272,-3.9835,-4.112,-4.1222,-4.146,-4.2114,-4.2602,-4.2555,-4.1722,-4.2222,-4.2349,-4.2045,-4.0516,-3.9692,-3.955,-3.8841,-3.8412,-3.8202,-3.8263,-3.8263,-3.8202,-3.8202,0.0,-3.8202,-3.8202,-3.9103,-4.0416,-4.0416,-4.1311,-4.2553,-4.1938,-4.1711,-4.1614,-4.0885,-4.0642,-4.0399,-3.8991,-3.8537,-3.8521,-3.8424,-3.8391,-3.8391,-3.8391,-3.8391,-3.8504,-3.875,-3.8805,-3.8914,-3.9218,-3.9272,-3.9272,-3.9272,-3.9272,-3.9272,-3.9272,-3.9272,-3.9272,-3.9272,-3.9272,-3.9272,-3.9272,-3.9272,-3.9272,-3.9272,-3.9272,-3.9272,-3.9272,-3.9272,-3.9272,-3.9272,-3.9272,-3.9007,-3.8394,-3.8361,-3.7731,-3.6357,-3.6208,-3.5794,-3.5048,-3.4949,-3.4899,-3.4899,-3.4899,-3.4899,-3.4899,-3.4899,-3.4899,-3.2133,-3.2597,-3.3011,-3.4369,-3.48,-3.4899,-3.4899,-3.4899,0.0,0.0,0.0,-3.4899,-3.4899,-3.4899,0.0,-3.4899,0.0,0.0,0.0,0.0,-3.6423,0.0,0.0,0.0,0.0,0.0,0.0,0.0,0.0,-4.1573,-4.2851,-4.288,-4.2837,-4.2634,-4.106,-4.0706,-4.1868,-4.0925,-4.01,-3.9391,-3.9788,-3.9376,-3.8202,-3.8826,-3.8752,-3.8202,-3.8202,0.0,-3.8202,-3.8202,-3.9103,-4.0416,-4.0416,-4.1311,-4.2618,-4.2488,-4.2456,-4.2342,-4.163,-4.1387,-4.116,-3.9752,-3.9298,-3.9185,-3.8586,-3.8391,-3.8391,-3.8391,-3.8448,-3.8616,-3.875,-3.886,-3.9023,-3.9272,-3.9272,-3.9272,-3.9272,-3.9272,-3.9272,-3.9272,-3.9272,-3.9272,-3.9272,-3.9272,-3.9272,-3.9272,-3.9272,-3.9272,-3.9272,-3.9272,-3.9272,-3.9272,-3.9272,-3.9272,-3.9272,-3.9272,-3.9222,-3.9106,-3.909,-3.8709,-3.7864,-3.7235,-3.6572,-3.5827,-3.5214,-3.4899,-3.4899,-3.4899,-3.4899,-3.4899,-3.4899,-3.4899,-3.1835,-3.2398,-3.2945,-3.4038,-3.4618,-3.4899,-3.4899,0.0,0.0,0.0,0.0,-3.4899,-3.4899,0.0,0.0,0.0,0.0,0.0,0.0,0.0,0.0,0.0,0.0,0.0,0.0,0.0,0.0,0.0,0.0,-4.1416,-4.2386,-4.1933,-4.1787,-4.2142,-4.0432,-3.9945,-4.1028,-4.0706,-4.0154,-3.932,-4.0069,-3.9804,-3.8826,-3.952,-3.9448,-3.8826,-3.9175,0.0,-3.8826,-3.9175,-3.9999,-4.0961,-4.0961,-4.1656,-4.2634,-4.2634,-4.2634,-4.2585,-4.2245,-4.2132,-4.1954,-4.0917,-4.0075,-3.9412,-3.9072,-3.8699,-3.8391,-3.8504,-3.856,-3.8672,-3.886,-3.8969,-3.9023,-3.9272,-3.9272,-3.9272,-3.9272,-3.9272,-3.9272,-3.9272,-3.9272,-3.9272,-3.9272,-3.9272,-3.9272,-3.9272,-3.9272,-3.9272,-3.9272,-3.9272,-3.9272,-3.9272,-3.9272,-3.9272,-3.9272,-3.9272,-3.9272,-3.9272,-3.9272,-3.8957,-3.8245,-3.75,-3.6754,-3.6009,-3.528,-3.4899,-3.4899,-3.4899,-3.4899,-3.4899,-3.4899,-3.4899,-3.1378,-3.215,-3.2862,-3.3607,-3.4336,-3.4899,-3.4899,-3.4899,0.0,0.0,-3.4899,-3.4899,-3.4899,0.0,0.0,0.0,0.0,0.0,0.0,0.0,0.0,0.0,0.0,0.0,0.0,0.0,0.0,0.0,0.0,0.0,-4.1943,-4.0946,-4.0758,-4.1459,-4.0069,-3.9662,-4.0416,-4.0554,-4.0278,-3.952,-4.0416,-4.0416,-3.9591,-4.0278,-4.0209,-3.9591,-4.0139,0.0,0.0,-4.0139,-4.0826,-4.1525,-4.1525,-4.1948,-4.2634,-4.2634,-4.2634,-4.2634,-4.2634,-4.2634,-4.2537,-4.1986,-4.095,-3.9897,-3.9735,-3.9201,-3.8634,-3.8748,-3.869,-3.8672,-3.8914,-3.8969,-3.9023,-3.9272,-3.9272,-3.9272,-3.9272,-3.9272,-3.9272,-3.9272,-3.9272,-3.9272,-3.9272,-3.9272,-3.9272,-3.9272,-3.9272,-3.9272,-3.9272,-3.9272,-3.9272,-3.9272,-3.9272,-3.9272,-3.9272,-3.9272,-3.9272,-3.9272,-3.9272,-3.9023,-3.846,-3.7731,-3.7003,-3.6257,-3.5512,-3.5048,-3.4899,-3.4899,-3.4899,-3.4899,-3.4899,-3.4899,-3.1378,-3.215,-3.2862,-3.3607,-3.4336,-3.4899,-3.4899,0.0,0.0,0.0,-3.4899,-3.4899,-3.4899,-3.4899,0.0,0.0,0.0,0.0,0.0,0.0,0.0,0.0,0.0,0.0,0.0,0.0,0.0,0.0,0.0,0.0,-4.2472,-4.1147,-4.0758,-4.1459,-4.0069,-3.9662,-4.0416,-4.1028,-4.1044,-4.0347,-4.1738,-4.1656,-4.0347,-4.1044,-4.0977,-4.0278,-4.0347,0.0,0.0,-4.0347,-4.0826,-4.1525,-4.1525,-4.1948,-4.2634,-4.2634,-4.2634,-4.2634,-4.2634,-4.2634,-4.2618,-4.2553,-4.2019,-4.1257,-4.0594,-3.993,-3.9379,-3.9437,-3.9024,-3.8616,-3.875,-3.8914,-3.9023,-3.9272,-3.9272,-3.9272,-3.9272,-3.9272,-3.9272,-3.9272,-3.9272,-3.9272,-3.9272,-3.9272,-3.9272,-3.9272,-3.9272,-3.9272,-3.9272,-3.9272,-3.9272,-3.9272,-3.9272,-3.9272,-3.9272,-3.9272,-3.9272,-3.9272,-3.9272,-3.9239,-3.9172,-3.8493,-3.7765,-3.7019,-3.6274,-3.5578,-3.4899,-3.4899,-3.4899,-3.4899,-3.4899,-3.4899,-3.0874,-3.1802,-3.2746,-3.3044,-3.4021,-3.4899,-3.4899,0.0,0.0,-3.4899,-3.4899,-3.4899,-3.4899,-3.4899,-3.4899,-3.4899,0.0,0.0,0.0,0.0,0.0,0.0,0.0,0.0,0.0,0.0,0.0,0.0,0.0,0.0,-4.1876,-4.1435,-4.1178,-4.1525,-4.0069,-3.9448,-3.9733,-3.9999,-3.9804,-3.9103,-4.1044,-4.1393,-4.0416,-4.1591,-4.1738,-4.1111,-4.1525,0.0,0.0,-4.1525,-4.1868,-4.2142,-4.2142,-4.2349,-4.2634,-4.2634,-4.2634,-4.2634,-4.2634,-4.2634,-4.2634,-4.2634,-4.2439,-4.2083,-4.1476,-4.0778,-4.0203,-3.9936,-3.9649,-3.9322,-3.8975,-3.8969,-3.9023,-3.9272,-3.9272,-3.9272,-3.9272,-3.9272,-3.9272,-3.9272,-3.9272,-3.9272,-3.9272,-3.9272,-3.9272,-3.9272,-3.9272,-3.9272,-3.9272,-3.9272,-3.9272,-3.9272,-3.9272,-3.9272,-3.9272,-3.9272,-3.9272,-3.9272,-3.9272,-3.9272,-3.9272,-3.8593,-3.7864,-3.7119,-3.639,-3.5644,-3.4899,-3.4899,-3.4899,-3.4899,-3.4899,-3.4899,-3.0526,-3.1586,-3.268,-3.268,-3.3806,-3.4899,0.0,0.0,0.0,-3.4899,-3.4899,-3.4899,-3.4899,-3.4899,-3.4899,-3.4899,0.0,-3.4899,0.0,0.0,0.0,0.0,0.0,0.0,0.0,0.0,0.0,0.0,0.0,0.0,0.0,-4.1081,-4.1245,-4.1525,-4.0278,-3.9662,-3.9662,-3.9662,-3.9376,-3.8899,-4.0622,-4.1245,-4.0758,-4.2013,-4.2285,-4.1868,-4.2349,0.0,0.0,-4.2365,-4.2634,-4.2634,-4.2634,-4.2634,-4.2634,-4.2634,-4.2634,-4.2634,-4.2634,-4.2634,-4.2634,-4.2634,-4.2634,-4.2537,-4.2219,-4.1645,-4.1053,-4.0631,-4.023,-3.9778,-3.9166,-3.9023,-3.9094,-3.9202,-3.9272,-3.9272,-3.9272,-3.9272,-3.9272,-3.9272,-3.9272,-3.9272,-3.9272,-3.9272,-3.9272,-3.9272,-3.9272,-3.9272,-3.9272,-3.9272,-3.9272,-3.9272,-3.9272,-3.9272,-3.9272,-3.9272,-3.9272,-3.9272,-3.9272,-3.9272,-3.9272,-3.8593,-3.7864,-3.7119,-3.639,-3.5644,-3.4899,-3.4899,-3.4899,-3.4899,-3.4899,-3.4899,-3.0526,-3.1586,-3.268,-3.268,-3.3806,-3.4899,0.0,0.0,0.0,-3.4899,-3.4899,-3.4899,-3.4899,-3.4899,-3.4899,-3.4899,-3.4899,0.0,0.0,0.0,0.0,0.0,0.0,0.0,0.0,0.0,0.0,0.0,0.0,0.0,0.0,-4.0062,-4.0758,-4.1459,-4.0758,-4.0416,-4.0416,-4.0416,-4.0347,-4.0416,-4.1111,-4.1525,-4.1525,-4.2285,-4.2571,0.0,0.0,0.0,0.0,-4.2634,-4.2634,-4.2634,-4.2634,-4.2634,-4.2634,-4.2634,-4.2634,-4.2634,-4.2634,-4.2634,-4.2634,-4.2634,-4.2634,-4.2634,-4.2821,-4.2378,-4.1748,-4.161,-4.0766,-3.9778,-3.9166,-3.9148,-3.9272,-3.9023,-3.9148,-3.9272,-3.9272,-3.9272,-3.9272,-3.9272,-3.9272,-3.9272,-3.9272,-3.9272,-3.9272,-3.9272,-3.9272,-3.9272,-3.9272,-3.9272,-3.9272,-3.9272,-3.9272,-3.9272,-3.9272,-3.9272,-3.9272,-3.9272,-3.9272,-3.9272,-3.9272,-3.8593,-3.7864,-3.7119,-3.639,-3.5644,-3.4899,-3.4899,-3.4899,-3.4899,-3.4899,-3.4899,-3.0526,-3.1586,-3.268,-3.268,-3.3806,-3.4899,-3.4899,0.0,-3.4899,-3.4899,-3.4899,-3.4899,-3.4899,-3.4899,-3.4899,-3.4899,-3.4899,0.0,0.0,0.0,0.0,0.0,0.0,0.0,0.0,0.0,0.0,0.0,0.0,0.0,0.0,-4.0003,-4.0758,-4.1459,-4.0758,-4.0622,-4.1178,-4.0622,-4.0139,-3.9662,-4.0416,-4.0485,-4.0069,-4.1245,-4.1868,0.0,0.0,0.0,0.0,-4.2634,-4.2634,-4.2634,-4.2634,-4.2634,-4.2634,-4.2634,-4.2634,-4.2634,-4.2634,-4.2634,-4.2634,-4.2634,-4.2634,-4.2634,-4.2696,-4.2613,-4.246,-4.1894,-4.0841,-3.9837,-3.9568,-3.9159,-3.8838,-3.8969,-3.904,-3.9148,-3.9272,-3.9272,-3.9272,-3.9272,-3.9202,-3.9077,-3.9077,-3.9077,-3.9077,-3.9077,-3.9202,-3.9272,-3.9272,-3.9272,-3.9272,-3.9272,-3.9272,-3.9272,-3.9272,-3.9272,-3.9272,-3.9272,-3.9272,-3.9272,-3.9272,-3.8593,-3.7864,-3.7119,-3.639,-3.5644,-3.4899,-3.4899,-3.4899,-3.4899,-3.4899,-3.4899,0.0,-3.1388,-3.2348,-3.2613,-3.3591,0.0,0.0,0.0,-3.4899,-3.4899,-3.4899,-3.4899,-3.4899,-3.4899,-3.4899,-3.4899,-3.4899,0.0,0.0,0.0,0.0,0.0,0.0,0.0,0.0,0.0,0.0,0.0,0.0,0.0,0.0,-3.9514,-4.0033,-4.1028,-4.0894,-4.1044,-4.1525,-4.1044,-4.0554,-4.0139,-4.0622,-4.0554,-4.0139,-4.1393,-4.1948,0.0,0.0,0.0,0.0,-4.2696,-4.2696,-4.2696,-4.2759,-4.2759,-4.2696,-4.2696,-4.2696,-4.2634,-4.2634,-4.2634,-4.2634,-4.2634,-4.2634,-4.2634,-4.2696,-4.2837,-4.2753,-4.2064,-4.1334,-4.0574,-3.9952,-3.9406,-3.9054,-3.8925,-3.8969,-3.9023,-3.9148,-3.9272,-3.9272,-3.9202,-3.9148,-3.9094,-3.9023,-3.9077,-3.9094,-3.9094,-3.9218,-3.9272,-3.9272,-3.9272,-3.9272,-3.9272,-3.9272,-3.9272,-3.9272,-3.9272,-3.9272,-3.9272,-3.9272,-3.9156,-3.8891,-3.8179,-3.745,-3.6704,-3.5959,-3.5363,-3.4899,-3.4899,-3.4899,-3.4899,-3.4899,-3.4899,0.0,0.0,0.0,0.0,0.0,0.0,0.0,0.0,0.0,-3.4899,-3.4899,-3.4899,-3.4899,-3.4899,-3.4899,-3.4899,0.0,0.0,0.0,0.0,0.0,0.0,0.0,0.0,0.0,0.0,0.0,0.0,0.0,0.0,0.0,-3.8763,-3.8983,-4.0186,-4.1013,-4.1459,-4.1459,-4.1459,-4.1459,-4.1459,-4.1459,-4.1459,-4.1459,-4.2222,-4.2492,0.0,0.0,0.0,0.0,-4.2837,-4.2899,-4.2899,-4.3052,-4.3007,-4.2899,-4.2899,-4.2759,-4.2634,-4.2634,-4.2634,-4.2634,-4.2634,-4.2634,-4.2696,-4.2837,-4.2899,-4.2814,-4.2234,-4.2048,-4.172,-4.0394,-3.9968,-3.9722,-3.9034,-3.8947,-3.9023,-3.9023,-3.9148,-3.9255,-3.9077,-3.9148,-3.9218,-3.9023,-3.9148,-3.9272,-3.9272,-3.9272,-3.9272,-3.9272,-3.9272,-3.9272,-3.9272,-3.9272,-3.9272,-3.9272,-3.9272,-3.9272,-3.9272,-3.9272,-3.8957,-3.8245,-3.75,-3.6754,-3.6009,-3.528,-3.4899,-3.4899,-3.4899,-3.4899,-3.4899,-3.4899,-3.4899,-3.0526,0.0,-3.1802,-3.2514,0.0,0.0,0.0,0.0,0.0,0.0,0.0,0.0,0.0,0.0,0.0,0.0,0.0,0.0,0.0,0.0,0.0,0.0,0.0,0.0,0.0,0.0,0.0,0.0,0.0,0.0,-3.8557,-3.9437,-3.9591,-3.8797,-4.0017,-4.069,-4.069,-4.1245,-4.1245,-4.069,-4.1245,-4.1178,-4.069,-4.1459,-4.1738,0.0,0.0,0.0,-4.2837,-4.2899,-4.2945,-4.3052,-4.3113,-4.3007,-4.2899,-4.2899,-4.2759,-4.2634,-4.2634,-4.2634,-4.2634,-4.2775,-4.2883,-4.299,-4.3052,-4.3052,-4.3019,-4.29,-4.2577,-4.2144,-4.1714,-4.0738,-3.991,-3.9801,-3.938,-3.9023,-3.9218,-3.9272,-3.9272,-3.9218,-3.9148,-3.904,-3.9023,-3.9023,-3.9094,-3.9094,-3.9202,-3.9272,-3.9272,-3.9148,-3.9094,-3.9094,-3.8969,-3.8969,-3.9077,-3.9202,-3.9272,-3.9272,-3.9272,-3.8957,-3.8245,-3.75,-3.6754,-3.6009,-3.528,-3.4899,-3.4899,-3.4899,-3.4899,-3.4899,-3.4899,-3.4899,-3.0781,-3.0917,-3.1371,-3.2431,-3.2994,-3.3574,0.0,0.0,0.0,0.0,0.0,0.0,0.0,0.0,0.0,0.0,0.0,0.0,0.0,0.0,0.0,0.0,0.0,0.0,0.0,0.0,0.0,0.0,0.0,0.0,-3.885,-3.9263,-3.9452,-3.9296,-3.9733,-3.9918,-3.9859,-4.0961,-4.1311,-4.0894,-4.1656,-4.1803,-4.1459,-4.1803,-4.2013,0.0,0.0,0.0,-4.2899,-4.3084,-4.319,-4.3251,-4.3251,-4.3129,-4.3007,-4.2899,-4.2837,-4.2775,-4.2775,-4.2759,-4.2867,-4.2945,-4.3052,-4.3113,-4.3235,-4.3251,-4.3235,-4.3113,-4.2955,-4.2713,-4.2282,-4.1304,-4.0369,-4.0153,-3.9567,-3.9023,-3.9148,-3.9218,-3.9272,-3.9202,-3.9148,-3.9094,-3.9023,-3.9094,-3.9094,-3.9023,-3.9148,-3.9272,-3.9148,-3.9094,-3.9023,-3.9023,-3.886,-3.8805,-3.8914,-3.904,-3.9148,-3.9272,-3.9202,-3.8834,-3.814,-3.7345,-3.6438,-3.5415,-3.505,-3.4899,-3.4899,-3.4899,-3.4899,-3.4899,-3.4899,-3.4851,-3.1184,-3.0902,-3.0908,-3.2183,-3.2597,-3.3044,-3.4419,0.0,0.0,0.0,0.0,0.0,0.0,0.0,0.0,0.0,0.0,0.0,0.0,0.0,0.0,0.0,0.0,0.0,0.0,0.0,0.0,0.0,0.0,0.0,-3.9282,-3.8802,-3.9011,-4.0103,-3.9645,-3.9344,-3.9298,-4.0779,-4.1525,-4.1525,-4.2222,-4.2634,-4.2634,-4.2634,-4.2634,-4.2634,0.0,0.0,-4.3023,-4.3251,-4.3372,-4.3372,-4.3372,-4.3251,-4.3052,-4.2961,-4.2899,-4.2899,-4.2899,-4.3007,-4.3174,-4.3174,-4.3174,-4.3235,-4.3372,-4.3432,-4.3372,-4.3235,-4.3312,-4.33,-4.2631,-4.188,-4.1083,-4.0456,-3.9732,-3.9171,-3.9056,-3.9202,-3.9272,-3.9094,-3.9202,-3.9272,-3.9094,-3.9148,-3.9218,-3.904,-3.9148,-3.9202,-3.8969,-3.8969,-3.8969,-3.8914,-3.8805,-3.875,-3.875,-3.875,-3.8914,-3.9202,-3.9077,-3.8656,-3.7965,-3.7121,-3.6088,-3.484,-3.4969,-3.4967,-3.4851,-3.4899,-3.4899,-3.4899,-3.4899,-3.4804,-3.1603,-3.13,-3.1143,-3.1656,-3.2249,-3.2911,-3.3756,0.0,0.0,0.0,0.0,0.0,0.0,0.0,0.0,0.0,0.0,0.0,0.0,0.0,0.0,0.0,0.0,0.0,0.0,0.0,0.0,0.0,0.0,0.0,-3.8553,-3.9005,-3.9113,-3.8651,-3.9094,-3.9417,-3.9397,-4.0763,-4.1525,-4.1525,-4.2222,-4.2634,-4.2634,-4.2634,-4.2696,-4.2837,0.0,-4.3084,-4.3328,-4.3372,-4.3372,-4.3372,-4.3372,-4.319,-4.2961,-4.2899,-4.2899,-4.2899,-4.3052,-4.3174,-4.3372,-4.3372,-4.3432,-4.3509,-4.3568,-4.3568,-4.3552,-4.3509,-4.3568,-4.3535,-4.3436,-4.2857,-4.2113,-4.1368,-4.0657,-4.0034,-3.9404,-3.9272,-3.9272,-3.9272,-3.9272,-3.9272,-3.9272,-3.9148,-3.9023,-3.9023,-3.9023,-3.8969,-3.886,-3.886,-3.8805,-3.8672,-3.856,-3.8504,-3.8616,-3.8616,-3.8711,-3.886,-3.886,-3.8532,-3.781,-3.7019,-3.6249,-3.5497,-3.558,-3.5366,-3.4739,-3.4835,-3.4899,-3.4899,-3.4787,-3.4691,-3.202,-3.1913,-3.1688,-3.1402,-3.2024,-3.2878,-3.3624,0.0,0.0,0.0,0.0,0.0,0.0,0.0,0.0,0.0,0.0,0.0,0.0,0.0,0.0,0.0,0.0,0.0,0.0,0.0,0.0,0.0,0.0,0.0,-3.8391,-3.8715,-3.894,-3.8926,-3.9262,-3.9636,-4.0008,-4.0657,-4.1119,-4.1525,-4.2222,-4.2634,-4.2634,-4.2634,-4.2696,-4.2899,0.0,-4.3023,-4.3251,-4.3251,-4.3251,-4.3235,-4.3146,-4.3023,-4.2899,-4.3007,-4.3068,-4.319,-4.3312,-4.3432,-4.3509,-4.3432,-4.3492,-4.3568,-4.3492,-4.3568,-4.3628,-4.3628,-4.3628,-4.3628,-4.3628,-4.3065,-4.2336,-4.1591,-4.0878,-4.0183,-3.9437,-3.9272,-3.9272,-3.9148,-3.9148,-3.9148,-3.9148,-3.8969,-3.8914,-3.8914,-3.8914,-3.886,-3.8711,-3.8711,-3.8655,-3.8632,-3.8448,-3.8391,-3.852,-3.8504,-3.856,-3.8655,-3.8711,-3.8329,-3.7541,-3.7253,-3.6731,-3.6029,-3.5791,-3.558,-3.5284,-3.4889,-3.4691,-3.4804,-3.4643,-3.4546,-3.242,-3.2352,-3.2214,-3.1751,0.0,-3.3078,-3.3437,0.0,0.0,0.0,0.0,0.0,0.0,0.0,0.0,0.0,0.0,0.0,0.0,0.0,0.0,0.0,0.0,0.0,0.0,0.0,0.0,0.0,0.0,0.0,-3.8391,-3.8391,-3.8651,-3.9201,-3.9233,-3.9557,-4.0254,-4.0254,-4.0611,-4.1246,-4.2027,-4.2391,-4.2391,-4.2553,-4.2696,-4.2961,-4.2899,-4.3007,-4.3174,-4.3113,-4.3113,-4.3052,-4.2961,-4.2899,-4.2899,-4.3052,-4.3174,-4.3372,-4.3568,-4.3568,-4.3492,-4.3432,-4.3432,-4.3432,-4.3372,-4.3372,-4.3492,-4.3492,-4.3492,-4.3492,-4.3568,-4.3197,-4.2585,-4.1856,-4.1127,-4.036,-3.9632,-3.9334,-3.9148,-3.8969,-3.8969,-3.8969,-3.8969,-3.886,-3.875,-3.875,-3.875,-3.8711,-3.856,-3.856,-3.8576,-3.8576,-3.8448,-3.8391,-3.8391,-3.8391,-3.8448,-3.8576,-3.856,-3.8261,-3.7598,-3.7692,-3.7335,-3.662,-3.6225,-3.5922,-3.5695,-3.5087,-3.471,-3.4643,-3.4497,-3.4399,-3.2852,-3.2588,-3.2459,-3.3142,-3.3633,0.0,-3.2967,-3.4203,0.0,0.0,0.0,0.0,0.0,0.0,0.0,0.0,0.0,0.0,0.0,0.0,0.0,0.0,0.0,0.0,0.0,0.0,0.0,0.0,0.0,0.0,-3.8391,-3.8391,-3.8424,-3.8472,-3.8472,-3.8829,-3.9541,-3.9557,-3.9914,-4.0582,-4.1322,-4.1646,-4.1662,-4.2326,-4.2743,-4.3113,-4.2945,-4.3084,-4.3372,-4.3174,-4.3007,-4.2899,-4.2899,-4.2899,-4.2899,-4.3052,-4.3113,-4.3174,-4.3492,-4.3372,-4.3174,-4.3312,-4.3312,-4.3096,-4.3113,-4.3113,-4.3113,-4.3113,-4.3113,-4.3235,-4.3492,-4.3578,-4.3346,-4.2618,-4.1758,-4.0918,-4.0193,-3.9407,-3.8805,-3.8805,-3.8805,-3.8805,-3.8805,-3.8711,-3.8616,-3.8616,-3.8616,-3.8576,-3.8448,-3.8504,-3.856,-3.8464,-3.8408,-3.8391,-3.8391,-3.8391,-3.8391,-3.8391,-3.8391,-3.8375,-3.8327,-3.8327,-3.7987,-3.7258,-3.7302,-3.671,-3.5442,-3.5478,-3.5168,-3.4497,-3.4399,-3.43,-3.2916,-3.2606,-3.2511,-3.3283,0.0,0.0,0.0,0.0,0.0,0.0,0.0,0.0,0.0,0.0,0.0,0.0,0.0,0.0,0.0,0.0,0.0,0.0,0.0,0.0,0.0,0.0,0.0,0.0,0.0,0.0,0.0,-3.8391,-3.8391,-3.8391,-3.8391,-3.8537,-3.8796,-3.8812,-3.8926,-3.9201,-4.0351,-4.0961,-4.1037,-4.1237,-4.1715,-4.2425,-4.2215,-4.2476,-4.3084,-4.2883,-4.2759,-4.2696,-4.2837,-4.2945,-4.3068,-4.3235,-4.3312,-4.3312,-4.3509,-4.3372,-4.3096,-4.3174,-4.3174,-4.3096,-4.3007,-4.3052,-4.3113,-4.3113,-4.3113,-4.3113,-4.3235,-4.3295,-4.3114,-4.2541,-4.1741,-4.1,-4.0403,-3.955,-3.8914,-3.8805,-3.875,-3.8672,-3.8672,-3.856,-3.8504,-3.8576,-3.852,-3.8448,-3.8408,-3.8448,-3.8464,-3.8408,-3.8391,-3.8391,-3.8391,-3.8391,-3.8391,-3.8391,-3.8391,-3.8391,-3.8391,-3.8391,-3.8278,-3.8003,-3.7605,-3.7156,-3.671,-3.5763,-3.5245,-3.5068,-3.4462,-3.4201,-3.2916,-3.2705,-3.2682,0.0,0.0,0.0,0.0,0.0,0.0,0.0,0.0,0.0,0.0,0.0,0.0,0.0,0.0,0.0,0.0,0.0,0.0,0.0,0.0,0.0,0.0,0.0,0.0,0.0,0.0,0.0,0.0,-3.8391,-3.8391,-3.8391,-3.8391,-3.8391,-3.8391,-3.8391,-3.8391,-3.8408,-3.9379,-4.0005,-4.0365,-4.0459,-4.0935,-4.1586,-4.1346,-4.1638,-4.2232,-4.2032,-4.2083,-4.2326,-4.2678,-4.2883,-4.3052,-4.319,-4.3251,-4.3251,-4.3372,-4.3235,-4.2929,-4.299,-4.299,-4.2929,-4.2821,-4.2883,-4.2929,-4.2929,-4.2929,-4.2929,-4.2929,-4.3052,-4.2933,-4.2364,-4.1641,-4.0918,-4.0308,-3.9456,-3.8766,-3.8694,-3.8616,-3.856,-3.856,-3.8448,-3.8448,-3.8504,-3.8448,-3.8391,-3.8391,-3.8391,-3.8391,-3.8391,-3.8391,-3.8391,-3.8391,-3.8391,-3.8391,-3.8391,-3.8391,-3.8391,-3.8391,-3.8391,-3.8391,-3.8391,-3.7906,-3.7605,-3.7416,-3.6388,-3.5675,-3.5324,-3.4734,-3.4311,-3.2916,-3.2884,0.0,0.0,0.0,0.0,0.0,0.0,0.0,0.0,0.0,0.0,0.0,0.0,0.0,0.0,0.0,0.0,0.0,0.0,0.0,0.0,0.0,0.0,0.0,0.0,0.0,0.0,0.0,0.0,0.0,-3.8391,-3.8391,-3.8391,-3.8391,-3.8391,-3.8391,-3.8391,-3.8391,-3.8391,-3.8391,-3.8764,-3.9493,-4.0173,-4.0615,-4.0782,-4.0572,-4.0631,-4.0798,-4.0572,-4.0917,-4.163,-4.2342,-4.268,-4.2883,-4.2883,-4.2883,-4.2883,-4.3035,-4.2851,-4.2618,-4.2805,-4.2743,-4.2555,-4.2555,-4.2555,-4.2555,-4.2555,-4.2555,-4.2555,-4.2555,-4.2851,-4.2916,-4.2245,-4.1422,-4.0587,-3.9879,-3.9008,-3.8391,-3.8391,-3.8391,-3.8391,-3.8391,-3.8391,-3.8391,-3.8391,-3.8391,-3.8391,-3.8391,-3.8391,-3.8391,-3.8391,-3.8391,-3.8391,-3.8391,-3.8391,-3.8391,-3.8391,-3.8391,-3.8391,-3.8391,-3.8391,-3.8391,-3.8391,-3.8391,-3.8051,-3.7323,-3.7323,-3.6594,-3.5202,-3.5185,-3.4797,-3.2916,0.0,0.0,0.0,0.0,0.0,0.0,0.0,0.0,0.0,0.0,0.0,0.0,0.0,0.0,0.0,0.0,0.0,0.0,0.0,0.0,0.0,0.0,0.0,0.0,0.0,0.0,0.0,0.0,0.0,0.0,-3.796,-3.7902,-3.8408,-3.8391,-3.8391,-3.8391,-3.8391,-3.8391,-3.8391,-3.8391,-3.8561,-3.8902,-3.8983,-3.9372,-4.0033,-3.9842,-4.0118,-4.0572,-4.0496,-4.0626,-4.0836,-4.12,-4.1357,-4.1417,-4.152,-4.152,-4.1417,-4.1563,-4.1368,-4.1128,-4.1357,-4.1281,-4.1128,-4.1128,-4.1128,-4.1128,-4.1128,-4.1128,-4.1128,-4.1128,-4.1188,-4.1374,-4.1803,-4.0971,-3.9968,-3.9895,-3.9177,-3.856,-3.856,-3.8448,-3.8391,-3.8391,-3.8391,-3.8391,-3.8391,-3.8391,-3.8391,-3.8391,-3.8391,-3.8391,-3.8391,-3.8391,-3.8391,-3.8391,-3.8391,-3.8391,-3.8391,-3.8391,-3.8391,-3.8391,-3.8391,-3.8391,-3.8391,-3.8391,-3.8294,-3.8068,-3.7566,-3.7112,-3.6659,-3.5655,-3.5072,-3.2916,0.0,0.0,0.0,0.0,0.0,0.0,0.0,0.0,0.0,0.0,0.0,0.0,0.0,0.0,0.0,0.0,0.0,0.0,0.0,0.0,0.0,0.0,0.0,0.0,0.0,0.0,0.0,0.0,0.0,0.0,-3.7873,-3.796,-3.8408,-3.8391,-3.8391,-3.8391,-3.8391,-3.8391,-3.8391,-3.8391,-3.8448,-3.8504,-3.8448,-3.8691,-3.917,-3.9113,-3.9282,-3.9687,-3.9978,-4.0092,-4.0124,-4.0534,-4.0648,-4.0707,-4.075,-4.075,-4.0707,-4.075,-4.0674,-4.0496,-4.0648,-4.0572,-4.0496,-4.0496,-4.0496,-4.0496,-4.0496,-4.0496,-4.0496,-4.0496,-4.0286,-4.0264,-4.0745,-4.0209,-3.9568,-3.9373,-3.8909,-3.8504,-3.8504,-3.8464,-3.8391,-3.8391,-3.8391,-3.8391,-3.8391,-3.8391,-3.8391,-3.8391,-3.8391,-3.8391,-3.8391,-3.8391,-3.8391,-3.8391,-3.8391,-3.8391,-3.8391,-3.8391,-3.8391,-3.8391,-3.8391,-3.8391,-3.8391,-3.8391,-3.8391,-3.8391,-3.7954,-3.7598,-3.729,-3.6157,-3.5461,0.0,0.0,0.0,0.0,0.0,0.0,0.0,0.0,0.0,0.0,0.0,0.0,0.0,0.0,0.0,0.0,0.0,0.0,0.0,0.0,0.0,0.0,0.0,0.0,0.0,0.0,0.0,0.0,0.0,0.0,0.0,-3.7785,-3.8173,-3.8311,-3.8311,-3.8327,-3.8391,-3.8391,-3.8391,-3.8391,-3.8391,-3.8391,-3.8391,-3.8391,-3.8391,-3.8391,-3.8391,-3.8391,-3.844,-3.9104,-3.9379,-3.9444,-4.0059,-4.0302,-4.0302,-4.0302,-4.0361,-4.0345,-4.0345,-4.042,-4.0404,-4.0404,-4.0404,-4.0345,-4.0345,-4.0361,-4.0302,-4.0302,-4.0302,-4.0302,-4.0302,-3.9849,-3.9379,-3.9379,-3.9379,-3.9201,-3.8537,-3.8391,-3.8391,-3.8391,-3.8391,-3.8391,-3.8391,-3.8391,-3.8391,-3.8391,-3.8391,-3.8391,-3.8391,-3.8391,-3.8391,-3.8391,-3.8391,-3.8391,-3.8391,-3.8391,-3.8391,-3.8391,-3.8391,-3.8391,-3.8391,-3.8391,-3.8391,-3.8391,-3.8391,-3.8391,-3.8391,-3.8391,-3.8068,-3.7404,-3.6724,-3.5995,0.0,0.0,0.0,0.0,0.0,0.0,0.0,0.0,0.0,0.0,0.0,0.0,0.0,0.0,0.0,0.0,0.0,0.0,0.0,0.0,0.0,0.0,0.0,0.0,0.0,0.0,0.0,0.0,0.0,0.0,-3.6459,-3.6174,-3.6438,-3.7478,-3.7549,-3.7825,-3.8391,-3.8391,-3.8391,0.0,-3.8391,-3.8391,-3.8391,-3.8391,-3.8391,-3.8391,-3.8391,-3.8391,-3.8408,-3.857,-3.8634,-3.8651,-3.8796,-3.8845,-3.8845,-3.8845,-3.9056,-3.9319,-3.9319,-3.9523,-3.9814,-3.9814,-3.9561,-3.9319,-3.9319,-3.9112,-3.8845,-3.8845,-3.8845,-3.8845,-3.8845,-3.8748,-3.8634,-3.8634,-3.8634,-3.8586,-3.8424,-3.8391,-3.8391,-3.8391,-3.8391,-3.8391,-3.8391,-3.8391,-3.8391,-3.8391,-3.8391,-3.8391,-3.8391,-3.8391,-3.8391,-3.8391,-3.8391,-3.8391,-3.8391,-3.8391,-3.8391,-3.8391,-3.8391,-3.8391,-3.8391,-3.8391,-3.8391,-3.8391,-3.8391,-3.8391,-3.8391,-3.8391,-3.8327,-3.8149,-3.7436,-3.6724,0.0,0.0,0.0,0.0,0.0,0.0,0.0,0.0,0.0,0.0,0.0,0.0,0.0,0.0,0.0,0.0,0.0,0.0,0.0,0.0,0.0,0.0,0.0,0.0,0.0,0.0,0.0,0.0,0.0,-3.5401,-3.5768,-3.5808,-3.6107,-3.6821,-3.6837,-3.7177,-3.7873,-3.7873,-3.8051,-3.8391,-3.8391,-3.8391,-3.8391,-3.8391,-3.8391,-3.8391,-3.8391,-3.8391,-3.8391,-3.8391,-3.8391,-3.8391,-3.8391,-3.8391,-3.8391,-3.8391,-3.8655,-3.9023,-3.9023,-3.9259,-3.961,-3.961,-3.9454,-3.9312,-3.9312,-3.9152,-3.8952,-3.8766,-3.8711,-3.8655,-3.8448,-3.8391,-3.8391,-3.8391,-3.8391,-3.8391,-3.8391,-3.8391,-3.8391,-3.8391,-3.8391,-3.8391,-3.8391,-3.8391,-3.8391,-3.8391,-3.8391,-3.8391,-3.8391,-3.8391,-3.8391,-3.8391,-3.8391,-3.8391,-3.8391,-3.8391,-3.8391,-3.8391,-3.8391,-3.8391,-3.8391,-3.8391,-3.8391,-3.8391,-3.8391,-3.8391,-3.8391,-3.8391,-3.8391,-3.8375,-3.7647,-3.695,0.0,0.0,0.0,0.0,0.0,0.0,0.0,0.0,0.0,0.0,0.0,0.0,0.0,0.0,0.0,0.0,0.0,0.0,0.0,0.0,0.0,0.0,0.0,0.0,0.0,0.0,0.0,0.0,0.0,-3.4991,-3.4991,-3.559,-3.5979,-3.6108,-3.6108,-3.6448,-3.7128,-3.7145,-3.7501,-3.8213,-3.8343,-3.8391,-3.8391,-3.8391,-3.8391,-3.8391,-3.8391,-3.8391,-3.8391,-3.8391,-3.8391,-3.8391,-3.8391,-3.8391,-3.8391,-3.8391,-3.8711,-3.9115,-3.9115,-3.9418,-3.9817,-3.9714,-3.9714,-3.9714,-3.9558,-3.9506,-3.9418,-3.9061,-3.8969,-3.886,-3.8655,-3.8504,-3.8391,-3.8504,-3.8448,-3.8391,-3.8391,-3.8391,-3.8391,-3.8391,-3.8391,-3.8391,-3.8391,-3.8391,-3.8391,-3.8391,-3.8391,-3.8391,-3.8391,-3.8391,-3.8391,-3.8391,-3.8391,-3.8391,-3.8391,-3.8391,-3.8391,-3.8391,-3.8391,-3.8391,-3.8391,-3.8391,-3.8391,-3.8391,-3.8391,-3.8391,-3.8391,-3.8391,-3.8391,-3.8391,-3.7776,-3.7128,0.0,0.0,0.0,0.0,0.0,0.0,0.0,0.0,0.0,0.0,0.0,0.0,0.0,0.0,0.0,0.0,0.0,0.0,0.0,0.0,0.0,0.0,0.0,0.0,0.0,0.0,0.0,0.0,-3.4182,-3.4246,-3.4246,-3.4343,-3.4683,-3.5315,-3.5331,-3.5687,-3.6432,-3.6432,-3.6788,-3.7469,-3.81,-3.8391,-3.8391,-3.8391,-3.8391,-3.8391,-3.8391,-3.8391,-3.8391,-3.8391,-3.8391,-3.8391,-3.8391,-3.8391,-3.8391,-3.8391,-3.886,-3.9506,-3.9506,-4.0037,-4.068,-4.0337,-4.0188,-4.0087,-3.9329,-3.9061,-3.9077,-3.9023,-3.8766,-3.86,-3.9242,-3.8898,-3.8504,-3.8821,-3.8655,-3.8391,-3.8391,-3.8391,-3.8391,-3.8391,-3.8391,-3.8391,-3.8391,-3.8391,-3.8391,-3.8391,-3.8391,-3.8391,-3.8391,-3.8391,-3.8391,-3.8391,-3.8391,-3.8391,-3.8391,-3.8391,-3.8391,-3.8391,-3.8391,-3.8391,-3.8391,-3.8391,-3.8391,-3.8391,-3.8391,-3.8391,-3.8391,-3.8391,-3.8391,-3.8391,-3.8311,-3.7873,0.0,0.0,0.0,0.0,0.0,0.0,0.0,0.0,0.0,0.0,0.0,0.0,0.0,0.0,0.0,0.0,0.0,0.0,0.0,0.0,0.0,0.0,0.0,0.0,0.0,0.0,0.0,0.0,-3.4101,-3.4101,-3.4101,-3.4101,-3.4246,-3.4554,-3.457,-3.4926,-3.5671,-3.5671,-3.6044,-3.6756,-3.708,-3.742,-3.7792,-3.7792,-3.8019,-3.8391,-3.8391,-3.8391,-3.8391,-3.8391,-3.8391,-3.8391,-3.8391,-3.8391,-3.8391,-3.8391,-3.875,-3.9259,-3.9259,-3.985,-4.0485,-4.0054,-4.007,-4.0188,-3.9523,-3.9365,-3.9312,-3.9061,-3.886,-3.8766,-3.8898,-3.8655,-3.8448,-3.86,-3.8504,-3.8391,-3.8391,-3.8391,-3.8391,-3.8391,-3.8391,-3.8391,-3.8391,-3.8391,-3.8391,-3.8391,-3.8391,-3.8391,-3.8391,-3.8391,-3.8391,-3.8391,-3.8391,-3.8391,-3.8391,-3.8391,-3.8391,-3.8391,-3.8391,-3.8391,-3.8391,-3.8391,-3.8391,-3.8391,-3.8391,-3.8391,-3.8391,-3.8391,-3.8391,-3.8391,-3.8391,-3.8003,0.0,0.0,0.0,0.0,0.0,0.0,0.0,0.0,0.0,0.0,0.0,0.0,0.0,0.0,0.0,0.0,0.0,0.0,0.0,0.0,0.0,0.0,0.0,0.0,0.0,0.0,0.0,0.0,-3.4101,-3.4101,-3.4101,-3.4101,-3.4101,-3.4101,-3.4101,-3.436,-3.491,-3.5088,-3.5461,-3.6027,-3.6206,-3.6562,-3.7064,-3.7064,-3.7452,-3.8132,-3.8327,-3.8391,-3.8391,-3.8391,-3.8391,-3.8391,-3.8391,-3.8391,-3.8391,-3.8391,-3.8655,-3.9023,-3.9023,-3.9487,-4.007,-3.9575,-3.9731,-4.002,-3.947,-3.9348,-3.9401,-3.9061,-3.8914,-3.8821,-3.875,-3.8544,-3.8464,-3.8504,-3.8448,-3.8391,-3.8391,-3.8391,-3.8391,-3.8391,-3.8391,-3.8391,-3.8391,-3.8391,-3.8391,-3.8391,-3.8391,-3.8391,-3.8391,-3.8391,-3.8391,-3.8391,-3.8391,-3.8391,-3.8391,-3.8391,-3.8391,-3.8391,-3.8391,-3.8391,-3.8391,-3.8391,-3.8391,-3.8391,-3.8391,-3.8391,-3.8391,-3.8391,-3.8391,-3.8391,-3.8391,-3.8116,0.0,0.0,0.0,0.0,0.0,0.0,0.0,0.0,0.0,0.0,0.0,0.0,0.0,0.0,0.0,0.0,0.0,0.0,0.0,0.0,0.0,0.0,0.0,0.0,0.0,0.0,0.0,0.0,-3.4101,-3.4101,-3.4101,-3.4101,-3.4101,-3.4101,-3.4101,-3.4117,-3.4165,-3.4845,-3.5202,-3.525,-3.5963,-3.6319,-3.6367,-3.6367,-3.6724,-3.742,-3.81,-3.8391,-3.8391,-3.8391,-3.8391,-3.8391,-3.8391,-3.8391,-3.8391,-3.8391,-3.8655,-3.9023,-3.9023,-3.9259,-3.9558,-3.9169,-3.9329,-3.9506,-3.8711,-3.8711,-3.9023,-3.9023,-3.8711,-3.86,-3.9365,-3.8952,-3.8504,-3.886,-3.8655,-3.8391,-3.8391,-3.8391,-3.8391,-3.8391,-3.8391,-3.8391,-3.8391,-3.8391,-3.8391,-3.8391,-3.8391,-3.8391,-3.8391,-3.8391,-3.8391,-3.8391,-3.8391,-3.8391,-3.8391,-3.8391,-3.8391,-3.8391,-3.8391,-3.8391,-3.8391,-3.8391,-3.8391,-3.8391,-3.8391,-3.8391,-3.8391,-3.8391,-3.8391,-3.8391,-3.8391,-3.8375,0.0,0.0,0.0,0.0,0.0,0.0,0.0,0.0,0.0,0.0,0.0,0.0,0.0,0.0,0.0,0.0,0.0,0.0,0.0,0.0,0.0,0.0,0.0,0.0,0.0,0.0,0.0,0.0,0.0,-3.4101,-3.4101,-3.4101,-3.4101,-3.4101,-3.4101,-3.4101,-3.4101,-3.436,-3.4489,-3.4489,-3.4764,-3.5137,-3.559,-3.559,-3.5979,-3.6675,-3.695,-3.7566,-3.8391,-3.8391,-3.8391,-3.8391,-3.8391,-3.8391,-3.8391,-3.8391,-3.8504,-3.86,-3.86,-3.886,-3.9169,-3.8766,-3.8914,-3.9115,-3.856,-3.8504,-3.86,-3.86,-3.8504,-3.8448,-3.875,-3.86,-3.8448,-3.856,-3.8504,-3.8391,-3.8391,-3.8391,-3.8391,-3.8391,-3.8391,-3.8391,-3.8391,-3.8391,-3.8391,-3.8391,-3.8391,-3.8391,-3.8391,-3.8391,-3.8391,-3.8391,-3.8391,-3.8391,-3.8391,-3.8391,-3.8391,-3.8391,-3.8391,-3.8391,-3.8391,-3.8391,-3.8391,-3.8391,-3.8391,-3.8391,-3.8391,-3.8391,-3.8391,-3.8391,-3.8391,-3.8391,0.0,0.0,0.0,0.0,0.0,0.0,0.0,0.0,0.0,0.0,0.0,0.0,0.0,0.0,0.0,0.0,0.0,0.0,0.0,0.0,0.0,0.0,0.0,0.0,0.0,0.0,0.0,0.0,0.0,0.0,-3.4101,-3.4101,-3.4101,-3.4101,-3.4101,-3.4101,-3.4101,-3.4101,-3.4101,-3.4101,-3.4101,-3.436,-3.4813,-3.4813,-3.5218,-3.593,-3.593,-3.674,-3.8035,-3.8035,-3.8181,-3.8391,-3.8391,-3.8391,-3.8391,-3.8391,-3.8391,-3.8391,-3.8391,-3.8544,-3.8766,-3.8504,-3.856,-3.8766,-3.8504,-3.8391,-3.8391,-3.8391,-3.8391,-3.8391,-3.8391,-3.8391,-3.8391,-3.8391,-3.8391,-3.8391,-3.8391,-3.8391,-3.8391,-3.8391,-3.8391,-3.8391,-3.8391,-3.8391,-3.8391,-3.8391,-3.8391,-3.8391,-3.8391,-3.8391,-3.8391,-3.8391,-3.8391,-3.8391,-3.8391,-3.8391,-3.8391,-3.8391,-3.8391,-3.8391,-3.8391,-3.8391,-3.8391,-3.8391,-3.8391,-3.8391,-3.8391,-3.8391,-3.8391,-3.8391,-3.8391,-3.8278,0.0,0.0,0.0,0.0,0.0,0.0,0.0,0.0,0.0,0.0,0.0,0.0,0.0,0.0,0.0,0.0,0.0,0.0,0.0,0.0,0.0,0.0,0.0,0.0,0.0,0.0,0.0,0.0,-3.4101,-3.4101,-3.4101,-3.4101,-3.4101,-3.4101,-3.4101,-3.4101,-3.4101,-3.4101,-3.4101,-3.4101,-3.4101,-3.4101,-3.4101,-3.4101,-3.4489,-3.5153,-3.5153,-3.5946,-3.7258,-3.7274,-3.7711,-3.8375,-3.8375,-3.8375,-3.8391,-3.8391,-3.8391,-3.8391,-3.8391,-3.8391,-3.8391,-3.8391,-3.8391,-3.8391,-3.8391,-3.8391,-3.8391,-3.8391,-3.8391,-3.8391,-3.8391,-3.8391,-3.8391,-3.8391,-3.8391,-3.8391,-3.8391,-3.8391,-3.8391,-3.8391,-3.8391,-3.8391,-3.8391,-3.8391,-3.8391,-3.8391,-3.8391,-3.8391,-3.8391,-3.8391,-3.8391,-3.8391,-3.8391,-3.8391,-3.8391,-3.8391,-3.8391,-3.8391,-3.8391,-3.8391,-3.8391,-3.8391,-3.8391,-3.8391,-3.8391,-3.8391,-3.8391,-3.8391,-3.8391,-3.8391,-3.8391,-3.8003,-3.2916,0.0,0.0,0.0,0.0,0.0,0.0,0.0,0.0,0.0,0.0,0.0,0.0,0.0,0.0,0.0,0.0,0.0,0.0,0.0,0.0,0.0,0.0,0.0,0.0,0.0,0.0,0.0,-3.4101,-3.4101,-3.4101,-3.4101,-3.4101,-3.4101,-3.4101,-3.4101,-3.4101,-3.4101,-3.4101,-3.4101,-3.4101,-3.4101,-3.4101,-3.4101,-3.4214,-3.4392,-3.4392,-3.4926,-3.5817,-3.6367,-3.6999,-3.7614,-3.7614,-3.7938,-3.8391,-3.8391,-3.8391,-3.8391,-3.8391,-3.8391,-3.8391,-3.8391,-3.8391,-3.8391,-3.8391,-3.8391,-3.8391,-3.8391,-3.8391,-3.8391,-3.8391,-3.8391,-3.8391,-3.8391,-3.8391,-3.8391,-3.8391,-3.8391,-3.8391,-3.8391,-3.8391,-3.8391,-3.8391,-3.8391,-3.8391,-3.8391,-3.8391,-3.8391,-3.8391,-3.8391,-3.8391,-3.8391,-3.8391,-3.8391,-3.8391,-3.8391,-3.8391,-3.8391,-3.8391,-3.8391,-3.8391,-3.8391,-3.8391,-3.8391,-3.8391,-3.8391,-3.8391,-3.8391,-3.8391,-3.8391,-3.8391,-3.8003,0.0,0.0,0.0,0.0,0.0,0.0,0.0,-3.6584,0.0,0.0,0.0,0.0,0.0,0.0,0.0,0.0,0.0,0.0,0.0,0.0,0.0,0.0,0.0,0.0,0.0,-3.4101,-3.4101,-3.4101,-3.4101,-3.4101,-3.4101,-3.4101,-3.4101,-3.4101,-3.4101,-3.4101,-3.4101,-3.4101,-3.4101,-3.4101,-3.4101,-3.4101,-3.4101,-3.4101,-3.4101,-3.4101,-3.4101,-3.4343,-3.4764,-3.5202,-3.5979,-3.6918,-3.7209,-3.7582,-3.7987,-3.8294,-3.8391,-3.8391,-3.8391,-3.8391,-3.8391,-3.8391,-3.8391,-3.8391,-3.8391,-3.8391,-3.8391,-3.8391,-3.8391,-3.8391,-3.8391,-3.8391,-3.8391,-3.8391,-3.8391,-3.8391,-3.8391,-3.8391,-3.8391,-3.8391,-3.8391,-3.8391,-3.8391,-3.8391,-3.8391,-3.8391,-3.8391,-3.8391,-3.8391,-3.8391,-3.8391,-3.8391,-3.8391,-3.8391,-3.8391,-3.8391,-3.8391,-3.8391,-3.8391,-3.8391,-3.8391,-3.8391,-3.8391,-3.8391,-3.8391,-3.8391,-3.8391,-3.8391,-3.8391,-3.8391,-3.8391,-3.8165,0.0,0.0,0.0,0.0,0.0,0.0,-3.5978,-3.6155,-3.6232,0.0,0.0,0.0,0.0,0.0,0.0,0.0,0.0,0.0,0.0,0.0,0.0,0.0,0.0,0.0,-3.4101,-3.4101,-3.4101,-3.4101,-3.4101,-3.4101,-3.4101,-3.4101,-3.4101,-3.4101,-3.4101,-3.4101,-3.4101,-3.4101,-3.4101,-3.4101,-3.4101,-3.4101,-3.4101,-3.4101,-3.4101,-3.4101,-3.4101,-3.4101,-3.4101,-3.4101,-3.4926,-3.6238,-3.6837,-3.7177,-3.7404,-3.8051,-3.8327,-3.8391,-3.8391,-3.8391,-3.8391,-3.8391,-3.8391,-3.8391,-3.8391,-3.8391,-3.8391,-3.8391,-3.8391,-3.8391,-3.8391,-3.8391,-3.8391,-3.8391,-3.8391,-3.8391,-3.8391,-3.8391,-3.8391,-3.8391,-3.8391,-3.8391,-3.8391,-3.8391,-3.8391,-3.8391,-3.8391,-3.8391,-3.8391,-3.8391,-3.8391,-3.8391,-3.8391,-3.8391,-3.8391,-3.8391,-3.8391,-3.8391,-3.8391,-3.8391,-3.8391,-3.8391,-3.8391,-3.8391,-3.8391,-3.8391,-3.8391,-3.8391,-3.8391,-3.8391,-3.8391,-3.8391,0.0,0.0,0.0,0.0,0.0,0.0,-3.7111,-3.7268,-3.7206,0.0,0.0,0.0,0.0,0.0,0.0,0.0,0.0,0.0,0.0,0.0,0.0,0.0,0.0,0.0,-3.4101,-3.4101,-3.4101,-3.4101,-3.4101,-3.4101,-3.4101,-3.4101,-3.4101,-3.4101,-3.4101,-3.4101,-3.4101,-3.4101,-3.4101,-3.4101,-3.4101,-3.4101,-3.4101,-3.4101,-3.4101,-3.4101,-3.4101,-3.4101,-3.4101,-3.4101,-3.4619,-3.5412,-3.5542,-3.6303,-3.7339,-3.7469,-3.7906,-3.8391,-3.8391,-3.8391,-3.8391,-3.8391,-3.8391,-3.8391,-3.8391,-3.8391,-3.8391,-3.8391,-3.8391,-3.8391,-3.8391,-3.8391,-3.8391,-3.8391,-3.8391,-3.8391,-3.8391,-3.8391,-3.8391,-3.8391,-3.8391,-3.8391,-3.8391,-3.8391,-3.8391,-3.8391,-3.8391,-3.8391,-3.8391,-3.8391,-3.8391,-3.8391,-3.8391,-3.8391,-3.8391,-3.8391,-3.8391,-3.8391,-3.8391,-3.8391,-3.8391,-3.8391,-3.8391,-3.8391,-3.8391,-3.8391,-3.8391,-3.8391,-3.8391,-3.8391,-3.8391,-3.8391,0.0,0.0,0.0,-3.6292,0.0,0.0,0.0,-3.7243,-3.7111,0.0,0.0,0.0,0.0,0.0,0.0,0.0,0.0,0.0,0.0,0.0,0.0,0.0,0.0,0.0,-3.4101,-3.4101,-3.4101,-3.4101,-3.4101,-3.4101,-3.4101,-3.4101,-3.4101,-3.4101,-3.4101,-3.4101,-3.4101,-3.4101,-3.4101,-3.4101,-3.4101,-3.4101,-3.4101,-3.4101,-3.4101,-3.4101,-3.4101,-3.4101,-3.4101,-3.4101,-3.4311,-3.4683,-3.504,-3.5623,-3.6335,-3.7064,-3.7549,-3.7906,-3.8278,-3.8391,-3.8391,-3.8391,-3.8391,-3.8391,-3.8391,-3.8391,-3.8391,-3.8391,-3.8391,-3.8391,-3.8391,-3.8391,-3.8391,-3.8391,-3.8391,-3.8391,-3.8391,-3.8391,-3.8391,-3.8391,-3.8391,-3.8391,-3.8391,-3.8391,-3.8391,-3.8391,-3.8391,-3.8391,-3.8391,-3.8391,-3.8391,-3.8391,-3.8391,-3.8391,-3.8391,-3.8391,-3.8391,-3.8391,-3.8391,-3.8391,-3.8391,-3.8391,-3.8391,-3.8391,-3.8391,-3.8391,-3.8391,-3.8391,-3.8391,-3.8391,-3.8391,-3.8391,0.0,0.0,0.0,0.0,0.0,-3.7243,0.0,0.0,0.0,-3.6256,0.0,0.0,0.0,0.0,0.0,0.0,0.0,0.0,0.0,0.0,0.0,0.0,0.0,0.0,0.0,-3.4101,-3.4101,-3.4101,-3.4101,-3.4101,-3.4101,-3.4101,-3.4101,-3.4101,-3.4101,-3.4101,-3.4101,-3.4101,-3.4101,-3.4101,-3.4101,-3.4101,-3.4101,-3.4101,-3.4101,-3.4101,-3.4101,-3.4101,-3.4101,-3.4101,-3.4101,-3.4165,-3.4748,-3.5056,-3.5315,-3.6481,-3.708,-3.7404,-3.7987,-3.8278,-3.8391,-3.8391,-3.8391,-3.8391,-3.8391,-3.8391,-3.8391,-3.8391,-3.8391,-3.8391,-3.8391,-3.8391,-3.8391,-3.8391,-3.8391,-3.8391,-3.8391,-3.8391,-3.8391,-3.8391,-3.8391,-3.8391,-3.8391,-3.8391,-3.8391,-3.8391,-3.8391,-3.8391,-3.8391,-3.8391,-3.8391,-3.8391,-3.8391,-3.8391,-3.8391,-3.8391,-3.8391,-3.8391,-3.8391,-3.8391,-3.8391,-3.8391,-3.8391,-3.8391,-3.8391,-3.8391,-3.8391,-3.8391,-3.8391,-3.8391,-3.8391,-3.8391,0.0,0.0,0.0,0.0,-3.6591,0.0,0.0,0.0,-3.6256,-3.6215,0.0,0.0,0.0,0.0,0.0,0.0,0.0,0.0,0.0,0.0,0.0,0.0,0.0,0.0,0.0,-3.4101,-3.4101,-3.4101,-3.4101,-3.4101,-3.4101,-3.4101,-3.4101,-3.4101,-3.4101,-3.4101,-3.4101,-3.4101,-3.4101,-3.4101,-3.4101,-3.4101,-3.4101,-3.4101,-3.4101,-3.4101,-3.4101,-3.4101,-3.4101,-3.4101,-3.4101,-3.4117,-3.4182,-3.4603,-3.5202,-3.5364,-3.6222,-3.7323,-3.742,-3.7857,-3.8391,-3.8391,-3.8391,-3.8391,-3.8391,-3.8391,-3.8391,-3.8391,-3.8391,-3.8391,-3.8391,-3.8391,-3.8391,-3.8391,-3.8391,-3.8391,-3.8391,-3.8391,-3.8391,-3.8391,-3.8391,-3.8391,-3.8391,-3.8391,-3.8391,-3.8391,-3.8391,-3.8391,-3.8391,-3.8391,-3.8391,-3.8391,-3.8391,-3.8391,-3.8391,-3.8391,-3.8391,-3.8391,-3.8391,-3.8391,-3.8391,-3.8391,-3.8391,-3.8391,-3.8391,-3.8391,-3.8391,-3.8391,-3.8391,-3.8391,-3.8391,-3.8391,0.0,0.0,0.0,0.0,0.0,0.0,-3.619,0.0,-3.6172,0.0,0.0,0.0,0.0,0.0,0.0,0.0,0.0,0.0,0.0,0.0,0.0,0.0,0.0,0.0,0.0,0.0,0.0,0.0,-3.4101,-3.4101,-3.4101,-3.4101,-3.4101,-3.4101,-3.4101,-3.4101,-3.4101,-3.4101,-3.4101,-3.4101,-3.4101,-3.4101,-3.4101,-3.4101,-3.4101,-3.4101,-3.4101,-3.4101,-3.4101,-3.4101,-3.4101,-3.4101,-3.4101,-3.4279,-3.4603,-3.5024,-3.5558,-3.6189,-3.7031,-3.7517,-3.7841,-3.8262,-3.8391,-3.8391,-3.8391,-3.8391,-3.8391,-3.8391,-3.8391,-3.8391,-3.8391,-3.8391,-3.8391,-3.8391,-3.8391,-3.8391,-3.8391,-3.8391,-3.8391,-3.8391,-3.8391,-3.8391,-3.8391,-3.8391,-3.8391,-3.8391,-3.8391,-3.8391,-3.8391,-3.8391,-3.8391,-3.8391,-3.8391,-3.8391,-3.8391,-3.8391,-3.8391,-3.8391,-3.8391,-3.8391,-3.8391,-3.8391,-3.8391,-3.8391,-3.8391,-3.8391,-3.8391,-3.8391,-3.8391,-3.8391,-3.8391,-3.8391,-3.5847,0.0,0.0,0.0,0.0,0.0,0.0,0.0,0.0,0.0,0.0,0.0,0.0,0.0,0.0,0.0,0.0,0.0,0.0,0.0,0.0,0.0,0.0,0.0,0.0,0.0,0.0,-3.4101,-3.4101,-3.4101,-3.4101,-3.4101,-3.4101,-3.4101,-3.4101,-3.4101,-3.4101,-3.4101,-3.4101,-3.4101,-3.4101,-3.4101,-3.4101,-3.4101,-3.4101,-3.4101,-3.4101,-3.4101,-3.4101,-3.4101,-3.4101,-3.4101,-3.4101,-3.4101,-3.4165,-3.4683,-3.5007,-3.5364,-3.661,-3.729,-3.7695,-3.823,-3.8391,-3.8391,-3.8391,-3.8391,-3.8391,-3.8391,-3.8391,-3.8391,-3.8391,-3.8391,-3.8391,-3.8391,-3.8391,-3.8391,-3.8391,-3.8391,-3.8391,-3.8391,-3.8391,-3.8391,-3.8391,-3.8391,-3.8391,-3.8391,-3.8391,-3.8391,-3.8391,-3.8391,-3.8391,-3.8391,-3.8391,-3.8391,-3.8391,-3.8391,-3.8391,-3.8391,-3.8391,-3.8391,-3.8391,-3.8391,-3.8391,-3.8391,-3.8391,-3.8335,-3.8148,-3.8335,-3.8335,-3.8148,-3.8335,-3.8278,0.0,0.0,0.0,-3.5481,0.0,0.0,0.0,0.0,-3.493,0.0,0.0,0.0,0.0,0.0,-3.4651,-3.3938,0.0,0.0,0.0,0.0,0.0,0.0,0.0,0.0,0.0,0.0,0.0,-3.4101,-3.4101,-3.4101,-3.4101,-3.4101,-3.4101,-3.4101,-3.4101,-3.4101,-3.4101,-3.4101,-3.4101,-3.4101,-3.4101,-3.4101,-3.4101,-3.4101,-3.4101,-3.4101,-3.4101,-3.4101,-3.4101,-3.4101,-3.4101,-3.4101,-3.4101,-3.4101,-3.4101,-3.4133,-3.4586,-3.5299,-3.6076,-3.7226,-3.8375,-3.8391,-3.8391,-3.8391,-3.8391,-3.8391,-3.8391,-3.8391,-3.8391,-3.8391,-3.8391,-3.8391,-3.8391,-3.8391,-3.8391,-3.8391,-3.8391,-3.8391,-3.8391,-3.8391,-3.8391,-3.8391,-3.8391,-3.8391,-3.8391,-3.8391,-3.8391,-3.8391,-3.8391,-3.8391,-3.8391,-3.8391,-3.8391,-3.8391,-3.8391,-3.8391,-3.8391,-3.8391,-3.8391,-3.8391,-3.8391,-3.8391,-3.8391,-3.8391,-3.8391,-3.8091,-3.7417,-3.8091,-3.8091,-3.7476,-3.8091,-3.8033,0.0,0.0,-3.4546,-3.4913,0.0,0.0,0.0,0.0,0.0,0.0,0.0,0.0,0.0,0.0,-3.4816,-3.4473,-3.4591,-3.456,0.0,0.0,0.0,0.0,0.0,0.0,0.0,0.0,0.0,-3.4101,-3.4101,-3.4101,-3.4101,-3.4101,-3.4101,-3.4101,-3.4101,-3.4101,-3.4101,-3.4101,-3.4101,-3.4101,-3.4101,-3.4101,-3.4101,-3.4101,-3.4101,-3.4101,-3.4101,-3.4101,-3.4101,-3.4101,-3.4101,-3.4101,-3.4101,-3.4101,-3.4101,-3.4101,-3.4262,-3.4651,-3.5882,-3.6902,-3.776,-3.8246,-3.8391,-3.8391,-3.8391,-3.8391,-3.8391,-3.8391,-3.8391,-3.8391,-3.8391,-3.8391,-3.8391,-3.8391,-3.8391,-3.8391,-3.8391,-3.8391,-3.8391,-3.8391,-3.8391,-3.8391,-3.8391,-3.8391,-3.8391,-3.8391,-3.8391,-3.8391,-3.8391,-3.8391,-3.8391,-3.8391,-3.8391,-3.8335,-3.8075,-3.8075,-3.8132,-3.8408,-3.8391,-3.8391,-3.8391,-3.8391,-3.8391,-3.8391,-3.8391,-3.8091,-3.7417,-3.7653,-3.7594,-3.7417,-3.7207,-3.7207,-3.4399,-3.4349,0.0,-3.4546,-3.4546,0.0,-3.4804,0.0,0.0,0.0,0.0,0.0,0.0,0.0,-3.4787,-3.4643,-3.4643,-3.4594,0.0,-3.43,0.0,0.0,0.0,0.0,0.0,0.0,-3.4101,-3.4101,-3.4101,-3.4101,0.0,0.0,-3.4101,-3.4101,-3.4101,-3.4101,-3.4101,-3.4101,-3.4101,-3.4101,-3.4101,-3.4101,-3.4101,-3.4101,-3.4101,-3.4101,-3.4101,-3.4101,-3.4101,-3.4101,-3.4101,-3.4101,-3.4101,-3.4101,-3.4101,-3.4101,-3.4262,-3.4619,-3.5574,-3.6529,-3.7404,-3.7857,-3.8197,-3.8391,-3.8391,-3.8391,-3.8391,-3.8391,-3.8391,-3.8391,-3.8391,-3.8391,-3.8391,-3.8391,-3.8391,-3.8391,-3.8391,-3.8391,-3.8391,-3.8391,-3.8391,-3.8391,-3.8391,-3.8391,-3.8391,-3.8391,-3.8391,-3.8391,-3.8391,-3.8278,-3.8278,-3.8408,-3.8278,-3.8205,-3.8075,-3.7943,-3.8017,-3.8391,-3.8278,-3.8205,-3.8205,-3.8205,-3.8334,-3.8592,-3.8146,-3.7764,-3.7341,-3.6999,-3.6692,-3.6523,-3.6306,-3.6306]}]]